GFSWCAN_sfc_thetae_000.txt.gz
Theta_e
295 296 295 297 298 298 298 298 297 297 297 298 298 298 298 298 298 295 292 295 289 285 284 286 286 281 281 281 278 279 277 279 280 276 276 277 279 280 279 282 283 282 280 280 282 279 277 289 289 285 288 292 291 290
297 296 295 296 297 297 297 297 297 297 297 297 297 298 297 297 297 297 289 294 295 286 285 290 289 290 288 287 282 278 277 272 279 276 276 278 273 276 275 272 282 276 277 274 277 278 287 289 285 286 291 286 287 288
295 295 296 295 296 296 296 296 296 296 296 296 297 297 297 297 297 295 290 292 290 285 284 283 282 288 290 289 290 278 278 282 280 281 278 275 273 276 268 269 272 276 280 277 276 283 281 281 285 287 287 284 285 285
294 295 295 295 295 295 295 295 295 296 296 296 296 296 296 296 297 296 289 291 290 286 278 278 288 286 290 290 289 287 285 284 283 281 276 271 266 277 272 275 273 274 276 273 273 277 279 282 284 284 283 283 282 284
293 293 294 294 294 294 295 295 295 295 295 295 296 295 296 296 296 294 292 292 292 285 278 279 280 285 286 287 286 285 284 282 280 278 275 272 274 273 274 275 272 276 274 272 271 278 278 278 280 282 277 276 278 280
293 293 293 294 294 294 294 294 294 294 295 295 295 295 295 295 295 290 284 290 292 291 281 275 283 280 284 284 283 283 283 282 281 277 276 277 280 276 268 267 275 278 279 280 276 273 274 277 278 277 274 274 276 274
293 292 293 293 293 293 294 294 294 294 295 295 295 295 295 294 291 285 283 287 294 291 281 276 275 279 283 282 279 281 283 281 280 278 276 277 277 278 273 269 276 278 275 272 273 270 271 272 270 272 272 272 272 271
292 292 292 292 293 293 293 293 294 294 294 294 294 294 294 294 293 287 291 293 292 286 283 273 273 275 280 274 273 280 278 279 280 277 276 275 276 276 270 275 276 270 269 270 269 269 269 270 270 269 270 269 267 267
292 291 292 292 292 292 293 293 293 294 293 293 293 293 290 288 284 285 293 294 292 284 277 276 267 264 278 275 277 278 278 272 278 274 274 271 270 267 272 274 269 266 265 265 267 266 267 265 265 265 265 264 263 264
291 291 291 291 291 292 292 293 293 293 293 293 288 285 279 285 292 291 286 281 281 282 281 275 278 272 276 275 273 273 275 272 264 269 275 268 269 275 268 266 266 266 266 265 261 260 260 260 261 262 261 263 263 262
290 290 290 290 291 291 292 292 293 293 291 286 281 281 285 291 285 281 276 275 275 269 275 270 273 272 277 271 270 276 270 270 265 264 264 259 259 271 266 264 264 264 263 262 261 261 261 261 260 260 260 260 260 260
289 289 290 290 290 290 291 292 292 288 286 285 285 286 286 281 274 271 270 271 269 265 268 267 269 271 272 275 270 273 268 268 262 263 261 257 268 262 259 259 260 260 259 257 259 258 259 259 259 259 259 258 258 259
289 289 289 290 290 291 291 292 292 291 290 287 282 278 277 276 270 269 267 265 261 264 264 264 264 270 272 275 274 271 267 266 264 261 259 263 260 257 256 256 256 257 256 256 256 257 256 257 258 258 257 258 258 258
288 288 289 289 290 291 291 291 291 290 285 278 275 271 270 268 268 263 262 262 264 267 265 267 266 271 269 270 272 266 268 266 262 259 258 255 253 251 254 255 253 253 253 254 254 254 256 256 256 257 257 258 258 257
288 288 289 289 290 290 290 290 290 287 280 275 274 266 269 272 267 262 262 262 263 264 266 264 263 271 266 267 270 266 263 262 262 259 252 253 254 253 253 253 252 252 253 253 254 255 255 256 256 256 257 257 258 259
288 288 286 289 290 291 290 289 285 283 278 274 270 267 259 263 262 261 260 258 262 265 266 265 264 266 264 265 263 259 257 257 257 247 250 253 252 252 252 252 252 252 253 254 254 255 256 256 256 257 257 258 259 259
286 283 288 290 290 290 289 282 279 274 271 268 261 258 257 256 254 254 255 258 262 260 262 266 265 264 267 266 263 253 253 248 248 250 251 250 251 252 252 252 253 253 254 254 254 255 256 257 257 256 255 257 259 259
281 284 289 289 286 284 281 280 276 273 268 262 261 253 254 255 253 252 254 259 259 260 260 261 261 262 263 261 253 247 248 250 251 251 252 252 252 252 252 252 254 254 254 255 255 256 256 256 255 255 256 257 257 257
282 283 285 286 284 276 273 273 272 267 258 257 258 258 256 253 256 256 254 258 259 259 259 259 258 256 248 248 245 245 246 247 249 251 252 252 252 252 253 254 255 255 255 255 256 256 256 256 256 256 256 256 256 256
285 285 284 284 282 272 266 267 271 262 256 258 257 255 256 255 254 252 252 257 259 257 255 252 247 246 246 246 248 249 250 252 251 249 250 252 253 254 254 255 254 254 255 257 257 257 257 256 256 256 256 255 255 255
277 278 280 277 271 268 263 263 262 261 259 256 257 258 255 255 250 250 251 257 255 252 249 244 244 246 246 245 247 249 252 252 251 250 250 251 254 255 255 255 254 254 254 256 255 256 256 256 256 257 256 256 256 256
273 275 270 272 268 264 262 262 262 263 259 255 256 255 250 247 246 247 254 251 251 246 245 245 245 245 246 246 249 250 251 251 253 254 254 253 252 253 254 253 253 252 253 255 255 255 256 257 257 257 257 256 257 257
270 269 264 261 259 257 254 262 257 258 254 254 253 251 249 246 250 254 251 246 245 248 246 246 247 248 251 252 252 252 253 253 252 252 252 252 254 255 255 254 253 251 251 253 256 256 255 257 257 257 257 257 256 256
264 257 254 253 254 252 255 254 257 256 255 254 252 248 247 247 254 251 245 243 247 250 250 249 251 251 252 252 252 252 253 254 253 253 252 251 251 253 255 255 253 252 252 254 255 255 255 255 255 255 255 254 254 254
254 246 250 248 251 250 249 248 249 253 250 252 251 249 248 250 249 246 246 245 248 249 250 251 252 252 251 252 253 253 254 253 252 251 251 251 251 253 253 253 254 252 252 251 251 252 253 253 252 251 251 251 252 251
244 244 243 247 247 245 247 244 244 247 250 249 247 249 249 249 247 245 246 247 248 250 250 250 250 251 252 252 251 252 252 253 252 253 252 252 251 250 249 250 249 251 252 250 251 250 251 251 250 250 249 248 249 249
243 242 245 247 248 250 247 247 247 248 247 246 245 247 249 247 244 247 248 252 251 250 252 253 253 253 252 252 253 253 253 253 252 253 254 252 251 251 249 248 247 249 251 249 249 249 247 247 248 248 246 245 243 244
244 243 242 242 241 241 240 242 243 241 243 245 243 244 247 246 245 248 251 253 251 252 252 253 254 253 253 253 253 252 252 252 253 252 252 252 250 249 248 247 248 254 250 248 248 251 248 245 243 243 243 243 243 242
241 241 242 242 241 242 241 241 240 241 243 240 241 244 245 246 247 247 250 252 252 251 251 251 253 252 252 252 252 250 249 247 248 248 247 247 247 249 247 245 245 245 243 241 249 253 254 247 244 242 240 240 241 238
242 241 244 242 242 241 241 240 239 239 241 241 240 244 245 245 247 249 249 249 249 250 250 249 247 247 246 246 246 248 246 246 245 246 245 244 246 245 244 245 245 244 242 240 244 244 249 245 244 241 241 240 240 239
239 237 240 240 240 239 237 235 235 237 238 236 235 238 240 240 243 244 249 247 246 243 243 243 242 240 242 240 239 239 244 243 243 244 243 243 243 244 245 246 246 243 241 241 242 240 242 242 240 239 239 240 241 241
236 235 239 241 240 237 235 235 235 236 236 236 237 234 238 239 241 244 245 245 241 242 246 244 241 248 246 247 243 244 248 245 243 246 245 247 246 247 248 248 246 244 243 245 245 244 244 243 243 242 242 243 243 243
234 233 233 236 238 239 236 236 237 237 236 236 237 234 234 238 243 246 245 243 246 248 249 249 249 247 246 246 246 247 248 247 247 252 254 254 252 252 251 250 248 246 246 247 248 246 246 245 245 245 244 244 244 244

GFSWCAN_sfc_thetae_003.txt.gz
Theta_e
297 297 297 297 297 297 297 298 299 299 299 299 298 298 299 299 299 294 289 293 289 283 283 284 285 279 280 277 269 271 273 272 272 269 266 273 269 274 271 274 273 274 273 273 277 276 274 285 284 275 278 284 283 282
297 297 296 296 297 297 297 297 298 298 298 298 298 298 298 298 298 297 286 292 293 286 283 288 288 289 287 285 278 273 274 268 274 268 265 265 265 268 269 266 277 271 275 271 273 273 278 283 280 282 286 282 281 281
296 296 296 296 296 296 297 297 297 297 297 298 297 298 297 297 298 296 287 288 287 284 283 284 282 287 290 288 290 278 273 282 279 280 269 268 260 271 262 263 268 273 276 273 272 276 277 278 281 283 282 280 280 280
295 295 295 295 295 295 296 296 296 296 296 296 297 297 297 296 297 297 288 289 287 284 277 277 284 284 289 288 288 287 285 283 282 279 274 268 264 275 267 271 270 273 275 270 271 275 276 278 280 279 279 277 276 276
295 295 295 295 294 295 295 295 295 295 296 296 296 296 296 296 297 295 290 289 290 284 275 278 280 283 285 286 285 286 284 282 279 276 271 267 273 274 273 275 272 276 274 271 269 276 274 275 276 277 273 272 272 273
295 295 295 294 294 294 294 295 295 295 295 295 296 295 296 296 296 289 280 287 291 289 281 275 280 276 283 284 283 283 284 282 280 278 276 277 279 275 269 261 275 277 278 278 275 273 272 274 276 276 272 271 271 271
294 294 294 294 294 293 294 294 295 295 295 295 295 295 296 296 292 285 279 285 292 291 281 275 271 275 281 279 276 279 280 280 279 278 277 277 277 277 273 269 276 278 278 274 273 271 273 272 271 272 271 271 270 268
294 293 293 293 293 293 293 293 294 294 294 294 295 295 295 295 293 286 289 293 291 286 283 274 273 275 280 273 272 279 278 279 279 278 276 275 276 276 271 275 277 277 271 271 270 270 269 270 269 270 269 268 265 265
293 292 292 293 293 293 293 293 293 293 294 294 294 294 289 285 280 283 292 293 291 284 276 275 266 263 276 274 275 273 278 271 279 274 275 272 272 268 271 275 275 269 268 266 266 265 266 265 264 265 264 263 262 263
293 292 292 292 292 292 292 292 292 293 293 294 289 283 275 284 291 290 287 282 282 282 280 274 266 265 275 272 270 273 275 272 269 268 275 271 270 276 274 266 266 265 264 263 260 260 259 259 260 261 261 262 262 262
291 291 291 291 291 291 291 292 292 292 292 286 281 279 280 291 282 281 276 275 276 270 275 268 274 271 276 269 270 276 272 272 267 265 263 254 257 271 264 262 262 263 262 261 260 260 260 259 259 259 259 259 259 259
290 290 290 291 290 291 291 291 291 288 286 285 283 286 285 281 277 273 272 273 272 266 262 265 267 271 270 275 271 273 269 268 264 259 259 256 268 259 257 257 258 259 257 256 257 257 258 258 258 257 257 257 258 258
289 289 289 289 290 290 290 291 291 291 290 286 281 276 276 276 270 267 265 264 257 260 261 262 264 270 269 274 271 269 267 266 261 259 259 261 258 256 254 255 255 256 255 255 255 256 255 255 256 256 256 257 257 257
288 288 289 289 289 290 290 291 291 290 285 278 275 270 269 267 270 269 267 262 264 262 262 263 260 267 262 270 272 267 270 267 263 260 258 250 252 250 253 255 254 254 254 254 253 253 253 254 255 256 256 256 257 256
287 288 288 288 289 289 290 291 291 287 279 276 274 267 269 270 262 259 260 260 263 264 267 265 262 272 260 265 270 265 262 259 260 258 250 251 253 253 254 254 253 252 252 252 252 252 254 254 254 255 257 258 258 258
287 287 284 289 289 290 290 290 286 283 279 275 271 267 257 262 260 260 259 258 262 264 264 263 263 266 263 263 262 261 258 257 257 244 247 252 252 252 251 251 251 252 251 251 252 253 253 254 255 256 257 257 257 258
286 278 288 289 290 290 289 281 280 275 273 269 255 253 253 254 255 252 252 258 262 258 258 262 262 262 265 261 258 251 254 246 246 249 248 250 249 250 250 250 251 251 251 252 253 253 254 256 257 256 255 256 257 257
277 281 287 288 286 284 280 275 273 271 263 261 259 251 253 252 251 249 250 257 257 256 255 257 260 258 259 257 253 245 247 248 249 246 249 250 248 249 249 250 251 252 253 253 253 254 256 256 255 255 255 256 257 256
281 284 289 287 283 277 274 271 270 258 255 253 257 257 253 251 255 255 251 256 257 258 257 255 256 254 248 245 243 241 240 241 246 249 250 249 250 248 249 251 253 253 253 253 255 256 257 257 256 256 256 256 255 256
284 286 285 282 281 272 266 266 265 258 253 257 254 252 254 252 251 246 246 254 258 255 253 251 245 245 246 245 246 246 248 249 249 247 248 251 251 250 252 254 253 253 254 255 256 257 257 256 257 257 256 256 255 255
277 278 279 273 267 264 261 261 259 257 256 253 253 254 254 251 245 244 245 255 253 252 249 245 248 248 246 245 244 242 248 249 247 247 248 249 253 254 255 254 254 253 253 254 255 255 256 255 257 257 256 256 256 256
273 275 268 270 265 259 259 261 260 259 254 251 252 251 244 244 244 244 250 247 248 245 245 248 249 246 241 242 244 244 246 246 248 252 253 253 251 253 253 253 252 251 252 253 255 254 255 256 257 257 257 257 257 257
270 269 263 261 260 257 253 257 253 255 250 250 249 247 246 245 247 252 248 243 243 246 243 244 244 242 244 247 249 249 251 250 251 251 251 251 253 254 255 253 252 251 250 252 254 254 254 255 255 255 256 256 256 256
263 256 253 252 252 248 252 249 254 251 252 251 249 247 247 247 251 248 244 239 243 244 245 246 248 250 251 251 250 250 251 253 252 252 251 251 251 252 253 254 252 251 251 252 253 253 253 253 253 253 253 253 253 253
255 246 248 245 249 248 246 245 247 250 247 248 249 248 248 247 247 245 244 243 242 244 248 249 250 252 249 250 253 253 253 252 252 251 252 251 251 252 252 253 253 251 251 250 250 251 251 252 251 251 250 249 249 250
243 243 242 243 246 244 246 243 243 245 246 247 247 246 245 248 246 247 245 244 246 248 249 249 250 250 251 252 252 252 252 253 252 252 252 252 251 250 250 250 250 251 251 249 248 249 249 250 249 248 248 247 247 245
242 241 243 244 246 248 245 246 246 246 244 244 242 246 248 246 245 246 246 250 250 249 251 252 252 252 252 252 253 253 253 253 252 253 253 252 251 250 249 247 248 249 250 248 247 246 247 247 247 247 245 243 241 241
242 240 243 242 241 240 240 240 241 242 243 245 243 242 247 247 246 247 251 253 250 252 252 252 253 253 253 254 254 253 252 250 251 250 249 250 250 249 248 248 248 254 250 248 248 249 248 247 243 241 240 240 241 240
240 239 241 240 239 240 239 239 239 238 241 238 241 244 244 245 246 246 249 251 250 251 250 251 252 253 252 251 250 249 248 247 248 248 247 247 247 250 249 247 246 246 245 242 249 253 253 252 246 243 241 241 242 237
240 238 242 240 241 241 240 238 237 235 237 239 239 244 245 245 246 248 249 250 251 251 252 250 249 248 247 247 247 249 246 246 247 248 246 246 247 246 242 244 245 244 242 239 245 244 248 244 245 241 241 242 240 240
236 235 238 238 240 237 236 233 232 234 235 234 233 238 239 240 243 242 247 246 244 241 243 244 242 239 242 242 240 239 245 244 244 246 246 245 243 243 245 246 246 243 240 240 241 240 242 242 241 241 241 242 242 243
234 235 239 242 240 236 233 234 233 235 234 235 236 232 237 238 240 244 243 243 241 242 246 243 243 249 246 248 243 244 248 244 243 246 245 246 246 247 247 247 246 241 241 244 244 244 245 245 245 245 244 244 244 243
232 231 231 235 238 238 235 235 235 237 235 235 236 233 232 237 243 245 244 243 246 249 249 248 249 248 245 246 247 247 248 247 246 252 254 254 252 252 250 248 247 245 246 247 247 247 247 246 246 246 245 244 244 244

GFSWCAN_sfc_thetae_006.txt.gz
Theta_e
298 298 297 298 298 297 298 297 297 297 297 299 300 300 299 299 299 296 291 293 288 283 283 283 284 279 280 276 269 270 272 270 272 269 262 271 266 272 268 272 270 268 268 266 268 263 265 278 276 271 276 281 282 281
297 297 297 298 297 297 297 297 297 297 297 298 299 299 299 299 298 298 289 291 294 285 281 286 287 288 287 284 279 272 274 267 274 267 263 263 261 262 263 258 273 265 270 265 270 269 277 279 278 280 283 277 278 278
297 297 297 297 297 297 297 297 297 297 297 298 298 298 298 298 298 297 288 288 289 285 284 281 282 286 289 288 289 279 274 281 279 279 269 272 265 269 259 261 266 272 275 269 269 274 275 277 279 280 280 278 277 277
296 296 296 297 296 296 296 296 296 296 296 296 297 297 297 298 298 297 287 289 289 285 277 277 283 283 287 288 288 287 285 283 282 280 277 273 265 275 267 271 270 272 273 270 271 275 276 277 277 277 277 276 275 275
296 296 296 296 296 296 295 295 295 295 296 296 296 296 297 297 297 295 290 289 291 285 277 274 275 283 285 285 285 285 284 283 282 279 276 273 271 272 269 274 271 275 273 271 269 276 275 276 279 277 274 273 273 272
295 295 295 295 296 295 295 295 295 294 295 295 296 296 296 296 296 289 284 289 291 290 281 270 279 275 283 284 283 283 283 282 282 279 278 277 279 275 271 267 275 277 278 278 275 278 276 276 276 276 272 271 272 271
295 295 295 295 295 295 295 295 295 294 294 295 295 296 296 296 291 286 283 284 292 290 281 275 271 274 281 279 276 279 281 282 281 280 278 277 277 278 274 269 276 277 278 278 276 273 272 274 272 271 271 270 269 268
295 294 294 294 295 294 294 294 294 294 294 294 294 295 295 295 294 288 291 293 292 286 283 273 272 272 276 271 271 279 278 279 279 278 275 276 277 277 271 275 277 278 277 274 272 271 270 269 269 268 268 267 264 264
294 294 294 294 294 294 293 294 294 293 293 293 294 294 290 288 284 283 293 294 291 284 275 269 266 269 278 275 275 272 278 272 279 275 275 275 273 270 272 275 274 267 266 264 265 265 265 263 263 264 263 262 261 262
292 292 292 293 293 293 293 293 293 293 292 293 290 284 279 282 290 291 284 280 280 281 280 271 264 264 274 271 269 268 273 271 269 270 276 272 270 276 264 264 264 263 262 262 259 259 258 258 259 260 260 261 261 261
291 291 292 292 292 292 292 292 292 292 291 286 282 280 284 291 282 279 275 274 273 272 278 275 275 274 277 270 268 276 272 272 267 264 264 253 256 269 262 260 261 261 260 259 259 259 259 258 258 258 258 259 259 258
290 290 290 291 292 292 291 292 292 288 285 284 284 286 286 281 276 272 270 270 270 269 264 266 269 273 271 274 269 272 269 270 265 256 259 256 264 257 256 257 258 258 256 255 256 256 257 258 258 257 256 256 256 257
289 289 289 290 290 291 291 291 291 290 289 286 281 277 277 274 269 267 261 259 257 261 262 263 267 273 272 274 270 269 265 263 258 257 259 262 257 256 254 255 255 256 255 256 256 256 256 255 255 254 254 255 256 255
288 288 288 289 289 290 290 290 290 289 285 278 275 269 270 265 264 264 262 260 262 264 259 262 264 269 264 268 271 264 265 262 258 257 258 250 252 250 252 254 254 253 253 253 253 253 253 253 253 254 254 255 255 256
287 287 288 288 289 289 289 290 290 287 282 276 275 268 267 260 256 255 255 260 260 263 265 264 268 273 264 269 271 267 263 258 259 258 250 250 252 253 253 253 252 251 251 251 251 251 252 252 253 253 254 256 257 257
287 286 283 288 288 289 289 288 286 284 279 275 270 266 259 261 258 257 259 261 263 265 267 268 266 267 265 267 265 262 257 256 258 244 246 249 247 248 248 249 250 250 250 250 250 251 252 252 253 254 256 257 257 257
286 275 286 288 288 289 289 283 281 275 273 266 257 253 254 257 257 252 254 258 262 260 260 264 263 262 265 264 260 256 256 247 243 243 246 246 247 248 249 249 249 249 249 250 251 252 252 253 254 256 255 256 256 257
271 278 286 287 286 286 280 277 274 268 260 259 255 250 253 252 252 252 253 258 259 259 257 258 260 255 254 254 254 246 243 241 243 244 249 249 247 246 247 247 249 249 249 250 250 252 253 255 256 256 256 256 256 257
279 285 287 287 284 277 273 270 267 258 255 253 255 254 252 250 255 255 253 257 258 257 256 254 252 251 250 245 243 240 239 240 243 249 250 248 249 247 247 248 249 248 249 252 253 255 256 257 257 257 256 256 255 256
283 283 283 282 280 272 267 265 264 257 252 255 253 250 251 251 250 244 245 254 257 251 252 252 247 242 245 247 249 249 249 250 244 242 245 248 249 245 248 251 252 253 253 254 256 257 256 256 257 257 257 256 255 255
277 277 278 273 267 265 262 261 258 257 256 252 251 252 251 248 243 243 244 253 250 253 248 242 241 245 245 245 245 244 247 247 245 245 244 245 251 252 254 254 253 253 253 253 253 254 255 254 256 257 257 256 257 257
271 275 267 269 264 261 260 260 258 257 253 250 250 247 243 243 242 242 248 246 247 244 243 243 242 242 241 242 244 243 244 241 243 247 251 252 251 252 253 253 252 251 252 252 253 253 253 254 255 256 256 256 257 257
268 268 262 260 258 255 254 256 252 253 249 248 245 246 245 242 244 251 248 242 242 245 240 240 240 239 242 243 245 245 245 246 247 249 250 251 253 254 254 253 252 250 250 251 253 253 253 254 254 254 255 255 255 254
262 255 253 252 251 247 249 248 251 249 248 246 245 243 244 242 249 246 245 238 242 241 242 242 242 245 246 246 246 247 249 250 251 251 252 251 252 252 253 253 252 251 251 251 252 252 252 252 253 252 251 251 252 252
255 246 248 244 247 246 244 243 244 246 244 243 244 244 245 245 246 243 243 241 240 240 243 244 246 246 246 248 251 251 251 252 252 252 252 252 252 253 253 253 253 251 251 249 249 250 250 251 250 250 249 248 247 247
242 242 242 240 243 244 242 242 241 243 243 244 245 244 242 246 244 244 243 241 239 245 247 249 249 248 249 251 251 251 252 253 252 252 253 253 252 251 250 250 250 251 249 247 246 246 247 249 248 247 247 247 246 243
241 240 242 242 243 244 243 244 245 246 244 244 243 245 247 244 243 245 242 245 249 249 250 251 251 251 252 251 253 253 254 253 252 253 253 253 252 251 249 248 248 249 248 247 245 243 244 246 247 246 244 243 240 239
241 239 242 241 240 239 239 240 242 242 244 246 244 245 246 248 246 245 249 252 249 251 251 250 252 253 252 253 253 253 252 251 251 250 248 249 250 250 249 249 249 255 251 248 247 248 246 246 247 245 242 242 242 240
240 237 240 239 238 239 238 240 239 238 240 238 241 244 245 246 246 246 249 251 249 251 250 250 251 252 252 252 252 250 249 248 248 248 248 248 248 250 249 248 247 246 245 242 249 254 253 253 251 247 245 243 242 237
240 236 240 238 240 241 240 238 237 234 234 238 237 242 243 245 247 249 249 249 250 251 252 251 250 250 248 246 247 247 245 246 248 249 246 246 248 246 243 243 245 246 243 239 245 245 249 245 245 242 242 242 241 241
234 234 238 237 240 237 234 231 230 232 233 233 231 237 239 239 242 244 247 247 245 241 243 243 241 239 242 242 241 240 246 244 244 246 246 246 245 244 245 246 246 243 240 240 242 241 243 242 241 242 242 243 244 244
233 234 238 242 240 235 232 232 231 234 233 234 236 231 237 238 241 244 243 242 241 242 246 243 243 249 246 248 242 245 248 246 242 246 245 247 247 248 248 247 245 242 242 244 244 243 243 244 245 245 246 245 245 244
231 230 230 234 238 238 234 235 235 236 235 234 235 232 232 236 243 245 244 242 245 248 248 248 249 245 244 246 246 247 248 248 248 253 254 254 252 252 250 248 246 246 246 246 247 247 246 246 247 247 246 246 246 246

GFSWCAN_sfc_thetae_009.txt.gz
Theta_e
298 299 299 299 298 298 299 299 299 298 298 298 298 299 300 301 300 297 292 294 289 283 283 283 283 280 279 276 270 271 273 270 271 267 261 270 264 271 268 271 270 266 259 257 256 255 260 276 275 269 272 277 278 279
299 298 298 299 298 298 299 298 298 298 298 298 298 298 299 300 300 299 289 293 294 286 283 285 287 287 285 283 279 272 276 268 275 268 264 264 260 261 263 258 273 263 268 263 266 266 276 277 276 279 279 278 278 277
297 298 298 298 298 298 298 298 297 298 297 297 298 298 298 299 299 298 292 289 290 285 284 284 283 286 288 287 288 279 277 281 279 280 273 273 267 270 262 262 267 271 275 270 268 274 274 277 278 278 279 279 279 278
297 297 297 298 298 298 297 297 297 297 296 296 297 297 297 298 298 298 292 291 289 286 278 277 282 283 288 288 287 287 284 282 283 282 278 274 268 275 271 272 270 272 273 270 270 274 276 277 278 278 278 277 276 276
296 296 297 297 297 297 297 297 297 296 296 296 296 296 297 296 297 296 294 292 292 285 274 277 276 282 284 284 284 285 284 282 281 279 277 274 274 275 273 274 271 275 273 271 269 276 275 276 279 278 276 275 274 272
295 296 296 296 296 296 296 296 296 296 296 296 295 296 296 296 296 290 284 290 291 290 282 275 280 275 281 283 282 282 282 282 282 279 278 279 279 277 272 269 275 277 277 278 275 278 278 278 278 275 272 272 272 271
295 295 295 296 296 296 296 296 296 296 296 295 295 295 295 296 293 285 283 284 292 291 282 276 274 274 279 278 275 280 281 280 281 279 278 278 277 278 274 270 276 277 278 278 278 275 274 275 273 271 271 270 269 268
294 294 294 295 295 295 295 295 295 295 295 295 295 294 295 295 294 288 291 293 292 287 283 274 267 267 275 270 270 278 277 279 280 278 276 277 278 278 272 276 277 278 277 275 269 269 269 268 268 267 267 266 264 264
293 293 293 294 295 295 295 295 295 295 294 294 294 294 291 288 284 284 294 294 291 284 276 275 267 266 276 274 275 273 279 273 279 275 275 276 274 270 272 275 273 265 265 263 265 265 264 263 263 263 263 262 261 262
292 292 293 294 294 294 294 294 294 294 294 294 290 284 280 284 291 291 287 282 282 281 280 273 263 263 274 271 264 266 274 273 269 272 275 273 271 276 265 263 263 262 261 261 260 260 258 258 259 260 259 260 261 260
291 291 292 292 292 293 293 293 294 293 293 286 282 281 284 290 285 281 276 275 275 272 276 268 270 269 273 264 266 275 272 273 268 265 267 264 258 269 261 260 261 261 260 259 258 258 258 258 257 258 258 258 258 257
289 290 291 291 291 291 292 293 293 290 285 285 285 286 286 282 277 273 272 273 272 267 263 270 272 272 268 274 273 275 271 271 266 260 259 254 264 257 257 257 258 258 256 255 256 256 257 258 258 257 255 255 255 256
288 289 290 290 290 291 291 292 293 292 290 285 281 278 278 275 269 267 263 265 263 259 259 261 264 269 275 277 274 273 269 266 261 257 258 261 257 255 253 254 254 255 254 255 255 255 255 255 255 254 253 254 254 254
288 288 289 289 290 290 290 291 292 291 285 278 274 269 270 268 270 264 260 262 263 261 259 259 259 269 271 271 273 267 268 264 259 257 257 251 251 249 251 253 249 252 253 252 251 252 252 252 252 253 253 253 254 254
287 287 288 288 288 289 289 290 290 287 281 276 275 267 268 260 254 252 251 255 258 260 263 262 263 273 269 270 272 269 265 263 259 259 252 250 252 250 250 249 247 249 250 250 250 250 251 251 251 251 252 253 255 256
287 287 284 287 288 288 289 288 285 283 280 276 272 267 262 258 254 256 253 260 262 266 264 266 268 268 267 268 266 262 260 258 259 248 249 250 247 246 246 246 248 249 248 249 249 249 250 250 250 251 253 254 256 257
286 275 286 287 288 288 288 280 281 275 273 266 261 258 261 259 258 256 259 260 262 262 258 263 264 262 266 265 261 260 258 252 247 245 244 244 244 245 245 245 246 246 247 247 248 248 249 250 250 252 254 256 257 257
275 280 286 287 285 284 278 276 270 266 260 260 261 253 255 254 256 255 255 259 259 259 256 259 261 257 258 255 255 249 244 241 241 242 245 245 243 244 243 244 246 246 246 247 248 247 246 251 254 255 256 256 256 256
281 283 286 287 284 277 272 267 267 259 256 254 256 256 254 254 256 255 253 257 257 256 256 253 254 252 254 246 244 240 238 240 243 248 247 245 247 243 245 246 247 245 246 246 248 253 255 256 256 257 256 256 255 256
282 283 282 283 280 272 266 263 264 259 257 256 255 254 254 253 252 249 247 253 256 249 253 252 250 244 248 246 245 244 246 248 243 242 245 248 248 243 246 247 249 249 251 253 254 255 255 255 256 257 257 257 256 255
276 276 277 271 267 266 263 262 258 258 257 255 255 254 252 249 244 243 243 252 250 252 249 241 239 240 240 240 243 243 247 248 244 244 244 245 248 247 248 252 253 253 253 252 252 253 253 253 254 256 256 256 257 257
270 274 268 269 265 263 261 260 259 258 255 253 253 250 244 243 242 242 248 247 247 244 242 242 241 240 240 242 242 239 241 240 241 244 249 249 248 251 253 252 252 251 252 252 252 252 253 253 254 254 255 255 256 256
267 267 261 259 259 257 255 258 255 252 252 250 248 248 245 241 243 251 248 241 241 243 238 239 239 236 240 240 239 241 242 243 244 245 249 251 252 253 253 253 252 250 250 251 252 252 252 253 253 253 253 254 254 253
261 253 251 250 252 249 248 249 251 250 249 246 246 244 243 241 248 245 244 238 241 240 240 241 239 242 242 242 243 244 245 245 249 250 251 252 252 253 253 253 252 252 251 251 252 252 252 251 252 251 250 249 249 249
256 246 247 244 245 246 244 242 243 246 244 241 242 243 244 241 243 242 243 242 239 239 240 238 240 242 242 241 246 247 250 250 251 251 252 252 252 253 253 253 253 252 251 250 249 249 249 250 250 249 249 248 247 247
242 241 242 238 242 244 241 242 240 242 241 241 241 241 239 241 243 244 243 241 238 240 242 246 246 244 245 247 250 251 251 251 251 251 252 253 252 251 250 250 250 251 250 249 247 246 246 248 248 247 247 246 245 240
241 240 241 240 242 241 242 242 241 242 241 242 240 242 242 243 242 245 242 242 243 244 247 248 249 249 249 249 252 251 252 252 252 252 252 252 253 252 251 250 249 250 248 247 246 245 245 246 246 247 245 242 239 238
240 238 242 240 239 237 238 237 239 241 241 242 241 242 243 245 246 244 246 250 247 247 247 248 251 251 251 252 252 253 252 250 250 250 249 250 250 251 250 250 250 256 252 248 248 247 245 246 246 247 244 243 244 239
239 236 238 239 238 239 239 240 240 239 240 238 241 242 244 244 243 243 247 249 246 249 249 250 250 250 251 251 252 251 250 249 249 249 248 248 248 251 249 249 248 246 245 243 249 253 251 250 251 249 245 244 244 238
239 235 241 239 241 242 239 236 236 233 233 236 236 242 242 242 244 246 248 248 250 250 250 250 249 251 249 247 245 245 243 245 247 248 245 245 247 246 242 243 243 243 242 239 245 245 249 247 246 243 243 243 242 242
233 233 238 237 239 236 234 230 229 231 232 232 230 236 239 240 243 245 247 248 245 241 243 243 242 238 242 241 241 241 246 243 243 245 245 245 244 244 245 246 246 243 241 241 242 241 243 242 241 243 243 244 244 245
233 233 238 241 239 234 231 231 230 233 232 234 236 231 237 238 242 244 242 241 240 241 245 242 242 248 245 247 242 244 248 246 243 245 245 246 247 248 248 248 246 243 243 244 244 243 244 244 245 246 246 245 245 245
230 229 229 234 237 238 234 234 235 236 234 234 235 231 231 236 242 245 243 239 243 245 246 246 247 244 244 246 247 248 249 249 249 254 255 254 253 253 252 250 248 246 245 246 246 246 246 245 246 246 246 246 246 246

GFSWCAN_sfc_thetae_012.txt.gz
Theta_e
299 299 299 299 299 299 299 300 299 299 300 299 298 299 300 300 300 298 293 294 289 284 284 283 283 279 279 276 270 270 271 270 270 264 260 268 262 270 267 270 269 266 260 256 254 256 258 275 274 268 272 276 276 275
299 299 299 299 299 299 299 299 298 298 299 299 299 299 299 298 299 299 291 295 294 287 284 285 286 287 286 283 278 270 274 267 274 267 264 265 261 260 263 260 273 264 268 262 265 264 275 277 276 279 278 275 276 277
298 298 299 299 299 299 299 299 299 298 299 299 299 298 298 299 299 297 292 292 290 285 284 284 283 286 287 287 288 279 273 280 277 279 273 273 268 270 262 262 266 271 274 271 271 274 275 277 278 278 278 278 279 279
297 298 298 298 298 298 298 298 298 298 298 298 298 297 297 298 298 297 291 292 290 285 278 278 282 282 287 287 286 286 284 281 281 280 278 274 270 277 272 273 271 273 272 269 271 274 276 277 277 278 279 279 278 277
296 297 297 297 297 297 297 298 298 298 298 298 297 297 296 297 297 295 293 293 292 286 278 274 274 281 284 285 284 285 283 282 281 278 276 273 277 276 275 275 272 275 273 270 269 276 275 276 279 279 277 276 275 274
295 296 296 296 296 296 297 297 297 297 297 297 297 297 296 296 296 290 284 291 293 292 282 276 280 275 280 282 282 282 282 282 281 279 277 279 280 277 272 270 276 277 277 278 275 278 278 278 278 274 272 271 272 271
294 295 295 295 296 296 296 296 297 297 297 297 297 296 296 296 291 286 284 284 293 292 282 276 275 273 279 279 275 279 281 281 280 279 277 277 277 279 275 270 276 277 278 278 278 276 275 276 272 270 270 269 268 268
294 294 294 295 295 295 295 296 296 296 296 296 296 296 296 296 294 288 292 294 293 286 284 275 272 267 274 270 271 278 277 279 279 278 276 276 277 277 271 276 277 278 276 273 268 269 268 268 268 267 266 266 263 264
292 293 293 294 294 294 295 295 295 296 296 296 296 295 292 288 284 286 294 296 292 285 277 276 266 264 275 273 275 273 278 272 279 274 275 275 272 270 273 275 276 267 267 264 264 265 264 263 263 263 262 261 260 261
291 292 292 293 293 293 293 294 295 295 295 295 292 284 280 284 292 292 287 283 283 282 281 274 262 264 275 272 269 271 275 272 269 270 275 273 271 276 269 264 264 262 262 262 260 260 258 257 259 259 259 260 260 260
290 290 291 291 292 292 293 294 295 294 294 287 283 280 283 291 283 281 277 276 276 272 276 272 270 268 275 271 271 275 270 268 264 264 266 262 259 270 262 260 261 261 260 259 258 258 258 258 257 257 258 258 257 257
289 289 290 290 291 292 292 293 294 291 286 286 285 286 286 282 278 274 272 274 272 267 264 269 272 276 273 275 270 271 268 268 265 260 266 263 265 259 259 258 258 258 255 254 255 256 257 258 257 256 255 255 255 255
288 289 289 289 290 291 292 292 292 292 290 285 281 278 277 276 270 268 265 262 260 261 261 265 268 272 274 275 272 271 267 265 261 263 263 262 257 255 254 255 255 254 253 253 254 254 254 254 254 253 253 254 253 253
288 288 289 289 289 290 291 291 292 290 285 278 275 270 270 268 267 263 261 260 265 263 260 263 266 270 268 270 271 263 268 266 262 260 257 256 253 250 251 253 248 250 249 251 250 251 252 252 252 252 252 252 251 251
288 288 289 288 289 289 290 290 290 288 282 276 274 268 269 258 253 250 250 259 261 265 267 264 263 272 264 268 271 265 262 261 262 259 255 250 251 252 252 248 246 247 248 248 248 248 250 250 250 250 250 249 250 252
288 286 282 287 288 288 289 288 286 284 280 276 271 266 254 258 252 252 249 252 259 267 263 265 262 265 265 266 266 264 260 258 260 250 248 252 250 247 245 245 246 246 245 246 246 246 249 248 248 249 249 249 252 254
287 281 286 287 287 288 288 280 279 273 271 267 257 252 253 256 257 253 254 257 263 262 259 264 265 262 266 264 261 259 258 253 248 247 248 247 246 244 243 242 244 244 244 244 243 245 245 247 246 245 246 252 254 256
273 279 286 287 284 282 275 273 270 267 260 257 258 250 250 251 252 257 255 261 263 264 264 265 266 261 259 258 255 254 249 244 243 243 245 244 242 241 240 242 244 244 244 244 245 244 241 245 247 250 253 256 256 256
281 281 285 286 283 275 270 264 266 259 253 254 256 257 254 251 256 256 257 260 260 259 260 258 262 256 256 248 245 241 238 240 244 247 246 244 245 242 242 243 244 243 244 242 243 248 250 251 254 255 256 257 256 256
281 282 283 284 280 271 264 262 265 259 250 254 253 253 254 255 254 252 254 258 259 255 256 254 254 246 247 245 244 244 245 247 243 241 243 247 247 242 244 243 246 245 245 246 250 254 254 254 255 255 256 256 256 256
275 275 277 271 268 265 262 261 258 259 257 255 256 256 253 253 251 251 250 253 254 254 251 242 239 239 238 238 240 241 246 247 244 244 243 243 246 246 245 245 246 247 251 252 252 252 253 252 253 254 255 255 256 256
268 273 268 270 266 263 260 260 257 257 256 254 254 253 252 251 247 246 249 250 248 244 242 241 240 238 239 241 241 239 240 238 238 243 247 247 248 249 248 249 251 250 252 252 251 251 252 253 253 253 253 254 255 255
267 266 261 261 261 260 255 260 256 254 256 253 252 253 249 246 246 252 248 242 241 242 237 237 237 235 239 238 237 238 238 240 242 243 246 248 251 251 252 252 252 251 251 252 252 252 252 253 253 252 252 252 252 252
261 253 251 251 253 252 251 250 253 252 251 250 250 247 244 241 247 246 245 238 241 239 239 239 237 241 240 240 240 240 241 241 243 245 248 250 251 251 253 253 252 252 251 251 252 251 252 251 252 251 251 249 249 248
255 246 247 244 246 248 247 245 243 246 243 240 243 243 243 240 243 242 244 242 238 238 239 236 237 240 241 238 240 242 245 249 251 250 251 252 251 252 253 253 253 252 251 250 250 249 249 250 250 249 249 247 246 246
243 240 242 237 242 244 241 243 241 242 240 241 240 239 237 241 243 245 243 241 238 240 241 244 245 241 242 243 245 249 250 252 251 250 251 252 252 250 250 250 250 251 250 248 247 246 247 249 247 248 248 248 247 245
242 240 240 239 240 240 241 239 239 241 241 243 240 241 241 244 243 245 242 242 242 242 244 247 247 247 246 245 249 251 251 252 252 252 251 251 252 252 252 250 250 252 250 249 248 246 246 246 247 248 248 247 242 240
239 237 241 240 239 235 238 237 238 240 240 240 240 243 245 246 246 246 246 247 245 244 245 245 247 247 248 251 252 253 252 251 250 251 251 251 251 251 251 252 251 257 252 250 249 249 247 246 246 246 246 246 247 241
239 235 237 240 238 240 239 240 239 238 239 237 242 242 243 245 241 241 246 247 243 246 246 247 249 249 252 252 253 253 251 249 249 249 248 248 249 251 250 250 250 249 248 247 251 254 251 248 248 248 249 247 245 239
239 234 240 238 241 241 239 236 236 232 232 235 235 241 241 241 241 241 243 245 246 246 246 247 247 250 250 250 248 249 246 248 250 250 247 247 248 247 243 244 245 245 242 240 245 245 249 246 245 242 242 243 242 242
233 233 237 237 240 236 233 229 228 229 230 231 229 236 238 237 241 240 242 243 244 243 245 244 242 239 242 241 241 242 246 244 242 245 245 245 244 244 245 246 246 244 241 241 242 242 243 242 241 242 243 244 245 245
233 233 237 241 239 234 230 230 229 233 231 234 236 230 236 239 242 244 243 240 240 241 243 241 241 246 244 246 241 242 247 244 242 246 246 248 249 249 249 249 247 243 242 244 244 243 243 243 244 245 246 246 246 245
231 229 228 234 236 238 234 234 235 236 234 234 235 231 231 235 242 244 243 238 242 242 242 243 244 241 242 243 245 247 249 249 248 254 255 255 253 253 251 249 247 246 246 246 246 246 246 246 246 246 246 247 247 247

GFSWCAN_sfc_thetae_015.txt.gz
Theta_e
299 300 300 300 300 300 300 300 299 300 300 300 299 299 299 300 301 298 294 295 289 284 282 282 283 278 278 275 270 270 272 270 269 264 262 268 262 269 266 269 269 266 259 254 253 256 260 274 273 268 272 275 275 275
299 299 299 299 299 300 300 300 299 299 300 300 299 300 299 299 300 299 291 294 295 287 285 284 287 287 285 282 278 274 275 270 276 268 265 267 261 263 265 261 273 265 268 264 265 264 274 276 275 278 279 276 277 276
297 298 299 299 299 299 300 300 299 299 300 299 299 300 300 299 299 298 289 290 291 285 284 284 283 286 286 287 288 277 272 280 278 279 274 272 268 270 260 262 267 271 272 270 271 274 274 276 279 279 278 277 278 278
296 297 297 298 298 298 299 299 299 299 299 299 299 299 299 299 299 298 291 293 291 286 279 278 282 282 287 287 286 286 284 281 282 281 277 274 268 277 270 272 271 274 272 270 271 275 276 277 278 278 279 279 277 277
296 296 296 297 298 298 298 298 298 298 298 298 298 298 298 298 298 294 291 291 293 286 278 279 280 282 284 286 284 284 283 281 281 278 276 274 274 275 272 274 272 276 273 271 270 276 275 276 279 278 277 276 273 272
295 295 295 296 296 296 297 297 297 297 297 298 298 298 298 298 297 290 284 289 293 292 282 276 280 274 280 282 283 282 283 282 282 279 278 278 279 277 272 268 275 277 278 278 276 279 278 279 276 273 273 271 271 269
294 295 295 295 295 296 296 296 297 297 297 297 297 297 298 297 293 286 282 285 293 292 282 276 272 275 279 278 275 280 282 282 282 280 277 277 277 279 274 270 276 278 278 278 279 277 275 276 273 270 269 268 267 266
293 293 294 294 294 295 295 295 296 296 296 296 297 297 297 297 295 288 290 294 292 286 283 276 269 267 274 271 272 278 278 280 280 278 277 276 276 277 271 275 277 278 278 278 271 270 269 268 268 267 266 264 263 263
292 292 292 293 293 294 294 295 295 295 295 296 296 296 293 290 285 284 294 295 292 285 277 277 270 264 274 272 274 273 278 273 279 274 275 274 268 269 271 275 276 276 271 268 266 265 264 264 263 263 261 261 260 261
290 290 291 291 292 292 293 294 294 294 294 295 292 285 282 285 292 292 287 283 283 282 281 275 268 269 274 271 267 271 274 272 269 271 275 272 270 276 274 265 265 264 263 264 263 260 258 257 260 260 259 260 260 260
289 289 290 290 291 291 292 293 293 293 293 288 283 281 284 292 283 281 277 276 275 272 277 273 269 266 272 268 269 275 272 273 268 266 267 256 260 272 263 260 261 261 261 259 259 259 259 258 257 258 258 258 257 257
289 289 289 289 290 290 291 292 292 290 287 287 286 286 285 282 278 274 273 272 270 265 262 265 269 274 273 276 272 273 270 271 266 257 261 256 266 259 259 259 258 258 257 256 256 256 257 258 257 256 255 255 255 255
289 289 288 289 289 290 290 291 292 291 290 285 282 278 278 276 271 269 264 261 260 259 261 264 267 272 274 276 273 272 268 267 261 261 259 262 260 255 254 255 255 255 255 254 254 254 254 254 254 252 252 253 253 252
289 289 289 289 289 289 290 290 291 290 285 278 275 270 271 269 271 262 264 264 265 265 264 265 264 269 272 272 273 267 268 265 259 256 258 259 252 252 253 253 251 251 250 251 250 250 251 251 251 251 251 251 250 250
288 289 289 288 289 289 289 289 290 288 282 276 275 269 270 259 253 249 248 258 258 263 268 265 266 273 269 270 272 268 263 260 258 259 257 250 251 252 251 249 246 247 247 246 246 246 248 249 248 248 248 247 247 248
288 288 284 288 288 288 289 288 286 285 281 277 271 266 261 262 255 254 252 256 257 265 263 267 267 268 266 267 267 264 259 257 261 250 247 250 250 248 247 247 248 245 243 244 244 244 247 246 246 247 246 246 247 247
286 277 286 286 287 288 287 282 281 270 270 268 263 259 262 262 266 261 259 258 264 264 260 262 262 264 267 265 260 258 258 256 247 245 250 252 252 251 249 244 244 241 243 243 241 241 242 243 241 240 244 248 247 250
277 278 286 287 284 280 272 271 270 267 261 258 261 258 256 255 256 255 253 262 263 261 260 261 267 263 261 257 255 253 248 245 248 250 249 245 241 240 239 241 242 241 242 242 241 242 240 242 244 248 246 249 253 256
281 282 285 286 280 274 269 264 266 259 252 251 254 255 254 254 256 256 256 261 260 260 262 263 264 262 260 250 247 242 240 243 245 247 246 243 245 241 241 240 242 241 241 241 241 244 245 246 249 253 255 256 256 256
280 282 281 281 279 270 263 261 264 258 256 256 253 251 253 252 252 251 253 257 261 260 259 262 262 249 251 247 246 245 245 247 244 242 243 247 246 241 243 242 244 242 242 243 244 250 251 252 254 254 255 256 255 255
274 275 277 272 268 265 261 259 256 256 254 250 254 254 251 252 250 250 253 256 259 260 259 251 249 245 239 237 239 240 245 246 243 243 244 244 245 244 244 243 243 243 244 246 249 252 253 252 253 254 254 254 255 255
265 273 269 271 265 261 257 259 257 257 254 250 254 252 250 250 250 250 252 256 254 249 248 246 243 239 239 241 240 237 238 238 237 242 246 246 247 248 249 250 250 249 251 251 251 251 252 253 253 253 253 253 254 254
266 266 262 262 261 258 254 259 255 254 254 252 251 254 251 251 250 253 254 247 244 244 238 237 236 234 238 236 236 236 236 240 241 241 241 243 244 248 252 251 251 250 251 252 252 252 252 253 253 252 252 252 252 251
261 252 251 251 254 252 253 251 254 253 253 252 254 252 250 249 248 248 246 240 242 239 237 237 236 240 240 240 240 239 239 237 239 240 240 244 248 250 252 251 251 252 252 252 252 252 252 252 252 252 251 250 249 248
255 245 247 244 245 247 249 250 250 252 250 244 245 246 244 239 245 244 245 242 239 238 238 234 236 240 241 237 238 239 238 243 247 249 250 251 251 252 252 252 253 252 252 251 251 250 250 250 250 250 250 248 248 248
243 240 242 237 243 245 242 244 242 242 241 242 240 239 236 241 245 246 243 241 237 239 239 242 244 240 241 242 244 244 247 250 250 250 251 252 252 252 250 251 251 252 252 251 249 248 249 249 248 249 249 249 249 247
242 240 239 239 239 241 242 240 239 240 241 243 240 240 241 245 244 246 242 242 243 241 242 244 246 247 247 245 245 248 250 253 253 253 252 251 252 252 252 251 251 252 251 250 249 248 247 247 247 248 248 249 247 247
238 237 241 239 238 234 238 236 238 240 240 239 240 245 247 247 246 246 247 246 241 242 245 245 247 247 247 250 252 254 253 253 251 252 251 251 251 251 251 252 252 257 251 250 250 250 248 248 248 247 247 247 249 245
240 235 236 240 238 241 239 239 239 238 240 239 244 246 246 247 246 245 246 247 244 247 248 248 248 248 251 252 253 253 252 251 250 250 249 248 249 251 250 249 250 250 249 248 252 255 251 250 249 249 249 248 248 241
239 235 242 240 242 242 239 235 235 232 232 234 235 242 245 245 242 239 241 243 245 246 247 249 249 251 251 251 251 251 246 248 249 249 246 246 248 246 242 243 245 245 243 241 246 247 250 248 246 243 244 244 244 243
232 232 237 237 240 236 233 229 228 229 229 230 228 234 238 236 240 240 243 243 244 245 248 248 248 248 250 248 243 242 246 243 240 244 244 244 245 245 245 246 247 245 243 243 244 243 244 242 241 242 243 244 245 246
232 232 236 240 238 233 229 230 229 232 232 235 236 232 240 243 247 249 248 246 246 247 249 247 247 247 244 244 241 241 246 244 245 247 247 248 248 249 249 248 246 243 243 244 244 244 243 243 244 245 246 245 245 245
237 234 232 234 236 237 233 233 235 236 234 235 236 236 236 239 246 247 245 241 243 241 242 243 243 242 243 244 245 249 250 251 251 254 255 255 254 253 252 250 247 246 245 246 247 246 246 245 246 246 246 246 246 246

GFSWCAN_sfc_thetae_018.txt.gz
Theta_e
300 300 300 300 300 300 300 301 301 301 301 301 301 301 301 301 301 299 294 295 290 285 286 285 286 282 282 281 278 277 278 277 277 274 272 272 271 273 271 273 272 271 270 268 266 266 265 279 276 273 278 281 281 280
298 299 300 300 300 300 300 300 300 300 300 300 300 301 300 300 300 300 292 295 295 286 286 289 289 290 288 287 284 278 281 276 280 277 274 275 270 271 272 268 275 270 274 272 271 272 279 280 279 281 282 281 281 281
297 297 297 298 299 300 300 300 300 300 300 300 299 300 300 300 300 299 294 293 292 285 285 285 285 289 290 289 291 281 280 283 280 284 278 276 272 275 270 270 273 276 278 273 274 277 278 280 281 282 282 282 283 282
296 296 297 297 297 298 299 299 299 300 300 300 300 300 299 299 300 299 293 294 292 287 280 283 286 287 291 291 289 289 287 284 285 283 279 277 273 278 274 275 274 277 276 274 274 277 279 280 281 282 282 283 281 281
295 295 296 296 296 297 297 298 299 299 299 299 299 299 299 299 299 298 295 294 294 287 280 282 283 286 288 289 287 287 286 284 282 279 278 276 279 277 278 277 275 278 276 273 272 279 278 278 282 283 280 280 278 276
295 295 295 296 296 296 296 297 297 298 298 298 298 299 299 298 298 293 284 291 295 292 283 277 286 281 284 287 286 285 285 284 283 280 279 280 282 278 274 272 278 280 281 281 278 281 281 282 282 281 278 276 273 272
294 294 294 295 295 296 296 296 296 297 297 298 298 298 298 298 295 285 285 289 295 293 283 278 279 281 282 283 284 283 285 283 282 281 279 279 279 280 276 272 278 280 281 281 282 281 279 280 278 274 273 271 269 267
292 293 293 294 294 295 295 295 295 296 296 297 297 297 297 298 296 290 291 294 294 287 284 277 275 275 279 277 278 282 280 281 282 280 280 278 279 278 273 278 279 280 281 280 280 277 275 273 271 269 268 267 265 265
291 292 292 293 293 293 293 294 294 295 295 296 296 296 294 291 286 286 295 295 292 286 278 277 274 272 277 276 278 278 280 275 281 277 277 278 276 272 276 277 278 279 277 278 270 269 268 269 268 266 264 263 263 263
291 291 291 291 291 292 292 293 293 294 295 295 292 285 283 286 294 294 289 284 283 282 282 276 276 274 276 274 274 275 277 275 272 275 277 274 274 279 278 277 270 268 267 268 267 265 264 265 265 263 262 262 262 261
290 290 290 290 290 290 291 292 292 293 293 288 284 283 287 293 287 283 278 278 278 276 279 276 276 272 276 272 273 276 274 275 270 272 272 270 268 274 271 264 264 264 263 261 262 262 261 261 261 260 260 260 259 259
289 289 289 289 289 290 290 291 292 290 287 287 287 287 286 282 280 275 274 276 275 272 271 272 272 277 276 279 275 275 271 272 268 269 270 266 271 266 263 261 260 260 259 258 258 258 258 258 258 257 257 257 257 257
288 288 289 289 290 290 290 290 291 291 291 286 283 279 279 278 272 270 268 268 268 266 268 270 271 275 276 277 275 273 269 268 267 267 266 268 265 258 257 257 255 256 256 256 255 255 255 255 255 254 254 255 255 254
288 288 289 289 289 289 289 290 290 290 285 279 276 271 273 271 272 270 270 269 272 271 268 270 269 272 274 273 274 269 270 267 265 263 263 270 259 255 255 254 254 253 252 253 252 253 253 253 253 253 253 253 252 251
287 288 288 288 289 289 289 289 290 288 283 277 276 270 271 267 260 259 257 267 266 272 272 269 269 273 270 271 272 270 264 264 265 264 268 259 254 253 253 253 251 251 251 251 251 250 251 251 250 250 251 250 250 250
288 287 284 288 289 289 289 288 286 285 282 278 272 268 262 266 264 259 260 263 261 271 270 271 269 269 268 270 267 266 265 263 267 265 257 254 252 251 250 250 250 251 251 250 250 250 250 249 249 250 249 249 249 250
286 278 287 287 287 287 287 283 282 271 270 268 265 261 262 265 264 260 260 263 267 271 269 269 267 266 269 266 265 264 264 267 257 252 253 252 252 252 251 249 248 248 248 247 247 247 248 249 245 246 249 254 252 253
277 281 286 286 283 278 270 270 270 268 263 260 263 259 258 256 258 258 260 265 268 268 269 268 269 266 263 262 262 263 255 250 251 252 252 250 249 248 247 249 247 246 248 247 246 246 246 247 250 253 251 253 254 255
280 282 286 286 280 273 269 265 266 261 256 255 258 258 257 257 258 258 259 263 263 263 267 267 266 264 263 261 259 252 251 253 253 252 251 248 249 247 246 246 246 247 247 248 249 251 251 250 251 253 255 256 256 257
281 281 280 280 278 269 264 262 262 259 256 256 255 254 254 254 254 255 257 261 263 264 265 264 263 257 257 254 252 252 252 251 251 250 250 251 250 246 249 249 251 249 250 250 250 251 253 254 255 255 255 256 256 255
273 274 277 272 266 264 261 258 257 257 255 254 255 255 253 254 251 253 256 257 261 262 260 251 250 247 245 246 247 248 250 251 250 252 251 250 250 250 250 249 248 250 251 252 252 253 253 253 254 254 254 255 255 255
267 273 268 271 263 256 256 258 256 257 254 252 254 254 252 252 250 251 253 257 256 249 250 250 250 249 248 248 247 245 244 243 243 248 248 250 250 251 251 251 251 252 253 253 253 253 253 254 254 254 254 254 254 255
266 266 263 263 260 256 254 257 253 253 252 253 253 254 252 251 251 254 256 250 249 246 245 246 245 241 245 241 238 238 237 243 247 247 247 248 248 248 251 251 253 252 252 253 254 254 253 254 254 253 253 253 253 253
260 253 252 253 254 252 251 250 253 251 251 251 253 251 250 249 249 253 254 245 246 245 245 244 241 244 244 242 244 243 243 242 245 244 244 248 250 250 252 253 253 253 254 253 253 253 253 253 253 253 253 252 252 252
256 246 249 245 245 247 247 247 247 250 247 245 248 247 246 244 250 247 247 248 245 242 242 238 240 243 245 242 243 243 238 245 248 248 248 249 252 253 253 254 254 254 254 253 253 253 252 252 252 252 252 251 251 251
243 240 242 238 244 245 244 249 247 245 246 247 245 240 239 245 248 247 245 244 242 242 241 243 244 243 244 244 246 246 248 246 248 252 252 253 253 253 253 253 253 254 254 254 252 252 251 252 251 250 251 251 251 250
242 240 239 239 239 240 243 243 242 245 242 244 241 242 243 245 245 246 244 244 244 242 243 244 246 246 248 248 247 247 249 252 252 252 253 254 254 254 254 252 252 254 254 253 252 251 250 250 250 250 250 251 251 251
238 236 240 239 238 234 238 236 238 241 241 240 239 243 244 245 245 245 246 248 242 241 241 243 247 249 248 251 252 253 253 253 253 253 253 253 253 253 253 253 254 258 253 253 252 251 251 250 250 250 250 250 250 251
240 236 236 239 237 239 238 239 239 237 239 237 242 245 245 246 244 246 248 246 244 245 246 248 249 250 252 253 252 253 253 253 253 251 250 251 252 253 250 250 250 251 251 251 253 256 252 251 250 250 251 250 251 248
239 236 242 240 242 242 239 237 237 233 235 236 237 242 246 247 247 244 244 243 246 246 247 249 251 252 251 251 251 252 250 249 250 251 249 249 250 248 245 247 249 249 249 248 249 250 252 251 249 246 247 248 247 247
232 232 237 238 240 237 234 231 228 229 229 229 227 235 241 242 243 243 243 241 243 246 248 249 249 250 252 251 249 247 249 246 242 246 246 246 247 248 249 249 249 248 246 246 246 246 247 246 245 245 245 245 246 247
236 233 236 240 238 233 229 229 229 232 235 237 238 234 241 244 249 251 249 248 248 249 250 249 250 251 249 250 246 242 246 245 245 248 249 251 251 251 251 250 248 246 246 247 246 246 246 245 246 247 247 246 247 246
239 238 238 240 241 241 236 235 235 237 235 236 240 238 240 242 247 249 248 245 246 248 248 248 246 246 247 245 246 248 250 251 252 255 257 256 255 254 253 251 249 247 247 248 248 248 246 246 247 247 247 247 247 247

GFSWCAN_sfc_thetae_021.txt.gz
Theta_e
299 300 300 301 301 301 300 300 301 301 302 301 301 302 302 302 302 299 295 300 293 286 287 288 288 285 284 284 280 279 280 279 280 275 275 274 273 275 273 275 274 272 272 271 271 268 266 280 278 274 280 282 282 281
298 298 299 300 300 300 300 301 301 301 301 301 301 301 301 302 302 301 293 295 296 287 288 293 292 292 290 289 287 282 285 281 282 278 279 278 275 276 274 270 278 271 275 273 274 273 281 281 280 283 284 282 283 282
297 297 298 298 298 299 299 300 300 300 301 300 301 301 301 301 301 300 296 295 292 285 285 286 286 292 293 292 293 284 284 286 283 287 283 279 274 278 272 273 275 278 280 275 275 277 279 281 283 283 284 283 284 284
297 297 297 297 297 297 298 298 299 300 300 300 300 300 301 301 301 300 295 297 293 288 282 285 291 290 295 294 291 291 289 288 287 286 280 278 276 281 276 277 276 279 279 276 276 278 280 281 282 282 283 284 283 283
296 296 296 296 297 297 297 297 298 298 299 299 300 300 300 300 300 299 298 295 295 287 282 284 286 289 291 291 290 291 288 286 284 280 279 277 280 279 279 278 276 280 277 275 274 280 279 280 283 284 282 282 282 282
296 296 295 295 296 296 296 297 297 297 297 298 299 299 299 300 300 294 286 294 295 293 283 278 288 287 288 289 288 288 288 286 285 281 280 281 283 280 275 273 279 281 282 282 279 283 282 283 283 284 282 282 280 277
295 294 295 295 295 295 296 296 296 297 297 297 298 299 299 299 297 287 286 291 296 293 284 279 279 284 285 286 286 286 288 285 284 282 280 281 281 281 277 273 279 282 283 283 284 283 280 282 280 282 278 276 274 272
293 293 293 294 294 294 295 295 296 296 296 296 297 298 298 298 297 290 294 294 295 288 285 278 277 278 283 279 279 284 281 282 282 281 282 280 281 280 274 279 281 282 282 282 283 283 281 279 277 273 273 271 269 269
291 291 292 292 293 293 294 294 294 295 295 296 296 296 295 291 286 288 296 296 295 288 280 279 276 274 280 280 281 280 282 277 282 278 279 280 277 274 278 279 280 281 280 280 279 272 271 272 273 271 269 267 267 267
290 290 291 292 292 292 293 293 293 293 294 294 293 285 283 287 295 294 290 285 284 284 283 279 283 277 279 278 276 278 279 276 273 277 280 276 275 280 281 281 279 274 272 272 271 270 267 267 268 268 266 266 265 264
290 290 291 291 291 291 291 291 292 292 292 288 284 284 289 294 289 285 281 280 281 277 280 281 281 276 279 275 275 278 276 276 271 275 274 273 273 278 280 275 268 268 267 265 265 265 264 264 265 264 263 263 262 261
289 290 290 290 290 290 290 291 291 290 288 288 287 288 287 284 282 278 276 278 277 276 278 277 278 281 277 280 276 276 273 274 269 273 272 269 275 272 269 265 263 263 263 260 261 261 261 261 260 259 259 259 259 258
288 289 289 289 289 290 290 290 290 291 291 287 284 281 280 280 273 272 270 273 274 274 275 276 275 279 278 279 276 275 271 270 271 269 268 273 273 264 262 260 258 258 258 258 257 258 257 257 257 256 256 257 256 256
287 288 288 289 289 289 290 290 290 289 285 280 277 273 274 273 274 275 276 278 278 278 275 277 275 275 277 275 276 271 272 269 267 266 267 274 271 260 259 258 256 255 255 256 255 255 255 255 255 255 254 255 254 253
287 288 288 288 289 289 290 290 290 288 284 278 277 271 273 274 271 268 266 271 274 279 276 274 274 275 274 273 274 271 266 265 267 268 273 268 259 256 256 255 255 254 253 253 253 253 253 254 254 253 253 252 252 251
288 288 287 288 288 289 289 289 287 285 282 278 275 271 268 272 270 266 266 271 269 276 277 277 273 271 270 272 269 268 266 264 270 272 263 258 255 256 255 254 253 253 252 253 253 252 253 251 251 252 250 250 251 251
284 281 285 287 287 288 288 285 283 275 273 270 268 265 268 269 269 270 269 269 270 274 273 273 269 269 272 269 268 271 269 273 266 260 259 258 256 254 252 252 251 250 251 250 250 250 250 251 248 249 250 255 253 255
279 282 286 287 283 279 273 272 273 271 265 263 266 263 262 261 263 264 265 268 271 272 272 271 272 268 268 266 268 272 263 256 257 258 257 254 253 251 252 253 250 250 251 249 249 249 248 248 252 255 253 255 255 256
281 282 285 285 281 274 270 267 267 265 260 259 260 261 260 260 261 261 262 266 267 267 271 271 269 268 269 269 266 260 257 258 256 255 254 252 253 250 249 249 250 250 250 251 252 254 254 252 253 254 256 256 256 258
281 281 281 279 278 271 266 263 266 263 261 259 259 259 259 258 258 260 262 264 266 268 268 268 269 262 262 257 255 258 257 256 256 255 254 253 253 249 252 253 254 253 253 252 253 253 255 255 256 256 256 256 256 256
275 276 277 273 268 265 263 261 259 259 258 258 258 259 258 258 257 258 260 260 264 265 264 255 254 251 249 250 250 254 254 257 256 257 257 254 253 254 252 252 252 253 254 254 254 254 254 254 255 255 255 255 256 256
270 274 271 272 264 261 260 261 260 259 258 256 257 258 256 257 256 255 255 260 258 253 252 253 252 252 252 252 250 249 249 251 251 252 252 253 252 253 253 254 254 254 254 254 254 254 254 255 255 255 255 255 255 255
268 269 265 264 261 260 255 260 257 256 257 256 256 257 255 255 254 256 257 253 252 249 247 248 247 246 249 247 247 246 246 250 251 252 252 253 253 253 254 254 254 253 253 254 255 254 254 255 255 255 255 255 255 255
262 255 254 255 257 254 255 255 257 256 256 256 257 255 254 253 252 256 257 253 251 250 250 248 249 250 249 249 251 250 248 248 250 250 251 253 253 253 254 255 254 254 255 255 255 255 255 255 254 255 254 254 254 254
259 248 251 249 251 253 252 253 254 255 253 251 253 253 251 248 255 254 253 253 251 251 249 247 248 249 251 250 249 249 243 249 252 253 252 252 254 254 254 255 255 255 256 254 254 254 254 254 254 254 253 253 252 252
246 243 246 245 248 250 248 252 250 250 251 252 250 247 247 251 253 251 251 251 251 250 248 248 250 250 250 251 252 251 252 249 251 253 254 253 253 255 255 255 254 255 256 255 255 254 254 254 253 252 252 253 253 252
246 245 245 243 245 246 247 247 247 249 249 249 248 249 249 249 249 251 252 251 251 250 249 250 251 252 253 252 252 252 252 251 252 255 256 256 256 256 256 255 254 256 256 255 254 253 253 253 252 252 252 253 253 252
243 242 242 244 244 243 244 244 246 246 246 245 245 247 248 248 248 251 251 251 249 248 248 248 250 252 252 253 254 254 254 254 255 255 255 255 255 255 255 255 256 259 255 255 254 254 252 252 252 252 252 252 252 253
243 242 241 242 242 245 243 244 244 243 242 243 247 249 248 250 249 250 251 250 250 250 250 250 251 252 254 255 256 256 256 255 255 254 254 255 255 255 253 253 253 253 253 253 255 257 255 253 253 253 253 252 253 252
242 239 246 247 248 246 243 240 242 239 239 239 239 244 247 250 250 248 248 249 251 250 250 252 253 253 254 255 255 255 256 255 255 254 252 251 252 251 249 251 252 253 253 252 252 252 255 254 251 248 249 250 250 250
238 239 243 245 246 243 240 236 236 235 236 238 236 241 246 245 248 249 248 248 248 249 251 253 253 253 254 254 254 254 255 252 245 246 247 248 250 251 252 253 253 252 250 249 248 248 249 248 248 248 247 247 248 248
243 241 241 243 243 238 236 238 238 241 241 243 244 241 245 247 252 253 252 251 252 252 253 253 253 254 253 253 252 251 250 248 247 249 249 252 253 254 254 253 251 249 248 249 248 248 247 246 247 248 248 248 248 248
242 242 243 244 247 247 243 242 243 242 241 245 245 242 243 245 249 251 252 249 249 249 250 251 250 250 250 249 250 250 252 252 253 257 258 258 258 258 257 255 253 251 250 250 250 250 248 248 248 248 248 248 248 248

GFSWCAN_sfc_thetae_024.txt.gz
Theta_e
300 300 300 301 301 301 301 301 301 302 302 302 302 301 301 301 301 298 294 296 290 283 285 286 286 282 282 281 275 274 276 275 275 270 269 273 267 272 270 273 271 268 264 262 262 261 264 276 275 271 276 279 279 278
298 299 300 300 300 300 301 301 301 301 301 302 301 302 302 301 302 301 293 297 297 288 284 290 291 290 288 287 283 277 279 274 279 274 273 273 266 270 268 262 275 267 271 266 269 268 277 278 278 280 280 277 279 279
297 298 298 298 298 299 300 300 300 300 301 301 301 301 301 302 302 300 294 294 292 285 285 285 283 290 292 290 291 279 280 283 281 283 278 275 269 274 264 268 270 274 276 273 271 275 277 279 280 280 281 280 280 280
297 297 297 298 298 298 299 299 299 299 300 300 301 301 301 301 301 300 294 295 291 287 281 281 290 287 293 291 289 289 287 286 285 284 279 276 270 279 274 275 273 276 275 273 274 277 278 279 280 281 281 281 280 280
296 297 297 297 297 297 297 297 297 298 298 299 300 300 300 301 301 299 297 296 295 287 281 278 282 287 290 290 289 288 286 283 283 280 279 275 276 278 278 277 275 279 276 274 272 278 278 278 280 280 280 279 279 278
296 296 296 296 297 297 296 297 297 297 297 298 298 299 300 300 300 295 286 294 295 293 284 278 285 281 286 288 287 286 286 284 283 281 278 280 281 278 275 273 278 280 281 280 278 281 281 281 280 280 279 279 279 277
295 295 296 296 296 296 296 296 296 296 296 297 297 298 299 299 296 288 285 290 297 294 283 279 278 281 284 283 281 283 285 285 283 282 280 280 280 280 276 272 278 279 280 281 282 281 279 280 279 279 278 275 273 271
294 294 295 294 294 295 295 295 295 296 296 296 297 297 297 298 297 291 293 295 296 288 284 278 277 273 280 280 279 284 281 283 283 280 278 278 279 279 274 278 279 280 281 281 281 280 279 276 275 273 272 270 267 268
293 293 293 293 293 293 294 294 294 295 295 295 296 296 293 291 286 288 297 296 294 287 280 279 274 270 279 278 279 280 281 275 280 276 277 277 274 272 275 278 278 280 279 279 274 270 269 270 271 269 268 266 265 267
291 290 290 290 291 292 292 293 293 294 294 294 292 285 282 287 296 295 289 285 284 284 283 278 275 274 278 275 276 275 276 273 270 274 277 274 273 278 279 280 279 275 272 272 268 266 263 264 267 266 264 265 265 265
290 290 290 290 290 291 292 292 293 293 292 287 284 283 286 293 288 284 280 279 280 277 280 278 278 271 276 271 273 278 273 272 269 267 270 265 266 276 279 279 270 270 268 265 265 265 264 263 264 263 262 262 261 260
290 290 290 290 290 291 291 291 291 289 287 287 287 287 286 284 281 277 276 275 276 274 275 273 276 280 276 279 276 275 273 274 268 268 269 262 270 274 267 265 263 264 262 260 260 261 262 262 260 259 258 257 257 257
289 289 289 290 290 290 291 291 291 290 290 287 283 280 279 278 273 272 269 268 265 271 273 270 273 277 277 278 276 274 270 270 271 269 264 265 269 262 259 258 257 257 257 257 257 257 256 256 255 254 253 253 253 252
286 287 288 288 289 289 290 290 290 289 285 279 276 271 273 271 272 272 268 268 271 272 273 276 274 272 275 274 276 270 272 268 265 262 261 265 266 260 256 255 254 253 255 256 254 253 253 253 253 252 251 250 249 249
286 287 287 287 288 289 289 289 290 287 282 276 276 269 271 268 265 261 262 267 269 273 276 274 274 276 273 272 274 270 266 265 263 262 265 262 257 255 254 252 252 251 251 250 251 251 252 251 249 248 248 247 246 247
285 286 284 288 288 289 289 288 286 285 281 276 275 271 263 265 264 262 262 265 268 274 274 276 273 271 270 272 268 267 265 260 263 265 258 255 252 251 251 251 250 251 250 248 247 248 249 248 247 246 244 244 245 245
284 280 285 287 287 288 288 285 282 279 276 273 266 259 264 270 270 266 264 268 270 272 269 272 269 268 272 269 268 268 262 262 256 255 256 254 252 250 249 249 247 246 245 245 245 245 245 244 242 242 244 246 245 247
274 281 287 287 284 279 272 272 274 272 266 263 265 260 260 260 261 263 263 268 269 270 271 271 271 267 267 265 265 263 258 254 256 256 253 251 249 249 249 248 245 245 245 245 243 243 242 242 243 246 245 247 247 249
280 281 283 283 281 274 270 267 267 265 260 259 260 260 258 258 260 261 261 265 267 268 268 271 269 268 268 264 262 259 258 256 254 254 252 250 249 248 247 246 246 246 249 248 244 245 245 245 245 247 248 248 249 250
281 280 280 279 277 272 266 262 266 264 258 259 260 258 259 258 256 256 261 263 265 267 268 266 263 257 256 254 253 255 256 256 255 254 252 252 250 247 247 247 248 249 249 245 243 247 246 247 247 247 247 248 249 253
275 275 277 271 267 265 262 261 257 258 258 256 256 258 257 258 255 258 260 259 264 260 260 254 251 251 250 250 251 254 253 256 254 254 253 252 252 250 246 246 246 246 246 245 246 246 247 246 247 247 247 250 253 255
270 275 271 271 264 261 259 260 258 257 255 252 254 254 251 251 251 252 255 260 255 249 250 251 251 250 250 248 247 248 248 250 252 254 253 253 251 248 246 247 246 245 244 245 245 245 245 247 248 249 252 253 255 255
268 270 265 263 262 259 254 258 254 256 255 252 251 252 251 249 250 255 256 251 248 248 245 246 247 247 248 247 248 248 248 250 250 250 248 248 245 245 246 245 245 245 245 245 246 246 248 252 252 254 254 254 254 254
263 256 255 254 256 252 254 252 256 253 253 251 255 253 249 250 252 256 254 248 246 248 247 247 249 249 248 249 249 249 249 249 246 246 245 244 244 244 244 245 245 245 246 247 249 250 251 252 255 254 254 252 252 252
258 248 250 247 251 252 253 254 255 255 251 250 253 253 249 248 254 255 252 250 251 251 249 248 250 251 251 250 250 248 243 245 246 244 243 243 244 244 245 246 247 250 252 251 251 252 253 253 252 252 252 251 251 250
245 243 242 241 245 247 248 251 249 249 251 251 248 248 247 250 251 247 247 247 247 248 248 247 246 246 246 246 246 244 244 241 242 245 245 244 245 246 248 250 252 252 254 253 253 251 251 252 251 251 251 251 252 251
245 241 241 241 242 243 243 243 247 249 248 247 246 248 248 247 246 246 247 247 245 243 244 244 243 244 244 244 244 243 243 243 245 247 247 248 250 251 251 251 252 253 252 252 252 252 251 251 252 251 251 251 251 251
240 239 239 240 240 239 239 240 241 242 243 243 241 243 245 244 243 243 245 247 243 243 243 242 243 244 244 246 247 247 247 249 250 250 250 251 252 252 251 251 252 259 253 252 252 252 251 251 251 250 251 251 252 252
238 239 239 240 239 240 238 239 239 239 242 241 242 245 243 244 243 244 246 247 246 246 245 244 246 246 250 253 254 254 254 253 252 252 252 252 252 252 250 249 249 249 249 249 255 257 253 252 252 252 252 252 252 250
242 240 245 247 247 244 240 237 237 235 239 240 240 244 246 248 249 249 248 248 248 247 247 249 251 252 253 254 253 254 254 253 253 252 251 250 249 247 246 247 248 250 251 250 251 251 254 250 249 246 247 247 246 247
236 235 239 241 243 240 238 236 238 237 238 240 239 242 245 245 248 250 250 249 248 249 251 253 253 253 253 253 252 253 253 251 250 250 249 247 244 245 247 250 251 249 248 248 248 246 247 245 243 245 244 245 246 247
243 241 241 242 240 234 231 232 233 237 241 244 244 243 246 246 249 250 251 251 252 251 252 253 252 251 252 252 252 252 252 251 251 252 250 250 250 252 253 254 253 252 250 249 249 248 247 246 247 246 247 246 246 246
241 240 241 244 245 244 243 243 243 241 242 244 243 243 243 245 247 250 254 251 249 249 249 250 250 251 251 251 252 252 253 252 252 257 257 258 257 258 257 256 256 253 252 251 250 250 248 247 247 247 246 246 246 247

GFSWCAN_sfc_thetae_027.txt.gz
Theta_e
299 300 300 301 300 300 301 301 301 302 302 302 302 301 302 301 301 297 292 293 287 279 282 285 285 281 281 279 274 274 275 274 273 266 266 272 265 271 268 271 270 268 264 261 259 257 263 277 275 271 275 278 278 277
299 299 300 300 301 301 301 301 301 301 301 302 302 302 302 301 301 300 292 294 294 284 280 289 288 289 286 285 278 273 275 271 277 270 267 268 263 264 265 262 274 267 271 266 269 268 276 277 277 279 279 277 278 277
298 298 298 298 300 300 300 301 301 301 301 301 301 302 302 302 301 300 294 295 291 285 285 284 281 288 291 289 287 276 275 281 280 280 272 270 264 272 263 264 267 273 274 272 270 274 276 277 278 279 279 279 280 279
297 297 297 297 298 299 299 299 300 300 300 300 301 301 301 301 301 301 294 294 291 286 274 277 286 284 290 289 288 286 284 283 282 282 274 270 266 277 270 273 272 275 274 272 272 276 277 278 278 279 279 279 279 279
297 297 297 297 298 298 298 298 299 299 299 299 299 300 300 300 300 299 297 295 294 286 278 274 278 284 287 288 286 286 285 283 279 279 277 273 274 274 271 276 273 278 276 273 272 278 277 278 280 280 279 279 279 278
296 296 297 297 297 297 297 298 298 297 297 298 298 299 299 299 300 294 286 295 295 294 284 278 283 277 284 287 286 285 285 284 283 281 279 278 280 277 271 266 278 280 280 281 278 281 280 281 281 280 278 278 279 278
296 296 296 296 296 296 297 297 297 296 297 297 297 297 298 299 296 288 285 290 297 294 284 278 278 278 283 282 280 282 284 284 283 281 280 278 278 281 275 271 278 279 280 280 280 280 278 279 278 279 279 278 274 272
296 295 295 295 296 296 296 296 295 296 296 296 296 297 297 297 296 291 292 295 296 287 284 277 276 274 280 280 279 283 282 283 282 281 277 277 279 279 273 277 279 280 280 280 280 281 281 280 276 274 272 270 267 269
295 294 294 294 295 295 295 294 294 294 295 296 296 296 292 288 284 287 296 296 293 287 279 278 272 264 280 279 281 280 281 276 282 278 276 278 272 272 275 277 278 279 278 279 277 271 271 273 274 270 268 266 267 267
294 294 293 293 293 293 293 294 294 294 294 294 291 285 282 285 294 294 289 285 284 284 283 278 267 272 277 273 270 275 278 275 272 273 277 275 273 278 279 279 277 276 275 273 268 267 263 264 268 268 268 265 265 265
293 292 291 291 290 290 291 292 293 293 292 288 283 282 284 293 287 284 279 278 277 276 280 274 276 272 273 270 269 277 271 274 270 271 271 267 266 276 279 279 276 273 270 265 267 265 265 265 266 264 263 262 262 261
290 290 290 290 290 290 291 292 293 289 286 287 286 287 286 283 281 276 275 271 274 269 267 273 270 274 276 277 273 275 271 272 268 267 267 262 273 274 274 269 265 265 264 261 261 262 262 263 261 260 259 258 257 256
289 289 289 289 290 290 291 291 292 292 290 286 282 279 277 274 272 268 262 271 262 270 271 267 271 275 277 278 275 274 270 269 270 270 267 267 267 267 263 261 257 257 257 257 257 257 257 256 255 254 253 254 252 251
287 287 288 288 289 290 290 291 291 290 284 277 275 270 271 266 268 269 263 265 270 268 270 269 272 271 273 274 275 271 272 270 267 265 261 262 267 267 260 258 256 254 255 255 253 254 253 253 252 251 251 250 249 248
286 286 286 286 288 288 289 290 290 287 281 275 274 267 268 263 259 258 258 264 268 270 276 273 269 275 271 272 274 271 266 265 264 261 263 266 262 260 257 256 253 252 252 251 250 251 252 252 251 248 245 244 245 245
285 284 282 287 287 288 289 288 284 284 280 276 271 268 261 262 259 258 258 263 267 274 277 275 272 272 270 272 270 267 265 261 263 262 255 256 256 256 255 254 251 250 250 249 248 248 249 248 247 246 242 242 243 243
283 272 284 285 286 287 287 280 280 278 276 273 266 251 260 270 269 266 261 266 270 275 271 271 269 268 273 269 268 269 265 261 253 253 255 255 255 254 253 252 248 248 247 246 243 243 244 242 240 243 248 245 242 243
268 277 284 287 282 278 272 271 274 271 266 263 261 255 252 253 258 258 261 266 268 271 272 271 273 269 267 265 264 264 256 252 254 255 254 253 252 252 251 249 247 246 245 243 245 243 241 243 244 245 243 243 244 245
274 279 282 283 280 271 265 264 266 265 260 259 260 260 255 254 257 259 259 263 265 267 266 269 268 268 262 257 257 256 256 257 256 254 253 252 252 250 248 248 247 246 246 244 247 250 246 243 244 244 245 245 246 245
279 280 280 278 277 271 265 261 263 260 257 259 261 259 258 256 257 253 253 259 264 266 266 265 259 254 255 254 254 255 257 257 255 253 252 251 251 250 249 247 249 249 248 246 247 247 244 245 245 244 244 245 245 246
274 273 276 269 265 263 261 260 258 259 259 256 257 259 257 258 256 255 254 258 263 256 257 252 252 252 252 251 251 252 252 254 253 253 251 250 250 251 249 250 249 248 247 245 245 245 244 244 244 244 244 244 245 247
268 275 268 270 263 257 256 258 256 256 255 252 256 255 249 248 248 251 255 256 252 249 249 249 250 250 252 249 249 248 249 250 252 253 254 253 251 250 248 245 244 244 243 242 242 243 243 243 243 244 245 246 249 251
268 269 264 261 258 255 252 254 251 253 251 251 248 250 248 246 247 254 253 250 248 249 247 247 248 248 249 249 250 250 250 252 252 251 250 250 247 244 245 243 243 244 243 244 242 243 244 248 248 248 248 250 251 252
262 255 255 254 252 249 250 250 253 253 254 252 250 247 245 242 249 252 247 246 247 249 249 248 248 249 248 249 249 249 249 249 248 247 244 247 246 244 246 246 242 241 243 243 244 245 246 247 252 250 250 251 250 251
257 247 249 246 250 250 249 249 253 254 250 248 248 247 245 244 252 249 248 248 251 250 250 250 250 251 250 250 250 248 245 245 246 244 245 244 244 244 243 242 243 244 244 246 248 250 250 251 251 251 252 250 251 251
246 243 242 237 245 247 247 248 248 248 250 249 245 246 245 248 249 246 246 248 248 247 247 247 248 249 249 246 246 247 245 241 242 246 246 242 242 244 243 245 246 251 251 250 251 252 252 252 251 251 251 252 253 252
244 240 240 240 241 241 244 245 248 249 248 247 246 247 249 248 244 243 246 248 247 244 244 244 243 245 244 245 244 242 241 240 244 246 244 242 244 244 248 250 251 252 250 251 252 252 252 252 252 252 252 252 252 252
239 240 240 240 239 236 237 237 239 243 245 244 245 246 246 245 245 246 247 248 245 244 243 242 243 243 243 246 249 251 250 249 250 251 250 250 250 251 251 251 251 259 253 252 252 252 251 251 251 251 251 251 252 252
239 239 240 243 239 240 238 239 239 240 241 240 243 245 244 246 245 246 249 249 250 248 247 249 251 251 253 254 254 254 254 254 254 253 252 251 251 252 250 249 249 249 249 248 253 256 252 251 251 251 251 251 251 248
239 238 244 246 246 244 242 239 239 239 240 240 241 244 247 249 250 250 249 249 249 249 249 250 252 253 252 252 252 252 252 252 252 251 249 249 250 250 248 247 246 246 246 246 250 251 254 248 248 244 245 245 245 246
235 235 238 241 242 241 239 238 239 239 240 241 241 243 246 247 249 251 252 251 251 252 253 253 252 251 251 251 250 252 252 252 252 251 250 250 250 248 248 249 250 249 248 248 249 248 249 247 244 244 245 246 246 247
243 241 242 244 241 236 232 234 238 240 241 244 245 245 247 248 248 251 252 252 251 250 251 251 250 250 251 252 252 251 253 252 252 253 252 253 252 251 251 252 251 250 249 249 249 248 247 246 247 247 248 247 247 247
242 241 242 243 244 244 243 242 244 245 245 245 245 244 243 246 247 250 253 252 250 250 250 250 251 251 252 252 252 252 253 252 253 257 257 257 256 256 255 251 253 253 252 251 251 250 249 248 248 247 246 246 246 246

GFSWCAN_sfc_thetae_030.txt.gz
Theta_e
299 300 300 300 301 301 301 302 302 302 302 302 302 302 302 301 301 296 291 293 287 280 283 285 285 282 281 281 277 277 279 279 277 274 270 272 267 271 268 270 269 268 266 265 264 264 262 276 275 271 275 277 277 276
298 299 299 299 300 301 301 301 301 302 302 302 302 302 302 302 302 300 291 293 291 282 282 288 288 288 286 285 280 275 279 275 278 272 269 271 264 265 266 264 274 268 271 266 269 268 276 277 278 279 279 277 278 277
298 298 298 299 300 300 300 301 301 301 301 301 301 302 302 302 302 300 293 291 291 285 282 284 282 288 290 288 287 278 276 280 280 280 272 270 265 272 263 265 267 272 274 271 269 273 275 277 280 279 279 279 280 280
297 297 298 298 299 299 300 300 300 301 301 301 301 301 302 302 301 301 294 295 291 286 277 278 284 284 289 288 286 285 283 282 282 281 272 268 265 276 269 272 271 273 273 270 271 275 276 277 277 279 280 279 279 279
296 297 297 298 298 298 298 299 299 299 300 300 300 301 301 301 301 300 296 295 293 285 278 273 278 284 286 286 285 285 283 281 277 274 269 268 273 275 272 276 271 276 276 272 271 278 277 278 279 279 278 279 279 279
296 296 297 297 297 297 298 298 298 299 299 299 299 300 300 300 300 294 286 294 295 293 284 273 281 277 283 285 284 283 283 280 279 280 274 275 279 279 273 272 278 280 279 280 278 281 279 280 280 280 278 279 279 278
295 296 296 297 297 297 297 298 298 298 298 298 298 297 298 298 296 286 285 290 297 294 283 278 275 277 281 281 277 281 282 279 283 281 278 278 277 281 276 270 278 278 279 280 280 279 278 279 278 279 279 279 276 273
295 295 296 296 296 296 297 297 297 297 297 297 297 297 297 297 296 290 293 295 297 288 284 278 274 273 280 279 279 282 282 283 282 281 278 277 279 279 274 277 279 280 280 279 279 280 281 281 276 277 274 271 269 270
295 294 295 296 296 296 296 296 296 296 296 296 296 296 290 288 285 287 297 297 295 287 279 278 268 266 280 280 281 280 283 277 283 278 277 279 274 273 276 277 278 279 279 279 276 272 272 274 277 272 269 267 268 269
293 292 295 295 295 295 295 295 295 295 295 295 291 285 282 285 292 294 289 284 284 284 283 274 269 266 276 275 275 276 278 275 272 275 278 275 274 279 279 277 278 279 279 275 272 272 264 265 269 268 267 267 267 267
293 294 294 294 294 294 294 294 294 294 294 288 283 282 287 292 286 284 279 278 279 276 278 271 271 269 275 270 273 277 273 275 270 271 271 267 268 277 279 279 279 278 275 273 271 268 267 267 267 267 264 263 262 261
293 293 293 292 291 291 292 293 293 289 286 285 286 287 287 284 280 275 275 273 274 268 267 274 269 274 271 274 273 274 271 271 268 267 267 262 273 276 274 277 278 270 269 263 263 264 263 264 263 262 260 258 256 256
289 290 291 290 290 290 291 292 292 292 291 286 281 277 278 276 271 271 268 264 265 264 271 270 271 274 277 277 274 274 270 269 271 269 266 266 273 269 272 265 260 260 260 259 258 258 257 256 255 255 254 253 253 252
289 289 289 289 289 289 291 291 292 290 284 277 274 270 271 269 266 269 263 264 269 268 269 269 273 271 274 274 275 270 272 270 267 266 262 272 267 269 261 258 258 257 257 257 255 255 254 254 252 252 251 249 250 249
287 287 287 287 288 288 289 290 291 287 280 274 274 268 270 262 258 256 256 262 266 266 274 271 269 275 270 272 274 271 266 265 266 262 264 262 259 260 257 255 255 255 254 252 251 252 252 252 251 247 244 244 245 245
285 285 282 287 287 287 288 289 286 284 280 276 270 266 258 260 258 257 256 261 265 271 273 274 272 272 271 272 269 267 264 262 264 261 255 258 258 258 256 255 254 254 253 251 250 250 250 249 249 247 242 242 243 243
282 271 283 285 286 286 286 283 281 277 274 273 265 249 255 258 262 259 261 265 270 273 270 271 269 268 273 269 268 265 261 259 256 257 255 256 255 255 253 253 253 252 250 251 249 248 247 245 241 244 247 245 242 242
272 276 283 285 281 278 272 270 274 271 265 261 259 253 252 251 256 258 263 266 269 274 272 271 272 269 268 266 262 261 257 253 254 251 252 251 250 252 252 252 253 252 250 249 249 246 246 246 246 246 244 243 242 243
273 278 281 282 280 270 266 264 266 264 260 254 260 260 256 253 256 258 258 263 265 266 267 266 266 267 264 258 256 256 256 255 252 253 251 252 253 252 252 251 251 249 248 247 247 249 246 246 246 245 244 244 245 244
280 280 280 278 277 269 264 262 262 263 259 258 256 257 258 258 256 253 254 260 264 265 265 261 253 250 252 252 252 254 255 256 254 254 253 252 252 252 251 251 252 250 249 247 247 248 245 245 244 243 242 243 244 245
273 272 275 270 266 264 261 260 257 258 258 255 256 260 258 259 256 253 255 259 257 252 252 249 249 251 252 251 251 251 253 253 255 254 253 251 251 252 250 250 250 250 250 249 249 246 244 244 245 242 242 243 242 243
267 274 267 270 263 260 258 258 258 258 257 253 257 257 254 254 252 252 256 253 250 248 248 247 248 249 250 250 250 250 251 253 253 252 253 253 251 251 251 250 249 245 244 243 242 243 242 242 242 242 242 244 246 246
268 269 264 261 258 254 252 256 256 256 255 254 253 255 252 249 251 255 251 248 247 249 247 247 248 249 249 250 251 252 251 252 252 252 252 251 250 248 248 243 243 244 243 243 241 241 244 246 246 246 245 247 248 250
262 255 255 253 254 251 250 252 255 253 253 252 252 252 250 250 252 253 247 245 249 249 248 248 249 251 252 252 251 250 249 249 248 249 249 250 248 245 243 244 241 241 242 242 243 243 243 244 248 248 250 250 251 251
256 247 250 248 249 249 247 248 250 253 250 252 253 252 250 247 252 248 247 246 249 249 249 249 250 251 249 250 251 250 248 246 248 247 246 244 241 242 243 241 242 243 241 243 244 244 245 247 249 252 251 250 250 251
244 242 244 240 245 245 245 246 246 246 249 250 248 249 247 250 248 244 246 247 246 247 247 246 245 247 250 249 250 250 248 243 243 245 244 240 241 243 242 245 245 248 244 245 245 247 250 252 251 252 251 252 253 252
245 242 242 243 244 244 247 247 248 249 246 246 245 248 251 247 244 246 246 249 247 244 244 245 243 245 246 247 247 246 246 244 246 247 245 243 244 243 246 247 247 250 248 249 249 251 252 253 253 252 252 252 252 252
240 240 242 242 242 237 239 240 243 243 244 244 245 245 245 244 243 247 248 250 249 248 247 247 247 247 248 250 251 251 252 252 251 250 250 250 250 251 250 250 252 258 253 252 252 251 250 250 250 251 251 251 252 252
238 240 240 242 239 240 239 239 240 241 241 241 245 246 246 249 248 247 249 250 250 249 250 251 252 251 251 253 254 253 253 253 254 252 252 251 252 252 251 251 250 250 249 246 253 256 253 251 251 252 251 251 252 248
239 236 243 243 243 241 241 239 240 240 241 241 241 246 247 248 250 252 251 250 250 249 250 250 252 252 252 252 251 252 252 253 252 251 249 250 251 252 251 251 251 251 250 246 250 252 255 252 251 247 248 247 247 248
237 238 240 242 241 239 240 238 240 241 242 243 243 244 245 246 250 254 252 253 253 253 252 251 251 251 251 251 250 250 251 253 253 252 252 252 252 251 252 252 252 250 245 245 246 247 249 248 245 246 246 246 247 247
243 242 242 242 240 236 235 239 241 241 241 243 244 245 246 247 246 250 252 252 251 251 251 251 250 250 252 252 253 252 253 253 253 252 253 253 254 254 254 253 251 249 249 249 247 247 247 246 247 247 247 247 247 246
241 241 241 243 243 243 243 243 245 245 246 245 245 245 245 247 246 250 253 253 250 250 250 250 251 252 251 251 252 253 252 253 253 256 256 256 255 256 254 254 254 251 250 248 247 247 247 246 246 246 246 246 246 246

GFSWCAN_sfc_thetae_033.txt.gz
Theta_e
297 299 299 299 301 301 301 301 302 302 302 302 302 303 302 302 302 295 290 291 286 280 283 285 285 283 282 284 279 279 280 280 278 277 275 273 270 271 269 271 270 269 267 266 265 265 264 276 275 272 276 276 276 275
295 297 299 299 300 300 301 301 302 302 302 302 302 302 302 302 302 298 290 292 290 281 281 287 288 289 287 286 281 279 281 277 280 275 273 273 268 266 266 264 274 269 272 268 271 269 276 277 277 279 279 277 277 277
294 295 297 298 299 299 300 301 301 301 301 302 302 302 302 302 302 299 292 290 290 283 280 284 283 287 290 288 287 280 278 281 280 281 274 272 268 272 263 265 268 272 274 271 271 273 275 277 278 279 279 279 279 279
293 294 296 298 298 298 299 300 301 301 301 301 301 302 302 302 302 301 293 293 289 285 273 277 283 284 289 288 286 285 284 282 282 281 274 270 268 277 270 273 271 274 274 271 271 275 275 277 277 279 279 279 279 279
293 294 295 297 297 298 298 299 300 300 300 301 301 301 301 301 302 300 296 294 294 283 275 272 278 283 286 286 284 284 283 281 279 275 269 269 274 274 271 274 271 275 275 272 269 277 277 277 278 279 278 278 279 278
292 294 295 296 297 297 298 298 299 299 299 300 300 300 300 301 301 295 285 294 295 293 283 273 280 277 281 283 283 282 282 280 278 276 274 275 279 277 267 264 278 280 278 279 277 280 279 279 279 279 278 278 278 277
292 294 294 297 297 297 298 298 298 299 299 299 299 298 300 300 297 286 285 289 297 293 283 277 274 276 281 280 277 280 281 278 279 278 274 277 277 280 275 266 279 278 279 279 279 278 277 278 278 280 279 278 277 274
293 294 295 296 296 297 297 297 297 298 298 298 298 297 296 297 296 288 291 296 296 288 284 277 271 274 282 278 279 280 279 280 279 281 279 275 279 279 272 277 279 279 278 277 278 279 281 280 276 277 275 272 271 273
292 294 294 296 296 297 297 297 297 297 298 298 298 297 292 289 285 287 296 295 294 286 278 276 269 268 280 280 280 280 282 276 282 277 277 279 275 272 276 277 277 279 278 279 278 275 275 275 277 274 271 268 270 271
291 292 294 294 295 296 296 296 297 297 297 297 291 285 281 284 292 294 289 284 284 283 283 272 265 265 277 275 274 274 276 274 273 275 278 276 274 280 279 276 278 279 280 278 270 269 263 267 272 272 270 268 269 266
292 293 294 293 293 295 296 296 296 296 296 286 283 280 284 292 286 281 278 276 278 275 278 268 267 270 276 271 269 277 273 273 269 268 273 271 267 278 279 278 279 278 277 274 276 277 272 271 272 270 265 264 263 262
292 293 294 294 294 295 295 295 295 288 285 286 285 288 286 283 278 275 274 272 274 268 268 273 268 271 269 272 270 275 272 272 268 267 269 264 273 278 273 277 279 280 274 271 266 269 265 266 264 265 262 259 257 257
292 293 293 292 293 294 294 295 293 293 290 285 281 277 278 277 272 269 269 267 267 264 270 271 269 272 273 275 273 272 269 267 269 269 268 267 275 269 272 272 263 259 261 261 259 260 259 258 257 256 255 255 254 252
290 291 291 291 291 291 291 293 294 291 284 277 275 271 271 269 269 270 261 263 267 266 267 267 272 272 273 272 274 270 272 269 267 266 262 270 264 260 261 257 257 256 256 258 256 256 255 255 253 252 252 251 251 250
289 289 289 289 289 290 290 290 292 287 280 275 275 269 268 262 258 254 253 259 264 264 271 270 270 275 271 273 275 272 267 266 266 262 263 258 257 256 256 254 252 255 254 252 252 253 253 253 251 248 245 247 249 248
286 285 283 287 288 289 289 289 286 284 279 275 272 267 258 261 258 258 257 262 267 273 273 273 271 272 271 271 268 268 265 262 263 257 253 254 253 253 252 251 252 253 252 251 252 251 253 253 252 249 246 245 244 246
283 270 283 284 285 285 286 279 279 277 272 272 266 252 254 261 264 262 262 266 270 271 267 271 269 269 273 269 268 268 264 258 254 253 253 251 251 250 250 251 251 251 251 251 251 250 251 248 249 250 249 245 243 243
273 275 283 284 278 276 267 270 273 270 264 262 261 254 254 252 255 257 260 264 267 269 270 271 273 269 267 265 263 260 259 257 256 255 254 252 250 252 251 250 248 250 251 250 251 250 250 251 252 250 249 244 245 245
273 276 281 282 278 265 262 263 267 263 259 258 260 260 257 256 258 258 257 263 265 266 269 269 268 266 259 255 253 254 254 254 254 253 252 251 253 252 252 251 251 252 252 251 251 251 249 248 250 250 248 246 246 243
281 280 279 278 277 267 258 259 262 263 260 259 259 259 259 258 259 257 258 261 265 264 258 256 250 250 251 252 252 252 253 254 253 252 253 254 253 253 252 253 251 250 250 250 250 251 251 250 247 246 244 244 245 245
273 274 275 268 266 264 261 259 256 258 258 257 257 259 257 258 256 257 257 260 256 250 251 250 251 251 252 252 252 251 253 252 253 254 255 254 253 253 252 251 252 251 250 250 251 249 248 250 246 243 242 243 241 241
268 274 264 270 264 261 258 258 256 256 256 251 255 256 253 253 251 252 256 252 250 249 248 248 248 248 248 249 249 249 250 252 254 255 254 254 252 252 251 251 252 251 249 248 248 248 246 245 242 241 241 243 244 244
268 268 263 261 258 256 253 259 255 255 254 253 253 254 252 251 252 257 250 249 249 251 249 248 248 248 247 248 250 250 251 251 252 252 252 252 252 252 251 250 249 249 248 249 246 245 244 246 245 244 244 245 244 245
262 254 254 252 254 252 253 254 256 256 254 253 254 252 250 249 252 252 247 247 247 249 249 248 246 248 248 249 249 250 250 250 251 251 250 250 251 248 247 246 246 245 247 244 242 242 242 243 246 245 246 245 245 248
255 247 250 248 250 251 250 250 251 253 250 250 252 250 248 250 251 248 247 247 248 246 246 246 245 246 245 248 250 250 249 249 251 251 249 249 248 247 249 247 248 248 245 243 243 242 242 242 245 247 249 248 250 252
243 243 245 244 246 247 247 247 247 246 248 249 249 250 251 252 248 244 244 247 247 247 247 246 245 246 249 249 250 251 250 248 249 251 250 249 249 248 246 245 244 247 241 241 242 244 246 250 251 251 251 252 254 253
243 242 244 246 245 246 247 248 248 247 245 245 244 248 251 246 244 245 247 249 248 249 248 248 245 246 246 248 250 249 248 246 247 248 245 244 243 243 245 246 247 249 248 247 247 247 249 252 253 253 253 253 253 253
241 242 243 244 244 242 244 244 244 242 243 243 245 244 244 243 243 247 249 251 250 250 250 250 249 248 248 250 251 252 252 252 250 249 250 250 250 250 251 250 250 257 252 252 251 251 250 250 250 251 250 251 252 253
243 242 242 244 240 240 239 240 240 241 241 241 244 245 245 248 248 248 249 251 251 250 251 250 252 251 251 252 253 253 253 252 252 251 251 251 252 252 254 253 252 252 251 249 254 257 255 253 253 253 251 252 252 250
242 239 243 242 242 241 240 239 240 240 242 242 243 248 249 249 251 252 252 252 251 251 251 251 252 252 251 251 251 252 252 253 252 250 248 249 250 252 252 252 252 253 252 250 251 250 253 251 251 247 249 248 247 248
240 241 243 244 243 242 241 239 241 242 243 244 245 247 246 246 249 253 252 252 252 252 251 250 250 251 250 250 249 249 249 251 252 252 252 252 252 253 253 253 253 253 251 248 246 244 245 244 243 242 243 243 244 246
243 239 241 242 242 241 240 241 242 242 243 244 244 245 246 247 246 249 252 252 250 250 250 250 249 250 251 251 252 252 253 252 251 251 252 252 253 253 254 254 253 252 250 250 248 246 245 243 244 244 245 244 244 244
242 243 243 244 243 243 243 243 245 245 245 245 245 246 245 247 246 249 252 253 251 250 250 250 251 251 251 251 251 251 251 250 250 254 254 254 253 254 253 252 251 249 248 246 247 245 245 244 244 244 244 244 244 244

GFSWCAN_sfc_thetae_036.txt.gz
Theta_e
295 296 296 297 298 300 300 301 301 302 302 302 302 303 303 303 301 294 288 292 288 282 283 284 286 284 284 285 281 279 281 280 280 278 278 276 275 273 272 273 272 272 273 271 271 270 270 276 275 273 277 276 276 275
294 295 295 296 297 299 299 300 301 302 302 302 302 302 302 303 303 298 290 292 290 283 283 287 287 288 288 289 283 281 283 279 282 279 277 275 272 271 272 270 275 272 274 271 274 273 276 278 277 279 279 277 276 276
293 294 294 294 295 297 299 299 301 301 301 302 302 302 302 302 302 298 290 288 289 279 281 281 281 287 289 289 289 282 280 283 282 283 277 276 273 273 267 268 270 273 274 273 273 274 275 277 279 279 279 278 279 279
293 293 294 293 294 295 297 299 300 300 301 301 301 301 302 302 302 299 291 290 287 282 273 278 283 284 288 288 286 286 284 283 282 281 276 273 271 277 271 274 273 275 274 271 271 275 276 277 278 279 279 279 278 278
293 293 293 293 293 294 296 298 299 299 300 301 301 301 301 302 302 299 295 293 293 286 275 274 278 283 285 286 284 284 283 281 278 275 273 271 275 274 273 274 271 275 274 272 270 277 277 277 279 280 278 278 278 277
293 293 293 293 293 294 296 298 298 298 299 300 300 301 301 301 301 295 286 293 294 292 279 271 279 277 282 283 282 281 281 280 278 276 273 276 279 276 266 265 276 277 277 279 277 278 278 280 279 278 278 278 278 277
293 292 293 293 293 295 296 297 298 298 298 299 300 300 301 301 295 288 284 290 296 293 283 273 270 277 281 279 278 280 280 279 278 275 271 277 277 277 268 267 278 278 279 278 279 278 276 277 278 278 278 278 276 274
292 292 292 292 293 294 296 297 297 298 298 298 299 300 297 296 297 289 293 296 296 287 284 277 267 275 281 278 277 279 277 276 275 277 278 274 278 278 270 277 277 279 278 278 278 279 281 278 277 277 275 273 271 273
291 291 292 293 294 294 296 297 297 297 298 297 298 297 292 287 285 286 295 297 293 286 279 278 270 269 280 279 279 278 282 275 281 276 276 278 275 271 276 277 277 278 277 278 276 275 274 275 277 274 272 268 271 273
290 291 291 293 294 294 295 296 296 297 298 298 293 285 280 286 293 294 288 284 283 282 282 275 261 267 278 275 275 274 275 273 273 274 278 276 270 279 278 277 278 279 278 276 271 270 264 267 272 273 271 272 273 269
290 290 291 293 294 294 295 297 297 297 297 287 283 279 285 293 285 280 278 276 278 275 280 272 267 270 274 269 268 277 274 275 270 269 271 268 265 278 279 278 279 278 278 276 278 278 273 273 273 272 269 267 265 264
291 291 292 293 294 294 294 296 296 291 285 285 285 288 287 281 277 274 274 275 271 269 269 273 269 270 270 274 274 276 273 272 263 266 268 261 272 275 274 277 279 276 272 272 268 272 266 267 264 265 263 261 258 258
293 293 292 292 294 294 294 296 293 293 289 285 281 279 278 276 270 270 269 265 268 262 270 268 269 271 272 274 272 271 269 268 270 269 268 267 272 265 262 263 266 261 261 262 260 260 260 258 258 257 256 255 255 253
291 291 291 291 293 295 296 295 293 290 284 278 275 271 269 269 269 270 262 261 264 263 270 265 271 270 267 268 272 266 268 267 264 264 262 261 256 256 257 257 255 257 255 258 256 256 256 256 254 253 253 253 253 252
288 288 289 290 291 292 293 293 291 284 277 274 274 268 264 259 255 255 256 258 261 260 268 268 267 274 269 272 273 270 267 265 262 261 258 254 254 253 254 253 252 252 252 252 251 252 253 253 252 249 249 250 251 250
285 284 283 287 289 290 290 288 285 283 278 273 269 265 258 261 258 258 256 262 267 271 270 271 268 271 270 270 269 268 266 262 261 254 253 253 251 250 249 249 249 248 248 250 251 253 253 252 251 248 247 247 249 250
282 272 285 286 287 285 284 277 277 273 270 270 261 252 253 257 259 257 259 265 271 272 271 273 270 268 271 268 267 267 265 261 257 256 254 253 252 251 250 248 247 247 247 248 248 248 247 248 248 250 250 248 250 248
273 275 283 284 278 274 265 269 269 267 262 261 261 256 252 253 255 257 261 265 270 272 271 271 272 268 267 266 263 257 257 257 257 255 254 253 251 249 250 248 250 250 249 248 246 246 248 251 253 253 252 251 251 250
273 277 281 282 275 262 261 261 266 263 259 257 261 261 259 256 258 260 260 265 266 266 269 267 268 263 256 254 253 254 253 253 253 254 253 250 251 248 249 251 250 250 250 249 250 252 252 253 252 251 251 252 252 250
281 280 279 278 275 260 257 257 259 264 259 259 258 260 260 259 260 260 260 262 262 260 253 252 249 249 250 251 252 251 252 253 252 251 252 253 254 253 252 252 251 251 251 250 250 251 251 252 251 251 250 250 249 247
273 273 274 267 265 261 256 256 255 256 259 258 258 259 258 259 257 256 256 258 254 249 249 249 249 249 251 251 252 251 252 252 251 250 250 253 254 254 253 253 253 253 253 252 252 252 253 252 251 249 249 246 243 243
268 273 262 268 263 261 259 258 255 256 256 253 257 257 254 253 252 252 256 251 249 249 249 249 249 249 249 250 250 251 251 251 252 253 254 254 253 253 253 253 254 252 252 252 251 249 249 249 248 245 243 244 244 244
268 267 262 261 260 259 255 259 255 256 254 254 255 256 253 253 254 257 250 249 248 250 248 248 249 249 249 250 250 251 250 249 248 250 251 251 252 252 252 251 251 250 250 250 249 248 245 247 245 244 243 244 243 244
261 253 253 252 253 252 254 254 256 256 255 253 253 251 249 250 254 251 246 246 249 250 249 248 248 249 250 249 248 248 248 248 250 250 250 253 252 250 250 250 250 249 248 247 247 244 243 243 247 246 246 244 242 243
253 246 248 247 250 249 248 249 250 252 250 250 250 250 249 249 249 246 246 246 248 248 248 248 248 248 246 247 249 249 248 249 251 250 250 251 251 252 252 251 250 247 247 246 246 245 246 245 246 244 245 243 244 244
242 243 244 243 245 246 247 247 246 246 248 247 246 249 248 249 246 243 245 246 246 247 248 246 245 246 248 249 248 250 250 249 249 251 250 250 251 251 250 250 250 251 247 245 245 245 244 247 246 246 246 248 250 250
242 242 244 247 246 246 248 248 248 246 243 243 242 247 249 245 243 245 248 249 248 248 250 250 248 248 247 248 250 251 251 249 248 248 248 248 248 248 249 249 248 250 247 245 244 245 246 246 247 248 250 250 249 249
243 242 242 244 244 244 244 244 242 241 242 242 244 243 243 243 241 246 249 251 251 251 251 251 250 249 249 251 252 253 253 253 250 251 251 251 250 251 251 251 252 257 253 251 252 252 251 250 250 250 249 249 249 251
243 243 243 244 243 242 239 240 240 241 241 241 244 245 244 247 247 247 250 251 252 252 251 251 251 253 252 253 253 253 252 251 250 248 247 248 249 250 253 253 252 253 253 252 254 256 257 256 255 253 250 249 249 247
242 240 242 242 241 240 240 239 240 241 242 243 244 249 249 249 251 253 252 252 251 250 250 251 251 250 249 249 249 250 250 250 250 249 246 246 248 251 252 252 252 252 252 248 250 250 252 249 249 245 245 244 243 243
240 242 242 242 242 241 241 240 241 243 244 246 247 247 245 247 249 252 251 251 250 250 250 249 249 249 249 248 248 247 248 249 251 250 250 250 250 250 251 252 253 249 244 245 244 243 244 243 242 243 243 243 243 245
243 239 240 240 241 241 240 242 241 242 244 245 245 246 246 246 245 247 251 250 249 248 249 248 247 247 249 249 245 244 249 248 248 247 248 249 248 249 250 251 250 248 246 246 245 244 243 242 243 243 243 242 242 242
243 244 244 244 243 243 243 242 244 244 245 245 245 245 245 247 245 248 251 251 249 247 246 246 247 248 246 243 245 243 244 242 244 250 251 252 252 252 251 250 247 245 244 244 244 245 243 243 243 242 242 242 242 242

GFSWCAN_sfc_thetae_039.txt.gz
Theta_e
294 294 295 295 296 297 297 298 300 300 301 302 302 302 303 303 300 292 289 294 289 284 284 285 287 286 284 285 281 280 282 281 281 280 279 278 275 276 275 273 274 275 274 274 275 273 272 277 276 276 280 278 279 277
294 294 294 295 295 296 297 297 298 299 300 301 302 302 303 303 300 296 286 291 290 283 281 286 286 287 288 290 283 282 283 278 283 280 279 277 273 273 275 274 275 274 278 277 278 277 277 279 280 280 280 280 278 278
293 294 294 294 294 295 295 296 297 298 299 301 301 302 302 302 302 297 291 288 286 279 280 280 281 286 289 288 290 283 282 284 284 283 279 278 275 276 271 272 272 274 275 274 274 275 276 278 279 280 279 279 279 279
293 293 293 293 294 294 294 295 296 297 299 300 301 301 302 303 302 298 290 290 286 280 273 277 283 283 287 288 286 286 285 283 283 283 279 276 272 277 274 276 275 276 275 272 272 275 276 278 278 279 279 280 279 278
293 293 293 293 293 293 294 294 295 296 298 299 300 301 301 302 302 299 293 291 290 283 274 273 277 282 284 285 284 284 284 282 281 277 275 274 277 275 274 275 272 275 274 273 271 277 277 278 280 280 279 279 278 278
292 293 293 293 294 293 294 294 294 295 297 299 299 300 301 301 302 295 285 292 293 290 282 275 278 276 281 282 281 281 282 281 279 278 276 277 279 277 269 268 277 277 277 278 277 279 279 280 280 280 278 278 278 277
292 292 292 293 294 294 293 294 294 295 297 298 299 299 300 300 298 288 285 289 296 293 280 275 270 279 281 279 277 279 280 279 279 276 273 277 277 276 269 267 276 277 278 278 279 279 276 278 278 278 278 278 275 274
291 291 292 292 293 293 293 293 294 296 297 298 299 299 299 300 298 289 292 297 296 287 284 275 267 276 282 278 278 279 277 275 275 275 276 274 277 275 269 275 277 278 278 278 279 279 280 278 276 275 274 273 271 273
290 290 291 291 292 293 292 293 294 296 297 298 298 297 290 289 285 286 297 298 292 287 279 277 271 270 280 280 279 280 279 269 278 273 275 274 269 269 275 277 277 278 277 278 276 276 274 275 276 272 271 268 272 274
290 290 291 291 291 292 292 293 295 296 297 298 291 285 281 285 294 293 286 284 282 282 282 275 265 268 278 277 272 273 274 271 268 271 277 276 270 278 279 277 278 279 278 275 271 270 264 267 272 271 272 273 274 274
290 290 290 290 291 291 293 294 295 296 297 289 282 280 286 294 285 282 278 278 279 275 279 273 268 270 274 268 269 276 271 274 268 267 270 266 269 277 278 277 278 278 276 274 275 275 272 272 272 272 270 271 268 265
291 293 291 292 292 292 294 294 296 293 285 286 285 287 285 278 277 274 274 275 274 272 271 271 268 270 269 273 272 276 271 269 262 265 270 263 269 264 262 264 265 265 264 267 266 269 267 268 265 265 263 262 259 260
290 292 293 292 293 294 293 295 295 293 290 286 282 280 278 276 271 268 268 267 267 267 271 270 271 273 272 274 275 274 270 269 270 267 265 265 263 259 257 258 258 259 259 260 260 260 260 259 258 257 257 256 256 254
289 289 291 292 293 294 294 295 294 291 284 278 275 271 271 269 272 266 266 266 267 266 269 269 271 271 269 271 273 269 270 269 266 264 261 255 255 253 254 255 252 254 254 256 254 256 256 255 253 253 253 253 253 252
286 287 289 289 291 292 294 294 290 284 279 275 275 269 267 261 256 251 251 261 261 268 271 270 268 273 267 271 273 269 266 264 262 260 256 253 253 252 252 251 250 251 251 251 249 251 252 252 251 249 249 250 251 251
284 283 283 288 288 288 289 287 285 282 277 273 269 267 261 265 260 257 255 265 264 269 267 269 266 267 268 270 269 268 266 262 260 253 253 254 252 251 249 248 248 248 246 247 249 249 251 251 249 247 247 248 249 250
282 277 285 286 286 283 283 278 276 271 268 266 260 256 259 261 262 261 258 264 270 267 264 267 263 265 272 268 266 261 262 258 257 257 256 254 253 251 250 249 248 246 247 246 246 247 247 246 246 250 249 247 246 247
273 275 284 284 279 275 268 268 267 265 258 258 258 256 256 255 258 259 261 266 270 271 266 265 270 268 266 265 261 257 256 255 257 255 254 253 251 249 248 246 246 246 245 246 245 245 246 247 249 251 250 251 253 253
276 278 282 282 274 263 264 263 262 258 255 254 258 259 256 255 259 261 261 265 267 265 266 267 263 258 254 253 252 253 252 251 251 253 253 250 251 248 246 247 248 248 249 247 248 248 249 250 252 253 252 254 253 253
279 280 280 277 271 261 257 256 258 257 254 256 257 257 258 258 259 260 258 259 259 255 249 248 247 248 249 250 251 251 252 253 251 250 252 252 251 248 249 250 251 252 252 251 252 253 252 252 253 253 253 253 253 250
273 273 274 267 261 257 255 255 254 256 257 256 257 259 258 259 256 255 254 256 252 249 248 247 248 249 250 250 252 250 251 251 250 249 247 249 252 251 251 251 250 251 252 253 253 253 254 252 252 251 251 250 249 248
268 272 263 267 261 256 255 257 255 255 254 252 256 256 254 253 253 252 255 249 248 248 249 248 249 249 249 249 250 250 250 250 250 251 253 252 250 251 251 251 252 251 252 252 253 253 252 251 250 248 245 245 244 243
266 266 262 259 258 255 254 259 255 255 254 253 254 255 253 253 254 256 249 249 249 251 249 248 248 249 248 249 250 250 250 250 249 249 250 250 250 251 251 251 252 252 253 252 251 251 251 250 249 247 245 244 243 243
260 253 253 252 253 248 255 254 256 255 255 253 253 251 250 251 255 250 246 247 249 251 249 248 249 250 250 251 250 249 249 249 249 249 249 249 249 249 250 250 251 251 250 251 250 250 249 249 249 246 244 243 242 243
252 246 248 246 250 251 251 251 251 252 250 251 250 250 249 251 247 245 245 246 247 248 248 248 248 249 248 248 250 250 249 248 247 246 249 250 250 251 252 252 251 250 250 251 250 249 248 247 248 245 246 243 244 244
242 243 243 243 244 245 246 247 245 246 249 247 246 248 249 248 245 242 244 246 246 247 248 247 246 246 248 248 247 248 249 249 249 250 249 249 249 248 248 249 249 250 248 247 248 245 245 246 245 246 248 249 250 249
241 241 244 248 246 246 247 248 248 246 243 243 243 246 247 243 241 243 247 249 248 249 251 250 247 247 248 249 251 252 253 251 250 248 248 249 249 249 250 249 249 251 251 248 245 243 243 244 245 245 246 249 249 248
243 242 242 244 244 244 244 243 241 240 242 242 244 242 242 241 240 245 249 251 251 251 252 250 250 250 250 251 252 252 252 252 251 249 249 249 249 250 250 251 252 257 253 252 252 253 250 250 250 250 250 249 250 249
243 243 244 243 243 242 239 240 240 241 242 240 244 244 244 247 247 247 250 252 252 251 250 249 250 251 251 251 251 251 251 250 248 246 245 245 247 248 251 251 251 250 249 247 253 255 255 255 253 251 247 248 248 246
242 242 244 242 241 241 241 240 241 242 242 243 246 248 248 248 250 252 251 250 249 249 249 249 249 249 247 247 247 247 246 246 248 246 241 242 245 248 249 249 249 250 250 244 247 246 250 248 248 246 246 245 245 245
241 240 241 242 242 242 242 242 242 243 246 246 247 246 246 247 249 250 250 249 248 247 247 246 247 244 245 245 244 244 243 243 245 242 241 244 245 245 246 248 249 246 245 242 243 241 243 243 241 240 241 241 241 243
243 240 241 241 241 242 242 242 240 243 244 245 244 245 245 245 244 247 250 247 244 243 244 241 242 244 242 239 238 238 245 242 242 244 243 246 246 247 248 247 247 244 243 244 243 242 243 241 241 242 242 241 241 241
241 243 242 243 243 243 243 243 245 244 244 243 244 244 244 245 243 247 250 245 244 242 241 240 240 243 241 241 241 241 243 239 241 249 248 250 250 251 250 248 246 241 241 242 243 243 242 241 241 241 240 240 240 241

GFSWCAN_sfc_thetae_042.txt.gz
Theta_e
294 294 294 295 295 295 296 297 297 298 298 300 301 303 303 303 302 296 293 296 292 287 286 287 288 287 286 287 283 283 284 283 283 282 281 280 279 279 279 278 279 280 279 279 279 278 277 281 278 280 285 281 283 282
293 293 294 294 294 295 295 296 297 297 297 299 300 301 302 302 302 296 290 294 292 288 286 288 289 289 289 290 285 284 285 283 286 284 283 280 277 277 279 277 277 279 284 281 283 282 279 282 282 283 284 285 282 282
292 293 293 294 294 294 294 295 296 297 297 297 299 301 301 302 302 298 290 292 289 285 285 285 284 288 290 290 292 285 285 287 286 286 283 281 278 279 277 278 276 278 279 279 281 278 278 280 281 282 282 282 282 283
292 293 293 293 294 294 294 295 295 296 296 297 297 299 301 302 302 298 292 293 290 284 281 282 285 286 289 290 289 289 286 285 285 286 283 281 280 280 278 278 279 279 278 276 275 276 278 280 281 282 282 282 281 281
292 292 293 293 293 294 294 294 294 295 295 296 297 298 300 301 302 298 295 293 293 288 280 280 281 284 286 288 286 287 288 285 283 281 280 279 279 278 277 277 276 278 276 276 277 280 281 281 283 283 282 281 282 281
291 291 292 293 293 293 294 294 294 294 294 295 296 298 299 301 301 294 285 291 294 293 285 278 281 281 283 285 284 284 284 283 283 282 279 279 280 280 277 276 279 279 280 282 280 282 281 282 283 283 282 282 282 281
291 291 291 292 292 293 293 294 294 294 294 295 296 297 297 301 297 286 286 292 296 294 284 278 277 281 282 282 282 282 283 282 283 280 279 279 278 280 276 275 278 279 280 280 282 280 279 280 281 281 281 282 280 278
290 290 291 291 291 292 293 294 294 294 294 295 296 297 299 300 298 289 294 297 296 287 285 275 274 277 283 280 278 281 280 281 281 279 279 278 279 279 275 277 279 280 280 280 280 281 282 281 280 279 278 277 276 277
289 290 290 290 291 291 292 293 293 294 294 294 296 298 295 293 285 287 297 298 293 288 281 276 273 273 282 280 281 281 281 277 280 277 278 279 275 273 278 278 278 279 279 281 280 278 276 277 279 277 276 274 276 277
289 290 291 291 291 291 292 292 293 293 294 295 293 285 282 285 293 296 288 284 284 283 284 276 273 274 280 279 277 278 279 276 274 276 279 277 275 280 279 280 279 280 280 278 275 274 271 274 276 276 276 278 278 278
290 291 291 290 293 293 291 292 293 293 294 289 284 282 287 294 286 284 280 280 279 277 279 273 273 275 280 276 275 278 276 277 271 274 275 273 273 274 266 268 268 268 269 272 275 278 278 279 278 277 275 275 275 273
289 290 291 293 292 293 291 292 293 290 287 286 287 287 286 282 279 276 275 276 276 274 273 272 272 276 277 280 278 278 275 274 270 274 274 269 273 263 261 260 261 261 261 264 265 268 270 271 268 270 269 268 266 264
288 289 291 293 292 292 292 292 294 293 291 286 284 281 279 277 272 271 268 270 272 270 272 273 274 276 276 279 277 276 272 271 272 271 270 271 262 260 257 257 257 258 258 260 261 262 262 261 260 261 260 259 259 258
287 288 289 291 292 292 292 294 294 291 285 279 276 271 273 271 273 272 271 272 271 272 274 276 273 276 276 275 275 271 271 272 269 267 267 262 258 255 255 255 253 253 254 255 256 257 257 257 255 255 255 256 257 256
285 286 287 288 290 291 293 294 291 285 281 275 275 269 270 263 261 259 258 266 267 275 276 274 274 276 273 274 274 270 267 267 269 267 262 258 256 254 253 252 251 251 251 253 254 254 254 254 253 252 252 254 254 254
284 282 283 287 288 288 288 287 282 281 272 271 265 266 262 268 265 265 265 267 268 272 273 274 272 272 271 273 270 268 267 265 265 259 257 257 254 252 252 251 251 251 250 251 252 253 253 252 252 251 251 252 252 253
281 276 284 286 285 284 282 278 275 267 266 266 261 258 259 263 262 262 262 267 271 273 271 270 265 267 273 269 264 261 264 258 258 257 256 255 253 252 252 252 251 251 251 250 251 251 251 251 250 253 252 252 252 252
272 276 283 284 279 277 270 269 268 265 260 260 261 258 259 259 261 261 263 266 271 270 268 267 271 266 262 261 258 255 254 256 257 256 255 254 253 251 251 251 250 250 251 250 250 251 251 252 253 252 252 252 253 254
277 279 282 280 276 268 267 264 264 259 257 259 261 261 259 260 261 260 260 262 263 261 263 261 252 251 251 251 251 252 252 253 253 254 255 253 253 252 252 251 251 251 251 251 252 252 253 252 254 255 255 256 255 255
279 279 279 276 273 266 262 259 263 261 258 258 260 259 259 259 260 258 256 257 256 254 248 248 247 248 249 250 251 252 253 253 252 253 254 254 254 252 251 252 253 253 253 253 254 254 255 254 254 255 255 255 256 255
272 272 273 266 260 259 257 257 257 259 259 258 259 260 259 258 255 254 253 254 251 248 248 248 249 250 251 251 252 252 252 252 251 251 252 252 254 254 253 254 254 254 254 254 254 254 254 253 254 254 255 254 254 254
267 272 262 265 260 257 257 259 258 258 257 256 258 257 254 253 252 252 254 249 248 248 249 248 249 249 249 250 251 251 251 251 252 253 254 253 252 253 253 253 254 253 253 253 254 254 253 253 253 253 254 253 252 253
265 265 260 257 256 254 255 259 255 255 256 256 257 254 253 252 254 255 249 249 249 251 250 249 249 250 250 251 251 251 250 250 250 251 251 252 252 252 253 252 253 253 253 252 253 253 253 252 253 253 253 252 252 253
260 251 251 249 250 251 255 253 255 253 254 253 252 250 249 250 254 249 245 247 249 251 249 249 250 251 252 252 250 250 249 251 252 252 251 252 252 251 252 252 252 251 251 252 252 253 253 253 252 252 252 251 250 250
251 244 247 244 248 248 249 249 249 249 248 248 249 249 249 252 247 246 245 246 248 248 249 249 249 249 248 249 250 251 251 250 250 250 250 251 252 253 252 252 251 250 251 251 251 250 251 251 252 251 251 251 251 251
240 243 243 243 244 245 246 246 245 245 248 246 246 248 250 247 244 242 244 246 247 247 248 248 247 247 249 250 249 250 250 251 251 250 250 250 250 250 249 249 249 250 251 249 248 248 248 249 248 248 249 251 252 252
241 241 244 248 245 245 245 246 245 243 240 241 242 245 245 240 239 243 247 249 249 249 251 250 249 249 249 250 251 252 253 251 250 251 251 251 251 251 251 249 248 251 253 252 251 249 249 249 249 250 250 251 251 251
243 243 241 244 243 243 242 241 240 239 241 242 244 241 238 239 240 246 249 251 251 252 251 251 252 251 250 250 251 251 251 252 252 251 251 251 251 251 250 251 251 256 252 253 252 253 252 252 252 250 250 249 250 251
243 243 244 242 243 242 240 240 240 241 242 241 242 243 243 246 246 247 250 251 251 250 248 248 248 249 249 249 249 248 247 247 245 242 240 243 244 246 249 249 248 249 250 248 251 253 254 253 253 251 247 247 248 247
242 242 242 241 240 240 241 240 242 243 243 243 245 247 247 247 249 251 250 249 248 247 247 246 244 243 243 243 242 243 241 243 241 241 239 241 242 245 246 246 246 247 249 245 247 247 249 248 247 244 245 245 245 245
241 240 241 241 241 242 242 243 244 246 248 247 248 246 244 246 248 249 249 245 243 243 242 242 241 237 238 240 239 238 240 240 239 240 239 240 242 243 244 246 247 248 244 243 243 242 244 244 243 242 242 242 242 243
243 240 242 242 242 244 244 242 242 244 244 243 244 243 243 244 242 245 248 243 240 240 241 237 236 242 240 238 237 238 241 243 240 243 241 244 245 245 247 248 248 244 244 244 244 243 243 241 242 242 242 241 241 241
242 243 242 243 242 243 243 243 244 243 243 243 243 242 243 243 242 244 247 242 242 240 239 239 239 240 240 240 240 241 242 240 239 248 247 250 250 250 250 249 246 241 242 243 243 243 242 241 241 241 241 240 240 240

GFSWCAN_sfc_thetae_045.txt.gz
Theta_e
294 294 294 294 295 295 295 295 296 297 298 298 299 299 301 302 303 298 296 299 294 287 290 289 290 287 286 286 283 284 284 283 283 283 284 283 284 283 283 284 281 281 280 281 283 280 279 284 281 284 287 285 287 291
294 294 294 294 294 294 295 295 295 296 297 298 297 299 300 301 302 299 292 296 295 289 289 290 290 290 290 290 287 284 285 285 287 285 285 284 280 281 283 280 281 281 286 285 286 284 281 283 283 286 287 288 285 287
293 293 293 293 294 294 294 295 295 295 296 297 298 298 299 300 302 299 295 293 291 288 288 287 286 289 290 290 292 286 286 287 287 287 287 284 281 283 279 281 280 281 282 283 283 280 281 282 285 283 284 285 285 285
292 292 292 293 293 294 294 294 295 295 295 296 298 297 298 299 301 299 292 294 293 290 285 285 288 287 290 291 290 289 288 287 287 287 285 283 282 282 282 280 281 280 281 280 277 278 280 282 283 285 285 283 282 282
291 292 292 292 293 293 294 294 294 295 295 295 296 297 297 298 299 299 298 295 296 291 285 284 284 286 288 289 288 290 288 287 286 283 283 282 281 280 279 279 279 279 279 278 279 280 284 283 285 286 283 282 282 282
291 291 291 292 292 292 293 293 294 294 294 295 295 296 297 297 298 293 285 293 295 296 285 281 284 283 286 287 287 288 287 286 285 284 281 280 281 282 280 280 281 282 282 284 281 284 284 285 287 286 283 283 283 282
290 290 291 291 292 292 292 293 293 294 294 294 295 295 296 297 296 287 287 292 296 297 285 279 280 282 284 285 284 284 285 284 285 282 281 280 279 283 279 277 280 281 282 281 282 282 280 281 281 283 283 283 282 280
290 290 290 290 291 291 291 292 292 293 294 294 294 295 296 297 296 290 295 296 297 288 286 280 276 279 283 281 280 284 282 284 283 281 281 280 280 280 276 279 280 281 281 280 281 281 282 282 281 280 280 279 277 278
289 289 289 290 290 291 291 292 292 292 294 294 294 295 293 291 285 288 298 298 295 289 282 280 275 274 283 281 282 282 283 279 282 279 279 281 278 276 279 279 279 280 280 282 281 279 278 279 280 278 277 276 276 278
289 289 289 290 291 291 291 292 292 293 293 294 291 285 283 285 293 296 290 285 284 284 285 281 282 276 281 281 280 280 282 278 275 278 280 278 277 275 272 271 271 271 271 276 277 276 275 275 277 277 277 278 278 278
288 289 290 291 291 290 291 292 292 292 293 288 284 284 287 295 287 284 280 281 281 279 282 278 280 276 282 278 278 280 278 278 273 276 276 275 275 270 266 267 266 266 267 268 269 272 275 276 278 278 276 276 275 273
289 288 290 290 291 293 293 294 294 290 287 288 288 287 285 285 281 278 277 279 278 275 275 277 278 280 280 284 280 279 277 277 272 277 276 272 272 263 261 261 262 262 261 262 264 266 267 267 266 269 269 269 266 265
287 288 289 290 292 293 293 294 293 292 291 287 285 282 280 279 273 272 270 272 272 275 276 277 276 278 279 281 279 278 273 273 277 274 273 273 264 261 258 258 258 258 259 260 261 262 262 261 260 260 262 261 262 260
286 286 288 288 290 291 292 292 292 292 285 282 278 273 275 273 275 275 276 277 277 278 277 280 277 279 279 278 277 274 273 274 271 269 270 266 259 257 257 256 255 255 255 257 257 258 258 258 257 256 257 258 259 258
285 284 286 287 289 290 292 292 293 286 283 278 278 271 273 267 266 266 267 273 273 281 280 278 278 278 276 275 275 272 269 269 271 270 265 261 257 256 255 254 253 253 253 255 255 256 255 256 255 254 254 256 256 256
283 282 282 286 288 287 291 288 282 280 271 270 266 269 267 270 268 270 272 272 274 279 280 280 276 274 273 274 271 270 270 268 266 261 259 259 255 254 253 253 253 253 253 254 254 255 254 253 253 253 254 254 255 255
280 277 284 284 284 284 282 279 274 267 266 266 262 263 262 267 265 265 269 269 273 278 274 275 271 271 275 270 265 260 261 258 259 257 257 255 254 253 252 253 251 252 252 253 253 253 253 254 255 256 254 254 255 254
276 279 283 283 281 278 271 270 269 266 261 262 262 260 261 261 264 262 264 265 272 274 274 270 272 264 260 263 258 256 256 257 258 257 256 255 255 253 253 253 253 253 253 252 253 253 254 255 255 254 254 255 255 255
279 279 281 280 277 272 269 265 266 260 260 262 263 263 262 260 260 259 260 262 261 261 262 259 253 252 251 252 253 253 254 254 254 256 256 255 254 253 254 253 254 253 252 253 255 255 255 254 256 257 257 258 257 257
279 279 278 277 275 271 265 262 267 263 260 260 262 261 260 259 260 258 256 257 256 254 249 249 248 249 250 251 252 253 254 254 254 256 256 256 256 255 254 255 254 255 255 256 256 257 257 256 256 257 257 257 258 256
273 273 273 270 265 263 261 261 260 261 262 260 261 262 259 259 255 254 253 255 251 249 248 249 250 251 252 253 253 253 253 253 253 253 253 254 255 256 255 256 256 256 256 256 256 256 255 255 255 255 256 256 256 256
268 271 265 266 264 262 261 261 261 261 260 259 260 259 256 254 253 252 254 250 248 249 249 249 249 250 251 251 251 252 252 253 253 255 255 254 254 254 254 254 255 254 254 254 255 255 255 255 255 255 255 255 255 255
265 265 261 258 259 258 257 263 259 259 258 258 258 255 254 253 254 255 249 249 249 251 251 250 251 251 251 253 253 252 252 253 253 253 253 253 254 254 254 253 254 254 254 253 254 254 254 254 255 254 255 255 255 255
260 253 252 251 252 252 258 255 257 257 257 255 254 251 251 252 254 250 246 248 250 251 250 250 251 253 253 253 252 251 251 254 254 253 252 254 253 252 253 253 253 252 252 254 254 254 254 254 254 254 254 253 254 254
250 244 248 245 250 250 250 250 250 253 250 252 251 251 250 253 248 246 246 247 249 249 250 250 251 251 250 251 251 252 253 252 252 251 251 254 254 254 253 252 252 252 252 251 251 251 251 251 252 252 252 252 252 251
241 245 245 244 245 246 247 246 246 246 249 248 248 251 251 248 245 243 245 247 248 249 249 249 249 250 250 251 250 250 251 252 253 251 251 252 252 251 251 250 250 251 253 252 251 249 250 251 250 249 250 250 251 250
242 242 247 249 246 247 246 246 246 244 242 242 244 247 246 242 242 245 249 250 250 251 252 251 251 250 249 250 251 252 253 252 252 252 252 252 251 251 250 248 248 250 252 252 251 251 251 250 250 251 250 250 250 251
245 244 242 245 244 244 242 242 241 240 241 243 245 241 241 241 242 247 249 252 252 252 251 251 251 250 250 249 249 250 250 250 252 252 252 252 251 251 249 249 250 254 250 251 251 251 250 251 251 251 250 248 248 249
245 245 245 242 243 243 241 242 242 243 244 242 243 243 243 246 248 249 250 251 252 250 248 247 247 248 248 248 247 247 247 247 246 242 242 244 245 247 248 248 248 248 249 249 251 252 252 251 252 250 249 247 247 247
243 244 243 243 241 242 244 243 244 245 245 245 248 247 247 247 249 251 250 249 248 247 246 245 243 244 242 243 243 244 244 244 244 244 242 243 244 246 245 246 246 247 248 247 247 247 249 248 248 246 246 245 245 245
244 246 244 244 244 245 245 246 248 248 248 247 247 246 245 246 248 250 249 246 245 243 243 243 243 241 241 242 240 240 242 243 240 241 241 242 243 244 244 246 247 247 247 245 245 245 245 244 244 244 243 243 242 243
244 240 242 242 245 246 246 245 245 246 246 245 245 244 244 244 242 245 248 244 243 242 243 240 239 243 242 242 242 242 243 243 243 245 243 245 245 245 246 247 248 248 245 246 245 245 244 242 242 242 242 241 241 241
242 243 241 241 241 242 242 241 243 242 243 241 242 241 241 242 241 245 248 245 245 243 243 243 244 244 242 242 243 243 244 243 242 248 248 249 249 250 250 250 248 244 243 244 244 244 242 242 241 241 241 241 241 241

GFSWCAN_sfc_thetae_048.txt.gz
Theta_e
295 295 295 295 295 295 295 295 295 295 296 297 298 299 299 299 299 300 296 300 293 286 289 289 291 288 287 287 287 284 285 284 283 283 284 284 284 283 282 283 279 280 279 279 282 280 279 280 280 283 283 281 284 284
294 294 294 295 295 295 295 295 295 295 296 296 297 298 299 299 297 300 292 298 297 289 288 290 291 291 292 291 287 285 285 285 287 285 284 284 280 281 282 278 281 281 284 283 284 283 280 280 281 284 284 283 282 284
293 293 293 294 294 294 294 294 294 295 295 296 296 297 298 298 299 297 295 292 291 285 286 285 283 289 291 291 293 285 285 287 285 286 285 284 281 283 279 280 278 280 281 282 282 281 280 281 285 283 283 282 281 282
292 292 292 293 293 293 293 294 294 295 295 295 296 296 297 298 298 298 294 293 292 287 283 280 287 285 290 291 290 290 289 287 286 285 284 283 281 282 280 280 279 279 281 279 276 278 280 282 283 285 284 282 281 281
291 292 292 292 292 293 293 293 294 294 294 295 295 296 296 298 298 297 296 295 295 288 282 279 281 283 287 289 289 289 288 285 285 283 283 281 281 280 278 279 279 278 279 279 279 281 283 283 286 286 285 282 280 280
291 291 291 291 292 292 292 293 293 294 294 294 295 295 296 297 297 293 285 292 296 295 283 276 282 282 282 286 287 288 287 285 285 284 281 281 281 281 278 278 280 280 281 283 281 283 284 284 285 284 282 281 281 280
290 291 291 291 291 291 292 292 292 293 293 294 294 295 295 296 294 287 285 291 297 295 284 277 276 282 282 281 280 283 284 284 285 281 280 279 278 282 278 274 280 279 280 279 282 281 278 279 279 282 282 281 280 278
290 290 290 290 290 291 291 291 292 292 292 293 293 294 295 295 295 289 293 296 296 286 285 279 275 278 282 279 275 280 280 281 282 280 278 277 278 280 274 280 279 279 279 279 279 280 279 279 278 278 277 276 274 276
289 289 289 290 290 290 290 291 291 292 292 292 293 294 291 289 285 286 296 296 295 287 281 276 271 273 282 281 279 277 280 274 279 275 277 277 274 271 273 276 274 272 275 276 277 276 275 276 276 275 274 272 273 274
288 289 289 289 289 290 290 291 291 291 292 292 290 285 281 286 294 295 289 285 284 284 284 279 274 273 281 279 277 276 276 271 266 273 278 270 267 271 269 268 268 268 268 270 274 274 272 272 274 274 273 274 274 274
288 288 288 289 290 290 291 292 291 291 291 286 283 281 285 294 287 284 280 280 280 278 281 278 273 275 280 273 272 278 270 271 268 268 268 264 264 268 266 265 265 265 265 265 266 268 269 269 270 271 271 269 268 268
288 287 289 289 289 290 291 292 292 289 286 286 287 288 286 283 282 277 277 280 278 274 274 273 275 275 276 279 273 272 269 273 265 271 266 263 266 261 260 260 260 260 258 260 261 262 263 263 262 263 262 261 261 261
287 288 287 287 289 290 291 293 294 293 291 286 283 281 280 278 274 273 270 272 271 274 275 273 274 275 274 278 272 276 265 266 275 266 264 261 262 258 256 256 256 256 256 257 258 258 259 258 257 256 257 257 257 256
286 286 285 286 288 289 291 293 294 292 285 279 274 273 273 272 274 273 274 275 274 275 276 278 276 276 273 271 275 270 272 269 267 261 262 257 254 252 254 253 251 252 253 254 254 255 255 255 254 254 254 255 254 254
284 284 284 285 287 288 290 293 293 286 280 277 278 271 272 268 266 263 266 271 274 280 279 276 276 276 272 274 274 271 268 266 264 262 256 255 254 253 252 251 250 251 251 252 252 252 253 253 252 252 252 252 252 253
283 282 280 285 286 286 289 290 282 278 270 270 264 267 267 268 268 267 271 273 278 280 278 278 275 274 273 272 270 269 268 262 257 252 255 255 252 250 249 250 251 250 249 249 249 250 251 251 250 249 249 251 251 252
280 274 283 284 284 283 283 278 273 267 266 265 261 262 262 265 262 261 265 265 269 274 270 276 271 270 274 269 261 255 253 253 255 255 255 253 251 250 249 249 248 248 248 247 247 248 248 249 249 251 251 251 252 252
274 278 282 282 281 278 270 270 268 266 261 262 259 260 258 257 259 259 260 262 265 272 268 264 266 259 255 259 253 254 255 256 256 255 254 254 251 249 249 248 248 248 248 249 248 248 249 250 252 251 250 250 251 250
277 278 280 280 278 271 267 265 266 260 259 261 263 263 261 258 258 257 257 259 259 258 259 256 250 250 249 250 251 251 252 253 253 255 254 253 253 250 250 249 249 248 248 247 248 249 249 249 250 252 252 252 251 251
278 278 278 277 276 270 263 262 268 263 259 260 262 259 258 257 257 257 254 255 255 252 247 246 246 247 248 250 251 251 253 253 253 254 254 255 255 252 252 250 250 250 251 251 252 253 253 252 254 254 254 254 253 251
271 271 272 269 265 264 261 262 260 262 262 259 261 261 258 258 253 253 252 253 249 248 247 248 247 248 250 251 252 251 252 252 252 253 252 253 255 254 252 251 251 252 253 253 252 252 251 249 249 249 250 249 249 250
265 271 263 265 264 263 261 262 261 262 260 259 259 258 255 252 251 250 253 249 247 248 248 248 248 248 249 249 250 250 251 252 253 254 255 254 251 250 251 252 252 251 251 251 251 249 248 248 248 248 247 247 249 249
264 264 259 257 258 257 256 263 259 259 258 257 257 254 253 251 252 255 248 249 248 251 250 249 249 250 250 251 252 251 252 253 252 252 253 253 252 252 251 251 250 249 248 249 249 248 248 251 249 248 248 249 248 248
259 251 250 249 250 249 257 254 257 257 256 254 253 250 250 251 253 249 245 246 249 250 250 250 251 251 252 252 251 250 251 253 252 251 252 252 250 249 248 247 247 246 245 247 247 246 247 246 249 248 247 246 246 247
247 243 245 242 248 248 249 249 250 252 250 252 251 249 250 252 247 245 245 245 248 248 249 250 251 250 249 250 251 251 252 251 250 248 249 249 247 247 246 246 246 246 245 245 245 243 244 243 244 243 244 243 243 244
240 245 242 242 244 244 245 244 245 246 248 247 248 251 250 247 244 242 244 246 247 248 248 248 248 248 248 249 248 249 250 251 248 245 246 246 245 243 241 242 242 243 248 244 243 242 243 244 242 243 243 243 245 243
240 241 247 248 245 245 244 245 245 243 241 242 244 246 246 242 241 244 248 250 249 249 250 250 249 248 247 247 247 247 248 249 245 245 245 243 243 242 243 241 241 243 245 244 243 242 242 243 245 245 246 243 241 242
245 244 241 244 243 242 239 240 239 239 240 242 244 241 241 240 241 245 248 251 249 249 247 245 244 242 241 241 240 241 240 243 244 245 246 246 243 242 241 241 242 252 246 244 245 246 243 244 245 247 246 245 245 243
244 245 245 242 242 242 241 241 240 242 243 239 239 240 241 245 245 246 248 250 247 245 240 238 240 239 239 239 238 238 238 239 240 239 237 238 239 241 241 241 241 243 243 240 248 251 250 250 250 248 246 243 245 244
243 245 242 243 240 240 243 243 242 243 244 243 245 246 245 245 245 246 242 240 240 238 237 236 236 235 236 235 237 239 236 236 238 238 236 237 238 240 241 241 242 242 242 239 244 244 248 247 245 240 241 241 242 242
242 243 241 243 242 242 243 244 241 244 240 240 240 240 238 241 242 242 241 238 236 235 236 236 236 234 235 236 234 234 238 237 236 237 237 238 239 239 240 242 243 242 241 241 240 240 243 243 242 240 240 240 240 241
239 236 239 240 241 242 241 238 238 239 239 238 239 237 238 237 237 238 242 238 236 237 238 236 234 238 237 237 236 237 242 241 240 241 240 242 242 242 244 244 245 245 244 244 242 242 242 240 241 241 241 240 240 240
237 237 236 236 238 237 236 237 237 237 237 235 236 235 235 238 239 242 243 240 240 240 239 239 239 238 238 239 239 239 242 240 239 247 250 249 249 249 249 247 247 246 244 243 242 242 241 241 241 241 240 240 240 240

GFSWCAN_sfc_thetae_051.txt.gz
Theta_e
295 295 295 296 296 296 296 296 296 296 296 296 296 297 298 299 300 296 291 298 293 286 288 288 289 285 287 287 287 285 286 285 284 283 284 284 284 284 282 282 280 281 280 280 282 281 279 285 282 284 285 282 283 283
294 294 294 295 295 295 295 296 295 295 295 296 296 296 297 298 299 298 288 294 298 288 287 291 291 291 294 292 288 286 286 285 288 286 285 285 282 282 282 279 282 281 284 281 284 284 281 282 283 284 284 282 282 284
293 293 294 294 294 294 295 295 295 295 295 295 296 296 296 296 298 298 288 291 293 286 285 285 282 287 291 292 294 286 286 288 286 287 286 285 282 283 281 280 278 281 282 284 284 284 281 281 285 283 282 281 281 283
292 292 292 293 293 293 294 294 294 294 294 295 295 296 296 296 297 298 291 293 291 286 282 281 285 284 289 290 291 291 289 288 287 286 284 283 282 283 282 281 283 282 283 281 280 279 281 283 283 285 284 281 281 281
291 291 291 292 292 293 293 293 293 294 294 294 295 295 295 296 296 295 295 294 294 287 278 279 279 282 286 290 289 290 289 285 284 282 282 281 282 281 279 280 279 279 280 281 281 283 285 284 285 285 285 282 281 280
290 290 291 292 292 292 292 292 293 293 293 294 294 295 295 296 296 291 285 293 294 293 282 274 281 279 281 287 288 288 286 285 285 284 282 282 281 281 278 278 281 281 282 284 284 283 284 281 285 285 283 281 280 280
290 290 290 291 291 291 291 292 292 292 293 293 294 294 295 295 291 286 283 290 295 294 283 274 274 281 282 282 283 284 285 284 285 282 281 280 279 281 279 275 281 281 281 280 282 282 281 279 279 283 282 281 280 278
289 289 290 290 291 291 291 291 292 292 292 292 293 293 294 295 293 288 292 295 295 286 284 277 274 277 283 279 278 282 281 282 282 280 278 277 279 280 276 278 277 277 278 279 279 279 279 279 278 277 277 276 275 276
288 289 289 290 290 290 290 291 291 291 291 292 292 293 288 285 283 286 294 296 292 286 280 275 272 270 281 279 278 279 281 272 279 276 277 276 271 270 272 274 271 269 271 272 275 276 276 276 276 275 274 274 273 273
288 289 289 289 290 290 290 290 290 290 291 291 286 275 269 282 293 293 283 283 284 282 282 277 268 270 279 277 275 273 273 268 268 271 277 269 263 269 267 266 266 266 266 267 270 270 269 269 272 272 271 271 272 272
288 288 288 289 289 289 290 290 290 291 290 283 281 276 280 292 282 279 278 278 278 277 281 279 273 275 280 270 271 277 268 264 261 267 267 261 261 266 265 263 263 263 264 262 264 266 266 266 267 268 266 264 265 264
287 287 288 288 288 288 289 290 291 288 285 282 280 286 286 282 277 273 274 271 277 275 274 273 274 277 277 280 275 273 267 269 261 262 264 261 264 259 258 258 258 258 257 258 259 260 261 261 260 261 259 259 258 259
286 286 288 288 286 287 288 290 290 291 290 285 281 278 278 270 272 267 264 266 271 275 275 276 275 276 277 279 274 275 268 268 270 263 263 259 260 257 254 255 255 255 256 256 256 257 257 256 256 255 255 255 255 255
286 286 286 285 286 287 288 289 289 290 285 274 271 271 269 268 266 273 263 267 270 276 273 278 274 274 275 274 274 270 269 269 264 262 261 255 254 251 252 252 250 251 252 253 253 254 254 254 253 253 252 252 252 252
285 285 283 283 286 286 287 288 290 287 280 272 274 270 263 259 257 264 267 269 268 278 279 274 272 276 270 274 273 269 265 261 262 261 253 254 253 251 251 250 249 250 251 251 250 251 252 252 252 251 250 250 251 252
284 282 279 284 285 286 285 283 279 274 267 263 262 263 266 262 259 260 266 271 268 279 280 278 275 273 272 272 270 266 265 261 254 249 252 253 251 250 248 248 249 249 249 249 249 249 252 252 251 248 250 250 251 251
280 272 282 283 284 282 281 274 272 266 263 259 257 256 258 262 259 260 262 260 264 270 274 276 272 270 273 265 257 253 249 250 251 252 252 252 251 249 246 246 247 248 250 249 248 250 249 247 248 252 251 247 248 248
270 276 281 282 281 276 270 269 264 260 256 257 254 255 257 256 255 255 256 259 261 265 265 260 262 254 252 253 250 252 253 254 254 253 253 252 251 247 247 248 248 248 249 249 248 247 248 249 252 250 247 246 248 247
273 277 280 280 277 270 266 265 266 256 256 261 262 261 259 257 257 256 255 257 257 256 255 252 248 247 247 249 249 250 252 253 253 253 253 253 253 250 250 250 250 250 250 248 248 249 248 248 248 249 249 249 249 248
277 278 277 276 275 267 263 262 268 261 256 259 260 258 257 255 255 255 252 253 253 250 246 245 244 246 248 249 251 252 252 253 254 253 252 254 254 254 253 253 253 253 252 251 252 251 249 249 251 250 248 249 248 248
269 270 271 267 265 264 261 261 261 262 260 258 260 259 257 256 252 251 250 252 248 247 246 247 247 249 251 251 251 251 251 253 252 251 252 252 254 254 254 253 252 251 251 250 249 248 249 247 248 248 247 247 247 247
263 270 260 263 263 262 260 261 261 262 260 259 258 257 253 251 250 249 252 247 246 247 248 248 247 248 249 249 249 250 251 253 253 254 254 254 251 251 250 250 249 249 249 248 247 246 247 249 248 246 246 246 246 246
263 262 258 256 257 257 254 262 258 259 256 256 256 253 252 250 252 254 247 248 248 250 250 250 250 251 251 251 251 251 252 251 251 251 252 251 251 251 250 249 247 244 246 248 247 247 246 248 247 246 246 246 245 246
258 250 248 248 249 249 255 252 256 256 256 253 252 250 250 250 252 248 244 245 248 250 249 250 251 250 250 250 249 249 250 251 250 250 251 251 249 248 248 244 244 244 243 243 243 242 244 244 246 246 244 241 241 242
246 242 244 240 246 248 248 248 248 251 249 251 250 249 249 251 246 245 244 244 247 247 248 249 250 249 248 248 249 249 250 250 249 248 248 249 249 247 246 247 246 244 242 244 243 241 240 241 243 242 243 240 241 241
238 242 240 241 242 244 244 243 244 244 247 247 248 250 249 247 244 242 244 246 247 247 247 247 247 247 247 248 247 247 248 249 248 248 246 244 244 244 241 241 240 243 244 239 240 239 239 241 240 241 242 243 245 241
239 240 245 247 244 244 244 244 244 243 241 242 243 246 246 242 241 244 248 250 249 248 248 248 248 247 246 245 246 245 245 245 245 245 245 244 244 242 242 240 240 242 241 239 239 238 239 239 241 242 243 242 239 240
244 244 240 244 242 242 241 241 241 240 241 243 244 241 241 241 242 246 249 250 249 249 247 245 244 244 245 243 239 239 239 240 242 246 246 244 239 239 238 238 239 251 243 242 243 245 241 241 242 244 243 243 244 243
245 246 245 241 239 241 241 241 241 243 244 241 242 241 242 245 245 246 248 248 245 245 243 243 243 238 237 236 235 234 235 236 240 238 237 237 237 241 238 240 240 240 239 237 246 250 250 250 249 247 243 242 244 243
243 244 242 241 239 240 242 242 242 244 245 244 245 246 244 244 245 245 243 241 241 239 237 235 233 234 235 235 236 238 234 233 236 239 237 236 238 238 238 239 240 240 240 236 242 243 246 244 243 238 239 240 241 241
242 242 241 241 241 240 241 243 239 238 238 239 238 239 238 238 240 239 239 235 233 233 235 236 235 231 234 235 233 234 238 236 234 236 235 236 237 237 238 240 241 240 238 239 240 240 242 242 241 240 240 240 240 241
238 234 238 240 240 241 238 236 234 234 236 237 236 234 237 238 237 239 240 236 235 237 238 234 234 238 237 236 235 236 241 240 239 240 239 240 240 241 242 242 242 240 241 243 243 242 242 241 241 241 241 241 241 240
234 234 233 234 237 237 236 236 236 236 236 234 235 232 232 237 240 242 242 238 240 240 238 237 239 237 238 238 239 238 241 239 239 246 249 250 249 249 248 247 244 244 246 244 244 243 242 241 241 241 241 241 241 241

GFSWCAN_sfc_thetae_054.txt.gz
Theta_e
295 295 295 295 296 296 296 297 297 297 297 297 297 297 297 297 298 296 292 294 288 285 287 290 290 284 285 283 277 279 286 285 285 284 284 284 282 284 282 283 281 283 282 282 284 282 280 285 282 285 286 281 282 282
294 294 294 295 295 295 296 296 296 297 297 296 296 296 296 297 297 297 289 294 294 285 285 291 291 291 290 289 284 284 285 280 287 285 284 285 283 284 282 280 283 282 286 282 284 285 284 284 284 284 284 282 283 284
293 293 294 294 295 295 295 295 296 296 296 296 296 296 296 296 297 296 292 292 289 284 284 285 286 288 290 291 293 282 285 289 287 288 286 286 283 281 280 282 278 282 283 283 285 285 284 282 283 284 284 282 282 284
292 292 293 293 294 294 294 295 295 295 295 295 295 295 295 296 296 296 291 292 290 285 281 284 286 284 288 291 290 291 289 288 288 287 285 284 281 283 278 281 283 282 284 282 283 283 283 285 284 286 282 282 281 281
291 292 292 292 292 293 293 294 294 294 294 294 295 295 295 296 296 294 290 293 293 286 280 280 282 284 286 289 288 289 290 286 285 283 282 281 280 278 274 279 279 280 282 284 282 285 287 286 286 285 283 282 281 281
291 291 291 291 291 292 292 293 293 293 293 294 294 294 295 295 295 287 283 289 294 292 282 275 282 281 283 289 289 288 288 286 285 284 282 282 282 281 277 275 282 282 283 285 285 285 284 283 284 286 286 283 281 281
290 290 290 290 291 291 292 292 292 293 293 293 294 294 295 295 289 284 278 286 295 293 283 276 274 281 283 284 285 285 285 284 284 283 280 279 279 282 280 278 280 280 281 280 282 283 281 279 281 284 283 282 280 278
290 290 290 290 290 291 292 292 292 292 293 293 293 294 294 294 292 286 290 295 295 287 284 276 274 277 283 279 279 283 281 283 282 281 278 276 279 280 277 279 276 275 278 277 277 279 280 279 279 278 278 277 277 276
289 289 289 289 290 291 291 291 291 292 292 292 292 292 289 284 282 284 293 295 292 285 279 275 271 271 281 280 279 279 282 276 280 276 277 276 274 275 272 272 270 268 270 271 275 276 276 276 275 275 275 274 274 273
289 289 289 289 289 290 291 291 291 291 291 291 287 280 277 278 290 291 286 283 284 283 282 275 276 272 279 277 275 274 275 273 266 272 278 275 267 268 265 264 264 264 265 266 270 270 269 269 271 270 268 269 270 270
289 289 288 288 289 290 290 290 290 290 289 284 276 276 279 289 281 276 276 277 276 276 279 275 275 275 281 272 271 277 270 270 267 267 270 264 265 267 264 261 261 262 263 262 264 265 265 265 267 267 265 263 264 263
288 288 288 288 289 289 289 290 290 285 279 280 280 284 282 276 278 274 267 269 275 272 275 271 272 279 279 280 276 274 273 270 267 263 264 262 265 259 258 258 257 258 257 258 259 260 260 261 261 261 259 259 258 259
287 287 287 288 288 287 287 287 289 290 289 284 278 275 270 270 269 269 263 261 264 269 272 269 275 277 278 280 276 275 271 268 270 265 264 260 258 255 254 254 255 255 256 256 256 257 256 256 255 255 255 255 255 255
286 286 288 288 286 285 285 286 287 288 284 278 273 265 266 270 264 265 262 262 266 268 272 277 272 276 276 274 276 271 272 272 264 264 263 254 253 252 253 251 249 251 252 254 253 254 254 254 253 252 252 252 252 252
286 287 285 284 284 285 285 287 287 286 281 275 270 264 264 260 258 256 260 263 268 269 277 273 275 277 273 273 274 271 266 265 264 262 252 253 252 252 251 250 249 250 251 251 250 251 252 251 251 250 249 250 251 252
286 282 278 284 284 284 284 282 279 275 268 268 263 267 261 259 259 260 260 265 264 266 277 274 275 273 271 272 269 266 265 263 255 246 251 252 250 250 249 250 250 250 248 248 248 249 251 251 250 248 249 250 250 250
280 270 281 283 283 282 280 275 271 266 265 262 256 255 254 255 255 253 255 257 260 260 275 276 271 270 270 261 257 252 254 251 247 250 251 251 251 250 250 250 250 250 250 249 249 249 248 246 248 251 250 247 247 247
268 275 281 282 279 274 270 269 265 261 258 259 255 251 254 252 253 254 254 256 257 260 261 258 261 254 252 253 250 250 251 251 252 252 252 251 251 250 250 249 248 248 248 248 248 248 249 250 251 249 247 245 248 249
272 276 279 280 276 267 266 265 264 258 256 256 258 258 256 254 255 254 254 255 256 255 254 251 247 245 245 248 248 249 251 253 252 252 252 253 253 251 251 250 250 250 250 248 250 249 250 249 249 250 249 250 249 247
278 277 277 276 274 265 262 262 265 258 254 256 255 254 255 253 254 254 252 252 252 249 246 245 244 246 248 249 250 251 252 255 253 252 252 253 254 253 253 253 253 252 252 251 251 251 250 251 250 249 247 247 247 246
268 269 270 267 264 263 261 260 260 259 258 257 260 257 254 254 251 250 249 251 248 246 245 247 247 249 250 250 251 252 252 254 253 253 252 251 253 253 252 252 252 251 250 248 249 248 249 247 246 245 244 244 243 244
261 268 259 262 263 261 260 260 259 260 258 258 257 255 251 250 249 249 251 247 246 247 248 248 248 249 249 249 250 252 253 254 254 254 254 253 251 251 250 250 250 248 248 246 245 245 245 246 246 245 245 244 245 244
262 261 256 254 256 256 254 261 258 258 255 255 255 251 250 249 250 253 247 247 247 250 250 250 251 251 250 251 251 251 252 252 251 251 251 250 250 249 249 248 247 246 246 245 242 243 243 246 245 245 244 244 243 243
257 249 247 247 248 247 252 251 254 255 255 252 251 248 249 249 252 247 243 245 247 249 249 250 251 250 250 250 248 248 250 251 250 250 250 250 248 247 247 245 243 242 241 241 241 241 242 241 245 244 243 240 240 240
246 241 243 240 246 246 246 246 247 250 248 250 247 248 248 251 246 244 244 245 247 247 248 249 249 249 248 248 248 248 249 249 249 247 247 249 247 247 246 245 244 243 243 243 242 240 239 239 240 240 241 239 240 241
238 241 239 240 242 243 243 242 242 243 246 246 247 249 249 247 244 242 244 246 246 247 247 247 247 247 246 247 246 246 246 246 246 245 243 243 245 244 243 244 243 244 241 239 239 239 238 239 238 239 240 241 242 239
238 239 243 246 244 244 243 244 244 243 241 241 242 247 246 242 241 244 248 249 248 247 248 247 248 247 246 246 246 244 241 239 241 243 240 241 242 240 241 240 240 241 239 237 236 237 238 237 238 239 241 240 238 240
243 244 240 243 242 244 242 242 241 240 241 243 244 242 242 242 242 247 249 249 248 247 246 244 244 245 244 241 238 238 239 239 244 244 242 241 239 238 236 237 238 249 241 240 241 242 239 239 240 242 242 242 243 242
245 245 245 241 241 243 242 242 241 243 244 242 243 242 242 245 245 247 248 248 248 247 245 243 243 240 240 237 236 234 234 238 241 240 239 238 237 240 237 237 237 238 238 235 245 250 249 249 248 245 242 241 243 243
244 243 243 241 240 241 243 243 243 244 246 245 246 247 245 245 246 246 246 245 245 243 240 238 237 239 237 236 236 238 235 233 236 239 238 237 239 238 235 237 238 239 238 234 241 242 246 243 242 239 240 241 241 241
242 241 241 240 241 240 241 242 241 241 241 242 241 242 240 239 243 242 243 239 239 236 238 238 236 232 235 236 234 235 238 236 233 235 235 235 235 236 237 239 240 238 237 237 238 239 241 242 241 240 241 240 241 241
239 235 237 239 240 239 236 235 233 238 239 241 239 237 239 240 240 242 242 239 237 239 241 236 234 239 237 236 234 235 241 238 238 240 239 240 239 239 240 241 241 239 239 241 242 242 242 241 241 242 242 241 241 241
233 233 231 234 237 237 235 235 236 236 236 234 235 231 231 236 240 242 241 237 240 240 238 239 239 238 238 238 239 238 241 239 238 246 249 249 249 249 248 247 244 244 243 244 245 244 242 242 242 242 242 242 242 242

GFSWCAN_sfc_thetae_057.txt.gz
Theta_e
296 297 297 297 297 297 297 297 297 297 298 298 298 298 298 298 298 294 293 295 287 284 286 289 289 286 285 285 281 279 281 283 285 282 282 283 282 284 282 281 280 283 283 284 285 283 281 284 284 286 287 283 282 282
296 296 296 296 296 296 296 296 296 296 297 298 298 298 297 297 297 297 289 294 294 284 285 290 291 292 292 289 286 282 279 280 282 278 283 284 284 283 279 277 283 281 285 282 285 285 291 286 288 287 285 284 284 284
295 295 295 295 295 295 295 296 296 296 297 297 297 297 297 297 297 295 288 292 288 284 284 285 285 289 289 291 295 285 283 286 285 289 286 286 283 284 281 282 277 281 284 283 285 286 285 284 283 284 283 283 282 284
294 294 293 293 293 294 294 295 295 296 296 297 297 297 297 296 296 296 289 292 290 285 280 280 287 284 287 290 291 292 288 289 287 287 285 284 282 285 277 279 277 280 282 281 282 284 284 284 283 285 283 282 282 283
293 292 292 292 293 294 294 295 295 295 295 296 296 296 296 296 296 292 289 291 293 285 279 279 281 284 285 288 289 288 289 287 286 284 283 281 284 282 276 279 279 281 282 283 281 283 285 285 285 285 282 282 282 282
292 292 292 292 293 293 293 293 294 294 294 295 295 295 295 295 295 287 279 286 292 289 282 274 280 278 283 287 288 288 290 288 286 285 283 284 281 282 277 276 280 281 282 284 286 284 282 283 284 286 283 283 282 281
291 291 291 292 292 292 292 292 293 293 293 294 294 294 294 295 289 284 277 283 294 292 282 274 275 278 283 285 285 286 287 285 286 284 282 281 279 283 279 272 280 278 280 281 283 284 283 281 282 285 286 283 281 279
291 291 291 291 291 291 291 291 292 293 293 293 293 294 294 294 293 287 289 293 294 286 283 269 271 273 283 280 279 284 282 283 283 282 279 275 279 280 276 279 275 274 276 277 277 279 281 281 280 279 279 278 278 276
290 290 290 290 290 290 291 292 292 293 293 293 293 293 290 287 282 281 293 294 289 284 277 272 269 266 281 278 279 280 282 277 281 277 276 278 275 275 274 273 270 267 269 270 272 275 276 276 275 275 275 276 275 274
290 290 290 290 290 290 291 292 292 292 292 292 288 282 278 280 289 291 285 277 282 282 281 275 274 269 278 276 273 275 278 276 272 273 278 275 269 268 265 263 264 264 265 265 269 270 269 270 271 270 269 270 271 270
289 290 289 289 289 289 291 291 291 291 291 285 277 273 281 289 280 271 270 274 266 271 277 272 275 274 280 268 270 277 274 274 270 272 272 265 264 269 264 261 261 262 263 262 264 265 266 266 268 268 266 264 264 264
289 289 289 289 289 289 290 291 291 286 281 283 280 283 281 271 270 273 268 265 266 266 274 272 273 277 279 279 276 274 273 272 269 268 268 263 268 260 260 259 258 258 257 258 259 260 260 260 260 260 259 259 258 259
288 288 288 289 289 289 290 290 290 289 287 281 275 272 274 268 266 262 265 265 260 262 273 272 275 277 278 280 277 275 271 269 270 269 266 265 258 256 255 256 255 255 256 257 257 257 257 257 255 255 255 255 255 255
288 288 288 288 289 288 288 288 289 289 284 273 269 268 266 262 263 261 261 261 264 264 270 269 270 276 277 276 276 271 272 270 267 264 264 253 252 251 253 252 250 252 253 255 255 256 255 255 253 252 252 252 253 252
289 288 286 286 285 285 285 286 287 285 279 275 270 263 262 260 257 256 255 259 264 264 267 274 274 275 270 272 274 270 267 267 267 264 251 252 252 252 252 251 251 252 252 252 252 253 253 252 252 251 250 250 252 252
285 283 281 284 284 286 286 282 278 272 265 267 263 265 256 257 253 255 255 256 260 261 266 271 270 273 272 272 267 267 267 264 259 247 250 252 250 251 251 251 251 251 251 251 250 250 251 250 250 247 249 249 250 251
280 270 282 283 284 283 282 272 270 265 262 257 252 255 252 251 251 249 250 254 258 260 271 270 265 271 270 263 259 251 250 247 247 249 251 251 251 251 251 251 251 251 251 251 250 250 249 247 249 252 250 248 249 248
269 275 281 281 278 275 268 269 264 262 257 255 251 248 251 252 250 250 251 255 256 258 260 257 260 258 256 259 253 251 249 249 252 251 251 251 250 251 251 251 251 251 251 251 250 251 251 252 251 250 249 247 250 250
273 275 279 281 275 268 265 265 265 258 256 254 256 256 253 251 253 253 252 255 255 254 253 251 248 246 245 248 247 250 252 252 251 252 252 252 252 252 252 253 252 251 251 251 251 250 250 250 250 251 250 250 249 247
278 277 277 277 273 265 262 262 266 261 257 257 256 254 253 251 251 251 251 252 252 249 246 244 244 245 247 249 250 252 253 254 253 251 252 253 254 253 253 253 253 252 252 252 251 252 252 251 250 249 247 248 248 246
268 268 270 267 263 262 261 261 261 261 259 257 257 256 253 253 250 249 249 251 248 246 245 247 247 247 249 249 251 252 254 256 254 254 252 251 253 253 252 252 252 252 250 250 250 249 249 247 247 245 245 244 242 243
260 267 259 261 262 259 259 260 261 261 258 256 255 253 249 247 247 248 251 247 246 247 248 248 249 249 249 249 250 252 254 254 254 254 254 253 252 251 250 251 251 248 247 247 247 246 244 244 244 244 244 241 244 244
261 260 255 253 254 253 252 259 257 257 254 253 254 251 249 247 249 252 246 246 247 250 249 250 250 251 250 251 251 251 252 252 251 250 250 249 249 249 249 248 249 248 247 245 243 243 242 246 245 244 243 243 242 243
257 248 246 245 246 246 250 250 253 254 254 251 250 247 248 249 251 247 243 245 247 249 249 249 250 250 250 250 248 248 249 251 250 250 250 249 247 246 246 246 245 244 244 243 243 244 243 241 244 243 243 240 239 239
246 240 242 238 244 244 245 245 246 249 247 249 247 247 248 250 245 244 244 245 247 247 248 249 249 249 248 248 248 248 248 249 249 247 247 248 246 244 244 243 242 242 241 243 240 239 238 238 239 239 239 238 238 238
237 240 238 239 241 241 242 242 242 242 246 245 245 248 247 246 244 241 244 246 246 246 246 246 247 247 246 247 247 247 246 246 248 247 245 241 242 240 239 240 241 242 239 237 238 238 238 238 237 237 238 239 241 238
237 238 242 245 243 244 243 244 244 243 241 241 242 245 246 241 240 243 248 249 248 247 247 247 248 248 247 246 247 245 244 242 242 242 238 238 238 238 240 240 240 241 238 236 236 236 237 237 237 238 238 239 237 238
243 243 239 242 242 244 241 242 241 240 241 242 243 240 239 239 241 246 248 249 247 247 246 245 245 246 246 244 242 242 240 239 241 240 240 240 237 237 236 236 237 250 240 239 240 240 237 238 239 240 241 242 243 239
243 244 244 241 243 243 242 242 241 243 244 242 242 240 239 242 243 246 248 248 248 248 246 246 245 243 244 242 239 233 234 239 241 240 238 239 238 242 237 236 236 237 237 235 244 250 248 246 246 246 244 243 243 241
243 244 244 242 242 242 243 243 243 244 246 245 246 246 245 245 246 247 247 247 247 246 243 242 240 242 241 241 240 239 234 233 236 240 239 240 240 238 234 235 237 238 237 233 240 241 245 243 242 238 240 241 241 242
243 244 244 243 242 243 242 241 243 245 244 244 244 244 243 242 246 245 244 240 238 236 237 238 237 233 235 236 235 236 240 237 236 238 236 235 235 235 237 239 239 237 236 236 237 237 240 240 240 240 240 240 241 242
240 234 237 240 240 240 238 239 238 240 240 241 239 237 238 240 240 241 239 236 236 237 238 236 235 239 239 239 236 236 242 238 238 240 239 240 239 239 240 240 240 238 238 240 240 240 241 240 241 241 242 242 242 242
232 232 231 234 237 237 236 235 237 237 236 235 235 231 231 236 240 242 241 238 240 241 239 240 240 238 238 239 239 239 241 239 239 246 249 248 248 248 248 246 243 242 242 243 243 243 242 242 242 242 242 242 243 243

GFSWCAN_sfc_thetae_060.txt.gz
Theta_e
297 297 297 297 298 298 298 299 298 298 298 298 298 298 299 299 299 295 290 295 289 284 284 287 289 285 282 281 280 278 283 283 284 281 280 279 280 281 281 283 282 283 283 283 284 282 281 284 283 285 287 283 283 283
296 297 296 296 297 297 298 298 298 298 297 297 298 298 299 299 299 297 287 294 294 285 284 288 290 292 292 289 286 277 278 276 285 275 281 281 281 281 278 277 282 280 287 284 286 285 289 286 285 287 286 287 285 285
296 295 295 296 296 297 298 297 297 297 297 297 297 298 298 298 298 295 287 290 290 284 283 284 282 287 290 292 295 285 286 286 284 285 285 283 280 280 278 280 280 283 284 282 282 285 287 286 285 283 283 284 283 284
293 293 294 295 296 297 296 296 296 296 296 296 297 297 298 298 298 297 287 291 287 284 276 278 287 285 287 288 290 291 288 289 288 287 284 280 280 284 279 282 282 283 284 282 282 284 285 285 283 283 284 282 282 282
292 292 294 293 296 295 295 295 295 295 296 296 296 297 297 297 297 294 289 290 291 282 274 276 281 284 284 287 287 289 288 287 285 283 283 280 278 278 273 278 281 282 282 281 281 285 285 285 283 284 283 282 282 281
291 292 293 294 294 293 293 294 294 294 295 295 296 296 297 297 297 289 282 285 291 289 281 275 281 279 279 284 286 287 288 288 287 284 282 283 283 280 274 269 280 282 282 284 283 283 282 283 283 283 282 281 281 281
291 292 293 293 292 292 293 293 294 295 295 295 296 296 296 296 291 284 277 283 293 291 278 274 272 276 280 285 285 286 287 287 286 284 283 280 279 283 274 276 281 279 280 281 281 283 284 282 284 284 285 284 282 280
291 292 292 292 292 292 292 293 293 294 294 294 294 295 295 295 292 287 288 293 293 286 282 274 267 274 283 279 281 285 283 284 283 284 281 280 280 281 276 279 276 275 276 276 275 278 280 280 279 279 279 280 280 277
291 292 291 291 291 292 292 292 292 293 293 294 294 294 289 287 282 280 293 294 291 285 277 273 264 264 279 279 279 281 283 277 281 279 278 279 277 276 278 278 274 272 273 272 271 273 275 277 276 275 276 276 275 274
289 291 291 291 290 290 291 291 291 292 293 293 288 281 278 277 290 291 286 281 282 282 281 269 273 273 278 277 276 272 275 275 269 275 279 276 274 272 269 266 266 266 266 266 268 270 274 275 274 272 271 272 273 272
289 290 290 290 290 290 290 291 292 293 292 284 279 278 282 290 283 279 275 274 273 272 270 269 274 270 278 272 274 278 272 271 267 271 273 271 270 272 264 262 262 263 264 263 265 267 267 269 269 268 265 265 266 266
289 290 290 290 289 289 290 291 292 287 283 284 282 282 281 277 275 272 268 266 271 267 265 272 271 272 278 277 277 275 272 270 265 267 271 267 268 260 260 259 258 258 257 258 259 261 261 262 262 262 260 260 259 260
289 289 289 289 289 289 290 291 291 290 288 283 276 272 274 269 266 266 263 262 261 259 266 273 272 278 278 279 275 274 270 268 270 267 265 266 258 255 255 256 256 255 257 257 257 258 258 259 257 258 257 257 256 255
288 288 288 288 288 289 290 291 292 289 280 272 269 266 265 261 259 259 259 261 264 267 262 267 273 272 278 275 276 271 271 269 267 266 263 254 252 252 253 253 254 253 255 256 256 257 257 256 255 255 255 255 255 254
288 288 288 288 288 288 289 289 288 282 278 271 267 262 261 257 254 251 251 256 256 257 266 272 269 276 271 274 275 271 267 266 266 264 253 252 252 253 253 253 253 253 254 255 256 256 255 255 254 253 253 253 253 253
284 283 282 286 287 288 286 280 275 273 268 268 262 261 252 256 252 251 252 253 257 259 265 269 267 266 268 270 265 268 268 267 261 248 250 252 251 251 251 252 252 253 253 253 253 254 254 253 252 252 252 252 251 252
281 273 283 286 285 282 281 269 268 263 261 260 249 252 255 250 248 246 252 254 257 258 268 266 270 264 263 264 262 250 250 245 245 248 250 251 251 251 252 251 252 252 252 253 253 253 252 254 254 253 251 251 252 252
270 275 281 284 277 273 264 266 264 261 255 254 249 247 249 251 252 251 250 254 255 257 258 258 259 259 252 255 256 251 249 248 248 251 251 251 251 252 252 252 252 252 252 252 252 252 253 253 252 251 251 251 252 252
273 276 281 282 273 265 261 261 264 256 252 251 254 254 251 250 252 252 252 254 254 254 254 254 251 248 246 247 248 250 252 252 251 252 252 252 252 252 252 253 253 252 252 252 252 251 251 250 251 252 252 253 251 251
277 277 277 277 273 264 259 260 264 257 251 253 254 252 252 251 252 249 250 252 252 250 246 245 243 245 247 248 249 249 252 253 252 251 252 253 253 253 253 253 252 253 252 252 253 253 253 252 251 252 252 253 252 250
268 268 270 267 263 262 259 260 260 259 256 253 255 255 253 252 249 246 246 251 248 246 245 244 245 246 249 249 251 252 254 255 254 253 252 251 253 252 252 252 252 252 252 251 250 250 250 249 249 250 249 248 248 247
260 267 257 260 260 257 257 258 259 261 256 253 254 253 250 249 248 247 249 246 245 244 246 246 247 248 249 249 250 252 253 254 254 253 254 253 251 251 250 251 251 249 248 248 249 248 248 248 248 248 248 244 245 244
260 259 254 252 252 251 251 257 254 256 254 253 253 250 249 247 249 252 246 245 245 248 247 247 248 250 250 250 251 251 252 252 250 250 250 249 249 249 249 249 250 249 247 247 248 247 247 248 247 246 244 244 242 242
256 248 245 244 246 244 249 249 253 254 253 251 250 248 247 246 250 246 241 240 246 248 248 248 250 250 250 249 248 247 249 251 250 249 250 249 247 246 247 246 246 246 246 246 246 246 245 242 244 243 242 239 238 239
247 240 242 238 244 243 244 245 246 250 247 249 248 247 246 248 245 243 243 243 245 246 247 249 249 249 248 248 248 248 248 250 249 247 247 248 247 246 246 245 244 243 243 242 239 238 238 237 238 238 239 237 238 238
237 239 238 237 240 240 242 242 243 243 246 246 245 247 247 247 244 242 244 245 246 246 246 247 248 248 246 247 248 247 246 246 249 248 247 247 247 247 246 245 242 242 237 236 237 237 237 238 236 237 238 238 240 237
237 236 241 243 242 243 243 244 245 244 242 242 242 245 246 243 242 244 247 249 248 247 247 247 249 249 247 247 246 246 245 245 247 246 244 244 243 243 244 242 241 241 237 236 236 236 237 237 237 238 238 238 237 238
240 240 239 241 241 242 241 241 241 240 241 243 243 241 241 241 242 245 247 248 247 247 246 246 246 247 246 246 245 246 245 244 244 243 244 243 238 237 236 236 237 248 240 238 239 238 235 236 237 239 240 241 243 239
242 243 243 241 242 243 242 241 241 243 244 242 242 241 241 243 243 245 247 249 249 248 247 246 245 245 245 244 244 243 243 245 246 245 242 242 242 242 236 235 235 236 236 234 243 249 247 244 244 245 244 243 244 242
243 243 243 242 242 242 242 242 242 244 245 245 246 246 245 244 245 247 247 247 248 246 245 245 244 246 245 245 245 245 242 240 240 241 240 240 241 238 235 235 237 237 236 233 239 240 244 242 241 239 241 241 241 242
244 244 244 244 243 243 243 242 242 244 245 244 245 244 242 243 246 246 246 244 243 243 243 243 243 240 240 240 237 238 240 236 234 236 235 235 235 235 236 238 239 236 234 235 236 235 239 239 239 239 240 240 241 242
242 239 243 245 244 242 241 241 241 241 242 242 241 241 241 243 243 245 243 238 236 237 241 239 238 240 239 238 235 235 242 237 237 240 238 240 239 239 239 240 239 237 237 240 240 240 240 239 240 241 242 242 242 242
231 231 232 239 240 240 238 237 238 238 238 236 237 233 233 237 242 243 241 239 241 242 241 240 240 237 238 238 239 238 241 238 239 246 249 248 247 247 246 245 243 242 242 242 243 243 242 242 242 242 242 242 243 243

GFSWCAN_sfc_thetae_063.txt.gz
Theta_e
292 293 294 295 296 298 299 298 299 300 299 300 300 300 300 300 300 296 292 294 289 283 281 284 285 281 278 279 277 275 277 279 282 279 270 274 278 280 279 282 282 282 281 281 283 280 278 289 286 287 290 286 286 285
292 292 293 294 294 297 298 298 298 298 299 299 300 299 299 299 299 299 289 294 294 286 283 288 287 287 288 286 282 276 280 274 282 272 271 269 271 271 272 275 282 278 283 281 285 284 290 287 290 289 286 285 285 284
292 292 292 294 294 295 297 297 298 298 299 299 299 299 299 299 299 298 291 293 290 284 283 284 283 286 289 290 294 284 280 284 282 282 276 276 277 275 269 276 275 282 283 281 281 282 284 287 289 286 286 286 285 284
292 292 292 293 293 294 297 297 297 298 299 299 298 298 298 298 299 299 290 292 288 283 276 274 284 283 286 287 289 292 289 289 288 286 283 280 277 280 278 279 277 279 281 278 281 286 287 289 286 286 286 285 283 282
291 291 292 292 295 296 295 296 297 297 298 298 297 297 297 298 298 297 292 292 290 282 272 268 276 282 285 287 286 286 289 287 285 282 281 280 282 281 279 279 273 280 281 281 282 284 286 287 284 285 285 284 283 281
291 291 292 291 292 294 294 295 295 297 297 297 297 297 297 297 298 288 283 290 291 288 279 269 278 275 279 282 286 286 287 285 285 283 282 284 284 281 277 273 279 281 283 285 283 283 284 284 284 284 284 282 280 280
291 291 292 291 292 293 294 295 296 295 296 296 296 296 297 297 291 285 282 285 293 290 280 274 267 275 280 282 283 284 286 286 286 284 283 282 281 283 278 273 280 282 282 282 283 283 283 284 284 282 284 283 282 281
290 290 291 291 292 292 292 293 294 294 295 295 296 296 297 297 292 286 290 293 293 286 280 270 265 269 279 278 276 284 283 284 283 283 281 279 280 282 277 280 281 281 278 278 279 280 281 280 279 279 280 281 280 278
290 291 292 292 292 292 292 292 293 294 294 295 295 296 292 288 283 284 295 295 290 282 274 266 263 262 277 279 280 282 283 278 283 280 279 276 271 273 276 278 278 276 275 274 272 271 272 274 275 274 277 277 277 274
288 290 292 291 292 292 292 293 293 294 294 295 290 283 279 283 291 291 285 282 281 282 279 273 274 270 276 274 275 273 279 276 268 274 278 276 271 276 275 266 267 267 267 267 268 268 267 268 270 271 271 273 275 273
288 291 291 291 291 291 291 292 292 293 293 284 280 278 283 291 282 279 276 275 274 269 272 267 273 271 273 267 271 278 272 273 270 269 273 265 264 273 265 262 262 263 264 262 263 265 265 267 270 270 268 267 268 268
289 290 290 290 290 290 291 291 291 288 284 283 281 283 283 278 276 272 271 270 269 264 263 272 271 272 270 273 270 274 270 270 266 266 271 264 269 259 260 260 259 259 259 259 261 261 261 262 262 263 262 262 261 262
289 290 290 290 290 290 290 291 291 291 288 283 278 274 273 271 268 268 264 260 265 258 263 273 273 272 276 278 273 272 269 266 268 268 263 265 257 255 254 256 256 257 258 258 258 259 258 257 257 258 258 258 258 256
288 288 288 289 289 289 289 291 292 288 280 275 271 268 265 263 259 258 258 259 260 267 261 272 273 275 271 274 272 271 269 266 261 266 263 253 252 252 253 254 254 255 256 257 257 257 257 257 256 256 256 258 257 254
289 289 289 289 289 290 290 289 287 279 273 271 267 264 263 254 252 248 248 253 254 254 264 270 271 276 272 273 272 268 265 265 262 260 249 251 252 252 252 253 253 254 254 255 256 256 256 256 255 254 255 256 256 256
284 284 284 289 288 287 285 281 275 275 263 263 256 257 250 255 253 250 249 250 256 258 261 262 262 271 268 267 267 268 266 266 257 247 249 252 252 252 252 252 252 252 253 254 254 254 254 254 253 253 254 254 254 254
282 273 286 284 283 281 281 269 267 261 259 254 250 248 250 249 247 248 249 252 257 258 262 263 266 268 264 261 257 251 253 246 247 250 248 250 251 251 252 252 252 253 253 253 253 254 254 255 256 254 252 253 253 253
270 274 283 283 274 271 263 264 260 256 251 252 249 246 249 249 250 248 247 253 254 257 258 260 257 260 262 256 250 247 247 247 249 249 250 252 251 252 252 251 252 253 253 253 253 254 255 254 253 252 253 254 254 254
275 279 283 281 274 263 259 258 258 252 250 249 252 252 250 249 252 252 252 254 255 255 255 255 256 248 248 246 244 244 246 249 250 252 252 252 252 252 253 252 253 252 252 252 252 252 252 252 253 254 254 254 253 253
276 277 277 277 272 261 255 257 257 253 249 252 251 248 249 248 248 246 251 251 252 251 248 247 245 244 244 246 248 249 251 253 250 250 251 252 253 253 253 253 253 253 253 253 253 254 253 252 252 252 253 253 252 251
267 268 269 265 261 260 257 254 255 253 252 250 252 253 250 251 247 247 248 250 248 246 244 244 242 245 245 245 248 249 252 253 252 253 252 251 252 253 252 252 253 253 252 252 251 250 250 249 250 251 251 250 250 251
261 267 257 260 258 255 256 256 257 257 252 250 251 251 248 246 246 247 250 246 245 244 244 243 242 243 243 244 246 249 250 252 252 252 253 253 251 251 250 250 250 249 249 249 249 249 248 249 250 250 249 248 249 248
260 259 254 252 252 250 250 254 251 252 248 248 250 248 246 246 248 252 245 244 244 247 245 244 244 244 244 246 246 249 250 250 250 250 249 249 249 250 249 249 251 249 248 248 249 249 248 249 249 248 248 247 246 245
256 247 245 244 246 243 247 246 249 250 248 247 247 245 246 248 251 246 243 240 244 247 244 244 244 246 246 247 248 247 248 250 249 249 250 249 248 246 247 247 247 247 248 248 248 247 246 245 245 245 243 241 239 239
247 240 242 238 243 243 242 242 244 246 244 245 244 245 245 248 245 242 242 241 243 242 244 245 247 248 247 248 248 248 248 250 250 248 248 248 247 247 247 247 246 245 245 247 245 243 239 237 238 238 238 237 238 238
237 238 238 237 239 239 240 239 240 241 245 244 242 245 245 246 244 240 239 242 243 245 246 246 248 248 247 248 248 248 247 247 251 248 248 249 249 249 248 247 246 246 242 238 238 238 238 238 236 236 237 238 240 237
237 236 239 243 241 241 241 242 244 244 242 242 241 244 246 243 240 242 247 248 247 247 247 247 248 249 248 247 247 246 246 246 247 247 247 246 246 246 247 246 242 242 237 236 236 236 237 237 237 237 238 237 236 238
238 238 238 240 239 238 238 240 240 240 242 243 244 242 241 241 243 245 247 248 247 247 247 246 246 247 247 247 247 247 246 246 246 246 246 245 244 243 241 240 240 247 239 239 240 239 235 236 236 238 239 240 242 240
240 240 240 240 241 241 240 237 239 243 244 243 243 242 242 245 244 244 247 249 249 248 247 247 246 246 246 246 246 245 246 247 247 246 244 243 242 243 239 237 237 237 237 235 243 249 245 243 243 244 243 243 244 242
241 242 241 241 241 241 241 241 242 243 244 245 245 245 245 245 246 247 247 247 247 246 246 246 246 246 247 247 247 247 244 243 241 241 240 240 241 239 236 236 237 237 235 232 239 240 244 242 241 238 240 240 240 241
244 243 244 244 243 244 243 242 242 243 244 243 244 243 243 244 246 247 246 245 245 245 245 245 244 245 245 246 244 243 245 240 237 239 238 238 237 236 237 238 239 236 234 234 236 235 239 239 238 239 239 240 241 242
243 240 244 246 245 244 242 241 242 242 242 244 243 243 243 244 244 245 245 243 243 243 245 244 244 245 243 241 239 239 244 240 240 241 240 240 240 240 240 240 238 235 236 239 240 240 240 239 240 241 242 242 242 242
239 241 242 244 245 245 241 239 241 241 240 239 239 235 234 238 244 244 242 241 242 243 242 242 242 238 239 241 241 240 242 240 239 246 249 248 247 247 243 242 242 242 242 242 243 243 242 241 241 242 242 242 243 243

GFSWCAN_sfc_thetae_066.txt.gz
Theta_e
292 292 293 293 293 294 295 295 296 300 301 301 301 301 301 302 302 298 293 296 290 285 286 288 288 285 284 285 281 282 282 283 283 279 279 278 278 280 280 282 282 282 281 281 283 279 279 292 289 288 290 291 293 292
292 292 292 293 293 293 294 294 294 299 300 300 300 300 301 301 302 300 290 295 296 287 286 290 291 291 291 289 287 283 285 282 286 282 281 282 279 281 279 275 284 279 284 282 282 281 290 291 291 294 290 288 289 290
291 292 292 292 293 293 293 294 294 296 299 300 300 300 301 301 301 300 292 293 291 285 285 284 285 290 291 292 295 284 285 287 285 290 285 283 278 282 278 279 281 285 287 283 283 286 290 290 291 291 290 288 287 287
291 291 292 292 292 293 293 293 294 296 294 299 299 300 300 301 301 300 291 294 291 286 280 281 287 286 290 291 291 292 290 290 289 288 284 282 279 285 281 282 282 285 286 284 285 287 289 290 291 291 291 290 289 288
290 290 291 292 292 292 293 293 294 295 294 299 299 299 300 300 300 298 294 293 293 286 279 278 280 286 289 289 288 289 288 287 285 283 282 281 285 283 284 282 281 285 283 281 280 287 287 287 290 289 289 289 288 286
290 290 291 291 292 292 292 293 294 294 294 298 298 297 299 299 299 293 283 291 294 291 282 276 282 281 284 286 287 287 287 286 285 283 282 285 287 284 279 278 284 286 288 289 286 289 288 290 289 289 288 288 284 283
289 290 291 291 292 293 294 294 294 295 296 297 295 299 299 299 295 286 284 288 294 292 282 277 277 279 282 283 283 284 286 285 284 283 283 283 283 285 281 277 283 285 286 287 287 286 285 287 288 286 286 287 284 283
290 291 291 291 292 291 292 294 294 295 295 296 296 298 298 298 293 287 291 294 293 285 283 273 272 275 281 279 278 284 281 283 283 283 284 282 283 283 278 282 285 285 285 283 284 286 287 283 282 282 282 283 283 282
290 290 290 291 291 292 292 294 295 296 296 296 297 296 294 288 284 285 293 296 292 285 277 274 271 271 279 279 281 282 283 277 284 280 281 281 280 277 281 282 283 283 281 283 280 278 277 277 279 279 279 280 281 279
289 290 291 291 292 292 293 293 293 294 296 296 291 284 280 285 293 294 286 282 283 283 278 274 273 273 278 276 277 277 279 276 274 278 280 278 277 281 278 271 268 268 269 271 273 274 272 274 275 275 275 276 277 276
289 289 290 292 292 292 293 293 293 294 293 285 281 279 285 293 285 281 277 276 277 275 277 273 275 274 279 275 274 278 276 276 271 274 275 273 273 275 264 263 263 263 264 265 265 267 268 269 272 272 270 270 271 271
290 291 291 291 292 292 292 293 294 287 285 284 283 286 284 280 277 274 272 272 273 270 271 273 273 277 276 278 275 275 273 272 269 273 273 270 273 258 257 258 259 260 260 260 262 263 263 264 265 267 266 265 265 265
290 290 291 291 291 291 291 292 292 291 287 283 279 276 275 272 270 268 265 265 267 266 271 273 273 276 277 279 275 273 270 269 271 271 270 272 256 256 255 256 256 258 259 260 261 261 260 260 260 261 261 261 261 260
290 290 290 290 290 290 290 291 291 288 281 276 272 268 268 267 267 265 266 266 264 268 272 274 274 276 276 275 275 271 272 270 266 264 268 256 253 252 254 255 255 255 256 258 259 259 258 258 257 257 258 259 260 258
290 290 290 289 290 290 290 291 286 279 277 272 272 266 261 257 254 253 254 259 257 259 267 271 272 277 275 273 274 271 266 266 267 267 259 254 253 253 253 254 254 255 255 256 256 257 256 256 255 255 256 258 258 258
286 287 285 288 289 288 286 281 273 273 262 262 256 262 255 260 257 254 253 255 258 260 264 267 271 272 271 270 269 269 266 265 265 255 253 253 253 253 253 254 254 254 254 254 255 255 255 254 254 255 255 255 256 256
282 275 285 284 282 281 280 270 268 260 258 257 252 250 250 251 251 250 251 254 257 259 266 266 268 266 267 264 263 258 264 256 251 251 252 252 251 252 252 253 253 254 254 254 255 255 256 256 257 256 254 254 255 254
270 276 284 283 275 272 265 265 260 258 253 253 253 250 250 250 251 250 251 254 256 258 260 262 263 262 265 264 262 252 250 250 251 251 252 251 252 252 253 253 253 254 254 254 255 255 256 256 255 254 255 255 255 254
278 278 280 280 273 263 261 261 258 252 252 253 253 253 251 251 252 252 252 254 255 255 256 258 261 260 255 249 248 248 249 251 251 252 252 251 252 251 253 253 254 254 253 254 254 254 254 254 255 256 256 256 254 255
275 276 277 275 270 260 257 257 257 254 251 253 252 250 250 250 250 248 250 252 253 253 251 252 249 247 248 249 249 249 250 252 252 250 251 252 253 253 253 254 254 254 254 254 254 255 254 254 254 254 254 255 254 252
267 268 269 265 259 257 255 254 254 252 252 251 252 251 250 249 247 246 248 251 249 246 246 247 247 248 248 248 248 249 250 251 253 252 251 251 253 253 253 254 254 254 253 253 252 251 251 251 252 252 252 251 251 252
261 267 257 260 257 255 254 255 255 254 252 249 250 249 246 245 245 245 249 247 245 245 246 247 247 245 244 244 245 247 249 249 251 253 254 253 252 252 252 252 252 251 251 251 251 250 250 251 251 251 251 251 251 251
260 259 254 252 252 251 250 253 250 249 248 247 246 245 245 243 247 251 244 244 245 248 246 245 244 242 244 244 244 246 247 248 250 250 251 250 251 251 251 251 252 251 250 249 251 250 250 250 250 250 250 250 250 250
256 247 245 244 246 243 246 245 248 247 247 246 246 243 243 244 249 246 242 240 243 245 244 244 246 247 245 245 245 245 247 250 250 250 251 250 249 248 249 249 249 249 250 250 249 249 249 248 248 248 248 248 247 247
248 240 242 238 242 242 241 241 242 245 243 244 246 245 245 246 245 242 243 244 244 243 244 243 245 246 244 243 246 246 248 251 250 248 249 250 248 248 248 248 247 247 247 249 248 248 247 246 246 246 245 245 245 245
237 238 238 236 239 238 238 237 238 239 242 244 242 243 243 246 245 242 241 242 242 241 241 243 246 246 246 247 248 248 248 249 251 249 249 250 251 251 250 250 249 248 246 246 246 246 245 245 244 243 244 244 243 242
237 236 239 241 240 240 239 240 241 240 240 240 242 244 245 240 240 242 244 246 243 242 244 245 246 249 248 247 247 247 247 248 249 249 249 248 248 248 250 250 249 248 244 243 243 243 243 243 243 243 242 243 242 242
238 236 237 239 238 236 234 235 235 237 240 243 242 238 238 241 241 241 244 248 247 246 247 247 247 248 248 248 248 248 247 248 248 248 248 247 247 247 246 246 245 248 243 242 243 242 240 241 241 241 242 242 244 245
238 238 238 237 238 239 237 236 235 240 243 241 240 240 239 241 241 243 248 249 249 248 247 247 247 247 247 247 247 247 248 248 249 249 249 249 248 248 244 242 242 242 242 241 244 249 245 243 243 244 244 244 245 245
240 239 238 238 238 237 239 239 238 241 244 245 245 245 244 245 244 247 247 248 248 247 248 248 247 248 248 248 249 248 247 247 247 248 247 245 245 242 240 241 241 241 240 238 241 242 244 244 243 241 242 243 243 243
243 240 239 240 240 242 242 242 243 243 245 244 244 243 243 244 247 248 247 247 247 246 246 246 247 247 247 248 247 247 248 246 242 242 240 239 238 238 239 240 241 239 237 238 239 239 240 241 240 240 241 241 242 243
243 239 242 244 243 243 242 242 242 242 241 242 242 243 244 244 245 247 248 246 245 245 247 247 247 248 248 248 247 246 247 243 241 242 241 242 241 241 241 241 239 237 238 240 240 240 241 240 241 242 242 242 243 243
239 244 244 245 245 244 241 239 242 242 242 240 241 239 239 241 245 246 245 245 246 247 247 246 245 242 242 242 243 241 243 241 240 247 249 249 247 246 243 241 242 242 242 242 243 243 242 242 242 243 243 243 243 244

GFSWCAN_sfc_thetae_069.txt.gz
Theta_e
292 293 293 293 293 294 294 294 295 295 297 298 299 299 302 303 303 299 294 298 292 286 288 289 289 287 287 288 283 284 284 283 283 280 279 279 278 281 279 281 280 280 279 280 282 278 276 292 290 286 288 291 290 290
292 292 292 292 293 293 293 293 294 294 295 296 297 297 301 302 302 302 291 296 298 288 289 293 292 293 292 291 289 285 285 284 286 283 284 284 280 282 280 275 284 278 282 281 284 284 291 292 292 294 294 292 292 291
291 291 291 292 292 292 292 293 293 293 294 295 296 296 299 302 302 300 293 293 293 285 286 286 286 292 294 294 296 286 288 288 287 290 286 283 279 283 278 279 281 285 287 283 282 285 287 289 292 294 293 292 293 292
291 291 291 291 292 292 292 293 293 294 294 295 295 295 299 301 302 301 294 294 291 287 282 283 291 289 294 294 293 293 290 291 290 290 285 282 280 286 280 282 282 285 286 284 284 286 288 291 293 294 293 293 291 292
291 290 291 291 291 291 292 293 293 293 294 295 295 296 297 301 301 300 295 293 295 288 282 282 285 289 291 292 291 291 290 288 287 282 281 280 284 283 284 283 281 285 283 281 280 286 287 288 291 294 291 291 292 290
290 290 290 290 291 291 292 292 293 293 293 294 294 296 294 300 300 295 284 292 295 292 283 278 285 285 288 289 288 287 288 287 286 283 281 284 287 284 279 278 284 286 287 289 286 289 289 291 292 293 290 291 290 288
290 290 290 290 291 292 292 292 293 293 293 293 294 296 294 299 297 287 285 289 296 293 284 277 279 282 286 287 287 286 287 285 284 282 281 282 283 284 280 276 282 286 287 289 290 289 286 288 287 290 290 289 286 284
290 290 290 291 291 292 292 292 293 293 293 294 295 295 296 299 297 286 289 297 294 286 285 277 276 278 284 280 280 285 281 283 282 281 283 281 283 283 276 282 285 286 287 287 287 287 287 288 285 284 284 284 283 283
289 290 290 291 291 292 292 293 293 293 294 294 295 297 295 290 284 285 295 296 291 286 278 277 274 273 281 281 282 281 282 277 283 279 279 281 279 276 280 281 281 278 276 274 276 279 280 280 281 281 281 281 282 283
290 290 291 291 292 291 291 292 294 294 295 295 292 285 281 284 295 295 288 283 283 282 280 277 280 273 280 279 279 280 279 277 274 278 282 278 276 281 271 268 267 267 267 268 270 275 270 273 273 275 277 277 277 278
289 291 291 291 291 292 291 293 293 294 294 285 282 280 286 293 286 283 279 278 278 276 279 277 280 275 280 276 277 280 277 278 271 276 276 275 275 274 264 263 264 264 264 265 265 266 268 268 268 269 272 272 271 271
290 289 290 292 291 291 292 293 291 286 285 286 284 286 285 282 279 275 274 275 275 273 275 277 277 280 279 282 279 277 275 275 270 278 274 271 274 260 259 259 260 260 260 261 262 263 264 264 264 264 266 267 266 266
291 291 291 291 292 292 293 293 292 290 289 285 281 278 278 274 271 270 267 269 270 273 275 276 275 278 279 281 278 276 272 271 275 272 271 274 260 259 256 257 257 258 259 259 260 261 262 261 261 260 261 262 263 262
291 291 291 291 291 291 292 292 290 287 284 277 275 269 271 270 272 271 273 273 269 275 277 278 276 276 278 276 276 271 274 272 269 268 269 267 256 254 255 256 255 255 256 257 258 259 259 259 258 258 258 260 261 260
289 291 290 289 290 290 288 286 284 277 275 271 274 267 267 260 259 259 261 265 262 266 277 276 277 277 276 274 275 273 268 267 270 270 266 258 255 254 254 255 254 254 255 256 257 257 257 257 257 256 257 259 259 259
286 286 284 287 287 287 285 280 273 273 263 263 258 263 261 265 261 261 263 261 262 267 270 276 274 272 272 273 271 270 269 267 270 261 257 256 254 254 253 253 254 254 255 255 256 257 256 256 256 256 256 256 257 257
284 279 286 284 281 280 279 272 268 261 259 259 254 254 256 257 256 255 257 258 260 264 271 273 270 270 271 269 268 268 270 261 256 256 255 254 252 252 252 253 253 254 255 256 256 257 257 257 258 257 255 255 256 256
276 279 282 282 277 274 268 267 263 260 255 255 256 253 254 254 255 254 255 257 261 263 266 269 270 268 267 267 269 258 255 254 254 254 255 253 253 253 253 253 253 255 255 255 256 257 257 257 256 256 256 256 256 255
277 278 279 279 275 268 265 262 262 255 254 255 255 255 254 253 254 255 255 257 258 258 262 264 267 268 266 256 255 253 253 254 254 255 254 253 253 252 252 254 254 255 255 255 255 255 255 256 257 257 257 257 256 256
275 276 276 275 273 266 261 259 263 258 255 254 255 254 254 253 253 253 254 255 257 258 258 258 255 251 253 252 252 253 253 254 254 253 254 254 255 253 254 255 255 255 255 255 256 256 256 255 255 255 256 256 255 254
270 270 270 268 263 262 258 258 256 256 256 254 255 255 253 253 251 251 252 253 254 249 251 249 250 250 250 250 252 252 252 253 254 254 254 253 254 255 254 255 255 255 255 254 253 253 253 252 253 254 254 253 253 253
264 267 262 264 261 259 257 256 257 257 255 254 254 253 251 251 250 250 252 251 248 247 248 249 249 249 249 249 249 250 250 251 252 255 254 254 253 253 253 254 254 253 253 253 253 252 252 253 253 253 253 252 253 252
261 261 257 256 256 255 252 257 254 254 253 252 253 251 249 250 250 253 248 247 248 249 249 249 248 247 248 248 248 249 248 250 252 252 252 252 252 253 253 253 254 253 252 251 253 252 251 252 252 252 252 252 252 252
257 249 247 247 250 248 250 249 253 252 252 251 250 248 248 249 252 250 248 247 248 249 248 247 248 249 249 247 249 248 249 252 251 251 252 252 251 250 251 250 251 251 252 252 252 251 251 250 251 251 250 250 250 250
250 242 245 242 246 246 245 246 246 250 247 248 248 248 248 250 248 247 247 246 247 247 248 248 249 250 249 248 249 249 248 252 251 250 251 252 250 250 250 250 250 249 250 251 251 250 249 249 249 249 249 248 247 247
239 241 242 241 243 243 242 244 243 243 246 246 245 247 248 248 247 247 246 247 247 247 247 247 248 248 249 249 249 249 249 250 252 251 251 252 252 253 252 251 251 250 249 249 250 249 249 249 248 246 246 246 246 244
239 240 243 245 244 244 243 244 244 244 242 242 244 246 247 246 246 245 247 248 248 247 248 248 248 249 250 249 249 249 249 250 250 251 251 251 250 250 252 252 252 251 248 248 247 247 247 245 245 245 245 246 245 245
242 242 240 242 242 242 239 240 240 240 242 244 244 243 243 245 245 246 247 249 248 248 248 248 248 250 250 250 249 249 249 249 250 250 250 249 249 249 249 249 249 250 247 246 246 245 244 244 244 244 244 244 245 246
242 243 243 238 240 242 241 241 241 243 245 243 243 244 244 246 246 245 248 249 249 248 248 248 248 249 249 249 249 250 250 250 250 250 251 252 251 250 249 248 247 247 246 245 246 250 248 245 245 245 245 245 246 246
242 243 242 239 239 241 243 243 242 243 245 246 246 246 246 246 247 248 248 249 248 249 250 250 250 249 250 250 250 250 250 250 250 251 251 251 251 248 247 246 246 246 245 243 244 244 247 247 245 243 244 245 245 245
245 243 242 244 243 245 245 244 244 245 246 246 246 245 246 246 248 249 249 250 250 249 248 248 249 249 249 250 250 250 250 250 249 249 248 247 246 245 245 245 245 244 242 242 242 242 243 243 243 242 242 243 243 244
244 241 244 242 244 245 244 244 245 246 246 246 247 246 246 246 247 250 250 248 247 247 248 249 249 250 251 251 251 251 250 249 248 246 244 245 245 245 245 244 244 242 242 243 243 242 242 241 242 243 243 244 244 244
244 245 246 246 244 244 242 240 244 243 244 245 245 241 241 242 245 249 248 249 249 250 249 250 250 250 249 249 249 248 247 245 244 249 250 250 248 248 246 244 244 243 243 243 244 244 244 244 244 244 244 244 244 245

GFSWCAN_sfc_thetae_072.txt.gz
Theta_e
293 293 293 293 293 293 294 294 294 295 295 296 297 298 299 300 301 299 296 297 292 285 286 288 289 285 284 286 278 283 282 282 280 277 274 273 270 275 273 277 276 276 274 274 279 276 272 288 284 283 284 285 286 286
293 293 293 293 293 293 293 294 294 294 294 295 295 297 298 299 298 301 293 297 297 287 285 291 291 292 291 290 285 284 280 277 281 275 274 274 270 273 272 266 280 274 277 273 276 275 287 288 285 288 290 288 287 289
292 292 292 292 292 292 292 293 294 293 294 294 295 295 297 298 299 297 295 294 293 286 285 284 285 290 292 291 293 282 281 286 283 286 279 277 272 277 269 274 274 279 282 278 277 281 283 285 286 286 290 290 290 289
291 291 291 291 292 292 292 292 293 293 293 294 294 294 295 296 298 298 292 293 292 286 281 281 290 288 291 292 291 291 288 288 288 285 279 274 272 280 274 277 274 278 279 276 277 282 282 284 285 287 289 288 287 288
292 292 291 291 291 291 292 292 292 292 293 293 293 294 295 295 297 295 293 293 294 287 280 281 284 287 290 290 289 289 288 284 279 275 275 271 276 276 275 276 276 280 279 277 276 282 283 283 286 286 287 287 287 286
292 292 291 291 291 291 291 291 292 292 292 293 293 294 294 295 296 290 285 292 295 293 282 276 284 281 285 288 287 286 286 283 280 280 279 277 282 278 269 268 280 282 283 284 282 285 285 286 286 285 286 286 286 286
292 291 292 291 291 291 291 291 291 292 292 293 293 294 294 294 292 285 285 288 296 292 283 276 276 281 285 284 284 285 287 284 281 280 275 277 279 279 270 273 279 281 282 283 284 284 283 284 284 284 285 285 283 280
290 291 291 291 291 291 291 291 292 292 292 293 293 294 294 294 294 286 290 296 295 287 284 276 273 277 284 280 279 284 282 283 282 278 275 275 277 277 271 278 280 280 280 282 278 276 278 280 281 280 280 279 277 278
290 290 290 290 290 291 291 292 292 293 293 293 293 294 291 288 284 285 294 297 294 286 278 276 272 270 281 277 279 280 281 275 280 273 275 275 269 267 275 277 273 270 270 269 270 272 273 273 275 274 275 275 275 276
290 290 290 291 291 291 292 292 293 292 293 293 290 284 281 284 293 293 289 282 282 281 281 277 276 271 278 275 275 276 276 273 270 274 278 270 270 278 268 266 266 266 266 266 266 269 266 265 268 269 269 271 271 271
290 291 291 291 291 292 292 292 293 293 293 286 282 281 285 294 286 284 279 277 277 275 278 276 275 273 276 270 272 277 273 273 267 267 270 263 264 272 264 262 263 263 263 262 263 264 265 265 265 265 265 265 265 265
291 291 291 291 291 291 290 292 292 287 285 285 285 286 284 281 278 275 273 275 274 271 274 275 275 275 275 280 273 276 273 272 262 267 266 261 269 259 258 258 259 259 257 257 259 260 262 262 262 261 260 261 261 261
291 291 292 292 292 292 292 291 293 292 289 285 281 278 277 273 270 269 266 269 269 272 274 274 271 275 276 278 276 274 270 265 266 264 263 266 259 256 253 254 254 255 255 255 256 257 258 258 258 256 256 257 258 258
289 290 290 291 290 290 291 289 289 287 282 276 274 268 270 269 270 269 270 270 270 275 275 276 272 273 274 274 275 269 267 267 261 258 261 257 252 250 252 253 250 252 252 253 253 255 255 255 255 254 255 256 257 255
287 287 287 286 288 289 287 286 283 274 271 268 271 265 262 259 259 259 261 262 264 271 277 274 272 275 271 273 273 270 266 258 262 262 258 253 251 251 251 251 249 250 251 251 251 251 253 252 253 252 254 255 257 258
286 284 283 286 284 284 284 277 271 271 262 261 255 262 262 262 260 260 260 260 261 267 270 274 272 270 267 271 267 263 260 259 263 251 250 252 249 249 248 248 248 248 248 249 250 251 252 251 251 251 253 255 255 256
282 276 283 284 283 279 278 268 264 260 259 258 253 254 254 257 254 254 255 257 260 263 265 266 262 261 265 261 260 261 263 255 249 248 250 250 249 247 247 247 248 247 248 249 249 250 251 253 255 255 254 254 255 255
274 276 281 282 278 272 263 264 260 258 254 254 253 252 254 253 254 253 255 257 259 260 261 263 266 260 259 257 258 251 249 247 248 249 249 248 247 246 246 247 247 248 248 248 250 251 252 253 255 255 256 256 255 255
276 276 279 279 274 264 259 257 258 251 252 254 255 255 254 252 254 255 255 257 257 256 256 258 259 257 253 250 247 246 247 247 248 250 249 247 248 246 246 247 248 248 248 248 249 249 250 252 253 256 256 256 255 255
276 276 276 275 273 262 255 254 259 255 252 253 255 253 254 252 252 252 253 253 254 252 253 251 246 245 247 247 247 246 247 249 247 246 248 249 249 246 247 247 249 249 249 248 249 253 250 252 254 254 254 255 254 253
268 269 270 266 261 259 256 255 254 256 256 254 255 255 252 252 248 247 247 253 249 247 247 245 245 245 243 243 244 244 247 248 248 247 246 246 248 249 247 248 248 248 247 247 247 247 250 251 252 253 253 252 253 253
262 268 260 263 260 256 254 254 256 257 252 253 254 254 252 251 251 248 250 248 246 244 244 245 243 242 242 242 242 242 243 243 246 249 250 249 247 247 247 247 246 245 245 246 246 247 249 251 253 253 253 252 253 252
262 261 256 255 254 253 250 255 252 252 249 248 249 248 248 248 248 253 246 243 244 246 243 242 241 240 241 241 241 243 244 244 245 245 245 245 244 245 245 245 246 244 244 246 248 250 250 252 252 252 252 252 252 252
257 249 247 246 249 246 247 247 250 249 247 246 245 243 242 243 248 247 243 240 241 243 242 240 240 241 241 241 241 241 242 244 245 245 245 244 243 243 243 243 244 245 246 249 250 251 251 251 251 251 251 250 250 250
249 241 243 240 244 244 243 242 242 245 242 242 242 242 242 242 243 242 242 239 240 240 241 240 241 243 241 240 241 241 242 244 244 242 244 244 243 244 244 244 245 245 247 249 250 251 250 250 250 250 249 248 248 246
238 239 239 238 240 240 240 239 239 238 240 240 239 241 240 241 241 242 240 239 239 239 240 240 240 241 242 242 241 242 242 243 244 244 245 246 246 247 246 247 248 249 250 249 250 250 250 250 249 248 248 247 247 244
237 236 240 242 241 241 239 239 240 239 237 238 238 239 240 241 241 241 241 243 242 240 242 241 241 242 242 241 242 242 242 243 244 245 246 248 248 249 250 250 251 249 249 249 249 248 247 247 246 245 243 241 240 240
238 238 237 238 237 237 234 235 235 235 237 239 238 238 239 241 241 241 242 245 241 242 242 242 242 243 243 243 243 244 244 245 246 247 248 249 250 250 249 249 250 252 249 248 248 246 245 245 241 239 239 241 243 240
237 238 238 236 236 237 236 236 235 237 240 236 237 239 239 241 239 239 242 243 241 241 240 240 242 242 243 243 244 245 246 247 248 248 249 251 250 250 249 249 249 249 248 246 248 250 246 244 243 243 243 243 244 243
237 238 237 235 236 237 238 238 236 236 238 239 240 242 241 240 241 241 241 240 241 240 241 243 244 244 243 244 245 247 248 248 248 249 249 251 250 249 249 248 248 247 246 243 245 245 247 244 243 240 241 241 241 243
240 236 238 238 238 238 239 238 237 238 239 239 239 238 238 239 242 242 245 244 243 246 247 246 245 247 247 248 248 248 249 248 249 250 249 248 248 246 246 247 246 244 242 241 241 239 240 240 239 240 240 241 242 243
238 237 239 239 239 239 239 240 243 243 243 242 243 242 241 242 244 245 248 248 245 245 248 249 249 249 251 251 251 252 252 250 249 248 247 247 246 244 243 241 240 238 238 240 239 240 240 240 241 241 242 242 243 243
238 240 240 240 239 241 239 240 242 242 241 240 240 237 238 240 243 245 244 245 245 247 246 248 248 248 250 249 249 248 249 246 245 251 252 250 248 246 241 240 240 240 240 241 242 242 242 242 242 243 243 243 244 245

GFSWCAN_sfc_thetae_075.txt.gz
Theta_e
293 293 293 293 294 294 295 295 294 294 295 295 296 296 297 299 300 299 296 297 292 285 282 286 287 282 280 280 276 278 282 282 279 275 272 270 266 273 271 274 275 273 271 271 269 272 270 284 283 281 283 283 284 284
293 293 293 293 293 294 294 294 294 294 294 295 296 296 296 298 299 299 291 297 297 287 282 289 289 291 290 289 282 279 278 274 280 276 271 270 268 268 270 267 279 271 277 273 276 276 283 285 284 287 287 285 284 284
293 293 293 293 293 293 294 293 293 293 294 294 295 295 295 296 297 297 292 293 293 286 285 282 284 287 291 291 292 280 282 284 282 282 276 272 269 273 267 268 272 278 280 276 275 279 279 281 284 285 287 286 286 286
292 292 293 292 292 292 293 293 293 293 293 294 294 294 295 295 296 297 292 293 291 286 282 281 287 287 289 290 290 289 286 287 286 282 274 268 268 278 271 275 274 276 278 272 273 280 280 282 283 285 285 286 287 286
292 292 292 292 292 292 292 292 292 292 292 293 293 294 294 294 295 293 294 292 293 287 279 275 280 285 288 289 288 287 286 283 276 273 274 274 274 276 271 275 270 278 277 276 273 280 280 281 284 284 283 284 285 284
291 292 292 292 292 292 292 292 292 292 292 292 293 293 293 294 294 289 283 291 292 291 281 274 282 280 283 287 286 285 285 282 278 274 272 275 281 278 267 260 278 279 280 281 279 282 282 283 284 283 284 284 285 284
291 291 292 292 292 292 292 292 292 292 292 292 292 293 293 293 289 284 282 283 294 292 282 275 276 281 285 285 284 284 285 280 280 276 271 277 278 278 266 271 279 279 280 280 281 279 279 280 281 281 283 282 280 278
290 290 291 292 292 292 292 292 292 292 292 292 292 293 293 293 292 286 289 294 294 287 284 275 273 278 286 281 280 284 282 282 279 279 275 276 277 275 268 276 279 276 277 278 276 275 276 277 277 275 276 276 274 275
291 291 290 291 291 292 292 292 292 292 291 291 292 292 289 286 282 284 293 293 293 286 279 274 272 271 282 280 280 280 281 276 281 276 276 276 267 270 275 277 276 271 272 271 269 270 271 271 272 270 270 270 269 271
292 292 291 290 290 291 291 291 291 292 292 292 288 283 279 281 292 292 286 282 282 283 281 275 274 272 280 275 275 274 276 274 272 271 278 274 266 277 272 266 266 265 264 265 263 266 261 262 265 266 266 267 267 266
292 289 290 291 291 291 291 292 292 292 293 286 282 279 282 292 285 282 278 277 278 274 278 277 277 275 275 271 270 277 273 275 269 268 270 261 262 274 264 261 262 262 262 261 260 261 262 262 262 262 261 261 261 261
289 292 291 291 291 292 292 292 293 289 285 285 281 286 286 282 279 276 275 276 274 272 275 275 274 276 277 280 276 276 273 272 267 264 265 258 269 260 259 259 258 258 256 255 256 258 259 260 260 259 258 257 257 258
289 289 289 290 291 291 290 292 292 292 290 284 280 278 276 274 270 269 267 268 268 273 274 276 274 275 278 280 275 274 269 266 266 267 263 265 259 255 253 254 253 253 253 253 254 255 256 256 256 254 254 254 255 255
288 288 288 288 287 289 288 288 288 287 280 277 273 268 269 268 267 269 269 268 270 274 277 277 270 274 277 274 274 268 267 265 258 262 261 260 255 252 251 251 249 250 249 251 251 252 253 253 253 252 251 252 253 253
286 286 285 286 287 285 286 282 281 272 269 266 269 262 260 259 257 260 261 263 265 277 277 273 273 274 270 272 271 268 264 260 261 261 262 253 251 251 251 249 248 248 249 249 248 248 250 250 249 249 249 249 251 253
284 281 279 285 286 282 282 274 269 269 262 259 254 260 259 261 260 257 257 261 261 266 272 274 268 269 270 271 267 263 261 259 263 256 249 251 249 248 247 246 247 246 246 247 247 248 249 248 248 249 247 248 250 253
278 271 282 283 284 277 276 265 264 259 257 257 254 255 253 256 254 255 255 257 260 267 265 266 262 267 270 264 260 260 261 256 247 246 246 247 248 247 245 244 245 245 245 245 246 246 247 247 247 247 247 249 250 252
270 275 281 281 277 269 260 260 258 257 253 254 254 252 254 253 253 254 255 257 259 260 264 265 269 265 264 263 260 254 248 246 245 246 247 245 244 243 244 245 245 245 245 245 246 247 247 248 248 248 248 250 251 254
276 276 279 278 272 259 256 257 256 251 252 254 255 255 255 254 255 255 255 257 258 258 261 264 264 260 258 251 248 245 244 245 247 249 247 245 247 244 244 244 245 245 245 245 245 246 246 246 247 249 250 252 252 254
275 275 276 274 269 257 253 252 255 252 247 251 253 252 253 252 253 253 254 254 256 255 250 249 246 244 247 246 245 244 245 247 250 246 245 247 246 244 245 246 247 245 245 245 245 248 245 246 248 250 251 252 252 252
266 267 269 263 257 255 252 250 251 252 252 250 253 254 253 254 251 250 250 252 250 245 246 244 243 243 241 240 240 241 244 246 245 246 246 245 246 247 245 244 244 244 244 243 243 244 245 245 248 251 252 252 252 253
260 268 257 261 257 252 252 252 251 253 250 249 253 253 251 251 250 249 250 247 244 243 242 243 242 240 240 240 240 239 240 240 242 245 248 249 246 246 245 244 244 243 242 242 242 242 244 247 250 252 251 251 253 253
261 260 255 253 252 250 247 250 247 249 253 250 253 252 250 250 249 253 246 242 242 243 240 239 239 237 239 238 240 241 240 242 242 243 243 243 242 241 243 241 242 243 242 244 243 244 246 252 252 252 252 252 252 252
256 247 246 245 247 243 244 245 247 248 251 251 250 247 247 246 249 249 241 237 241 241 240 239 238 240 241 241 239 238 240 239 240 241 240 244 242 242 240 241 240 241 242 243 245 245 248 250 252 251 251 251 251 250
250 241 243 240 242 242 241 240 241 245 245 243 245 245 245 244 246 243 241 238 238 237 238 236 237 239 239 237 238 238 239 240 241 241 241 240 239 240 241 241 242 242 243 244 245 247 249 250 250 250 250 250 249 249
238 238 238 234 238 239 237 238 237 238 238 239 239 238 236 239 243 244 239 237 237 237 237 238 238 239 239 239 239 240 241 239 240 241 241 241 243 243 241 243 244 246 246 248 249 249 250 250 249 249 249 249 249 248
237 236 238 238 238 238 238 237 237 238 237 238 236 237 239 243 242 241 238 239 240 238 238 238 238 239 240 239 239 238 238 239 242 243 241 242 244 245 247 247 248 250 250 249 250 249 249 249 249 248 247 247 246 246
237 236 237 236 236 234 233 233 234 235 236 237 237 239 240 241 242 239 241 242 239 238 239 238 238 240 240 241 241 241 241 241 243 244 245 246 247 248 248 248 250 253 250 250 249 249 248 248 247 246 246 245 245 244
237 236 237 236 235 237 235 235 234 235 237 233 237 238 238 239 237 237 240 242 238 239 238 238 240 238 240 240 241 241 241 242 243 243 244 247 247 249 249 249 249 249 249 249 250 251 249 247 247 246 246 245 245 243
237 235 236 234 236 237 237 236 235 233 234 237 237 240 240 240 241 238 238 238 240 239 239 238 238 239 240 240 242 243 242 244 245 248 248 250 250 249 248 248 248 248 248 247 247 247 249 248 245 243 243 241 240 242
235 234 236 235 237 236 236 235 233 234 235 235 234 237 237 238 241 237 241 239 238 237 240 241 244 246 246 246 246 246 248 249 250 250 250 250 250 248 248 248 248 247 246 245 245 243 243 241 238 238 239 240 241 242
235 235 237 239 239 237 234 235 236 237 237 238 241 238 240 240 241 244 247 246 243 245 247 247 247 248 250 251 251 251 253 251 250 250 248 249 248 248 247 247 243 240 241 241 239 238 238 238 240 241 242 242 242 243
235 236 236 237 239 241 239 239 240 241 242 242 242 241 241 242 245 247 245 246 246 247 248 249 250 249 250 250 250 251 252 250 249 253 254 252 250 248 242 240 238 238 239 240 241 241 241 241 242 242 242 243 244 244

GFSWCAN_sfc_thetae_078.txt.gz
Theta_e
293 294 294 294 294 294 295 295 295 296 296 296 296 296 297 298 299 297 295 296 291 285 282 285 286 282 280 280 276 276 283 282 279 278 276 272 267 272 270 274 274 274 272 272 275 273 269 282 282 278 281 281 283 282
292 293 293 294 294 294 294 294 295 295 296 295 295 296 296 296 297 298 291 297 297 287 284 288 288 290 289 287 282 279 279 276 281 278 273 273 269 268 270 267 279 273 276 272 275 275 282 283 284 286 285 283 283 282
292 292 292 293 293 294 294 294 294 294 295 295 295 295 296 296 297 296 292 293 293 285 285 282 284 287 290 290 291 280 277 283 281 282 276 275 273 274 268 269 272 278 279 276 276 280 280 282 282 283 287 284 285 284
292 292 292 292 293 293 293 293 294 294 294 294 294 294 295 295 296 296 291 293 290 285 282 283 286 286 290 290 290 288 287 286 285 280 271 269 269 278 271 275 274 277 278 273 273 279 280 281 282 284 284 284 284 284
292 292 292 292 292 293 293 293 293 294 294 294 294 294 294 295 295 294 293 293 293 287 279 275 279 285 289 290 288 287 287 283 276 274 273 269 271 273 269 273 269 278 277 276 273 280 280 280 282 282 281 281 282 281
292 291 291 291 292 293 293 293 293 293 293 293 293 293 294 294 294 288 281 289 293 292 281 275 281 278 283 288 287 286 285 280 277 274 270 272 280 277 266 262 277 279 280 281 278 280 280 281 282 281 281 282 282 283
291 292 292 291 292 292 293 293 292 292 293 293 292 293 293 294 290 284 280 282 293 291 281 276 277 279 283 284 285 284 284 280 279 273 270 277 279 278 268 264 279 278 279 279 279 279 277 279 278 279 278 278 277 276
290 290 290 291 291 292 292 293 292 292 292 292 292 292 293 293 292 286 288 293 294 286 284 276 274 278 284 281 281 284 282 282 281 276 274 275 278 276 269 276 280 279 279 279 279 277 277 275 276 273 273 272 270 271
290 291 293 291 291 292 292 293 292 292 292 292 292 292 288 286 282 280 292 293 291 285 278 275 273 272 284 281 281 281 283 277 281 277 276 278 273 272 276 278 276 275 275 275 270 269 269 270 270 269 268 267 267 268
290 292 291 291 291 291 292 292 292 292 292 292 288 282 278 277 291 290 285 281 281 281 281 275 271 274 281 277 276 275 278 275 272 274 279 275 269 278 276 268 270 269 267 266 266 266 260 261 263 265 264 265 264 264
290 291 291 290 290 290 291 291 292 292 291 285 280 278 278 290 283 279 275 275 276 273 275 277 275 275 278 272 269 276 271 274 269 272 270 265 264 277 266 263 264 265 264 261 261 262 262 261 261 261 260 258 258 258
288 289 290 290 290 290 290 291 291 288 285 285 284 285 281 277 277 273 270 273 270 271 275 275 276 279 277 280 276 275 273 273 267 268 266 263 268 264 263 261 260 260 259 257 256 257 259 260 259 258 257 256 255 255
287 288 288 288 288 288 289 288 292 292 290 285 281 278 277 276 271 266 265 261 270 273 275 272 276 278 278 279 276 274 270 269 269 269 264 265 261 257 255 256 254 253 253 253 254 254 255 255 254 253 253 252 252 252
285 286 286 287 288 287 287 286 288 292 284 277 274 269 270 268 264 270 266 271 272 273 276 278 274 276 277 274 274 269 269 268 265 264 261 263 259 256 253 252 252 251 250 252 250 251 252 252 252 251 250 249 250 251
284 284 283 285 286 285 284 282 280 272 270 267 268 265 258 255 259 256 255 257 265 276 279 275 273 275 272 271 272 266 265 264 265 263 263 257 256 254 252 250 249 249 249 248 247 248 250 249 248 247 246 246 247 249
283 279 277 285 285 282 280 274 269 268 262 260 254 258 258 260 260 256 256 261 262 276 279 274 273 271 269 270 266 263 262 259 264 260 251 252 253 252 249 247 247 246 246 246 245 246 248 247 247 247 244 245 246 247
279 266 280 283 283 276 275 265 265 259 258 257 253 251 254 255 255 255 255 257 260 265 270 271 269 268 271 266 261 257 262 259 248 246 250 251 251 249 246 245 244 244 244 244 244 244 245 245 244 244 246 246 245 246
267 273 280 281 275 267 260 260 258 258 254 254 255 253 255 254 254 255 255 257 259 265 269 269 270 265 264 263 260 256 248 248 250 250 249 248 246 244 245 246 243 243 244 244 244 243 244 245 245 246 244 246 246 246
274 276 278 277 271 258 257 257 257 253 253 254 256 256 256 255 256 256 256 257 258 260 264 267 265 259 257 253 252 251 252 252 251 250 248 244 247 245 244 243 243 243 244 243 243 244 244 243 245 246 247 248 248 248
276 275 275 273 268 258 254 252 255 254 252 253 255 254 255 255 255 254 255 254 257 257 251 253 250 247 249 249 248 250 250 251 250 247 245 247 245 243 244 245 246 244 244 243 243 246 244 245 246 246 246 247 247 248
266 266 269 262 256 255 252 251 252 252 251 252 253 252 254 256 254 252 252 253 251 246 247 246 246 246 245 245 245 245 247 248 244 245 246 245 244 245 243 243 243 242 243 242 243 243 243 243 244 246 246 247 248 251
259 267 256 260 256 252 252 252 251 252 251 248 251 250 249 251 251 251 252 249 246 244 244 245 245 244 244 243 241 238 238 238 240 246 248 249 246 245 244 242 244 242 241 241 241 243 242 243 245 247 247 248 251 251
260 260 254 252 252 250 247 250 248 248 249 249 250 251 249 249 250 253 246 244 244 245 242 241 240 238 239 238 239 240 239 241 241 240 241 240 239 239 241 240 241 243 242 243 240 241 244 249 250 249 249 251 251 251
256 247 246 245 246 243 243 244 246 245 247 247 248 248 248 248 250 251 244 238 240 241 240 238 237 240 241 241 239 238 238 237 238 239 238 243 243 241 238 239 238 239 242 242 243 243 245 246 250 249 250 250 249 250
250 241 243 239 241 242 241 240 241 244 241 241 245 247 247 246 252 249 244 240 238 237 238 235 236 237 238 236 237 237 237 238 241 241 239 238 238 240 241 240 240 241 240 243 242 243 244 246 248 249 249 249 249 249
238 237 238 233 238 239 237 238 237 237 237 240 239 241 241 246 252 247 240 238 238 239 238 238 239 238 239 237 238 239 240 236 238 240 240 240 242 242 240 241 242 245 243 242 244 245 246 248 248 249 250 250 250 249
238 236 237 236 237 237 237 236 236 238 236 238 236 238 239 243 242 242 238 238 239 238 237 237 237 238 239 238 238 237 236 237 241 242 240 240 243 243 245 244 244 247 246 246 247 248 248 249 249 249 249 249 248 248
236 235 237 236 236 232 233 233 234 235 236 237 236 239 241 242 243 241 242 241 237 236 237 235 236 237 238 238 238 239 240 239 241 243 245 245 243 244 245 246 249 254 250 250 250 249 249 249 249 249 248 248 248 248
237 234 236 236 235 236 234 235 235 234 237 233 237 238 239 239 237 236 239 239 235 237 238 238 239 235 237 238 238 238 239 242 244 243 243 243 245 248 248 248 249 250 250 249 252 252 249 249 249 249 249 248 248 246
237 233 236 233 237 237 237 236 234 233 233 236 236 239 239 238 239 236 236 236 239 238 238 237 236 238 238 239 239 240 238 241 243 244 244 245 247 246 246 248 249 249 249 248 248 248 251 250 249 246 246 245 244 243
234 233 236 235 237 235 234 233 231 232 232 233 231 235 236 237 240 236 240 238 237 234 237 238 237 236 238 240 241 243 245 244 246 246 247 249 250 250 250 250 249 247 247 246 247 246 246 246 244 243 241 241 241 242
235 235 237 239 238 235 232 233 233 234 234 236 237 235 237 238 240 241 242 241 241 242 245 245 246 247 247 248 249 250 252 250 250 250 250 250 250 250 249 248 245 241 242 244 243 242 241 239 240 240 241 241 242 242
234 233 233 236 238 239 236 236 237 238 238 238 238 237 237 239 243 246 245 245 245 245 245 247 248 249 250 250 251 251 252 251 252 255 256 254 251 249 243 241 239 239 240 241 241 241 240 240 241 241 242 243 243 244

GFSWCAN_sfc_thetae_081.txt.gz
Theta_e
293 293 293 294 294 294 294 295 295 296 296 297 297 298 298 299 299 297 294 296 290 282 281 284 285 282 280 280 277 277 281 281 278 278 273 271 267 272 270 273 275 278 277 275 273 272 269 280 280 278 280 281 283 282
292 292 292 293 293 294 295 294 294 295 296 296 297 297 297 297 298 298 290 296 295 285 285 287 287 289 289 287 283 280 280 278 282 277 273 274 268 268 268 266 278 273 277 274 277 277 281 282 282 284 284 283 282 283
292 292 292 292 293 293 293 294 294 294 295 295 296 297 297 297 297 296 291 293 292 285 285 286 284 287 289 289 290 280 277 283 282 283 276 275 271 274 268 268 272 277 279 276 276 279 280 283 283 283 285 284 284 283
291 292 292 292 293 293 293 293 294 294 294 295 295 296 296 296 296 296 291 293 290 285 281 280 286 286 288 289 288 288 286 285 283 279 276 272 270 278 272 276 276 277 279 274 274 279 280 281 282 283 282 282 282 283
290 291 291 292 293 293 292 293 293 294 294 294 295 295 295 295 295 294 291 293 293 286 279 277 281 284 287 288 286 286 285 282 276 274 270 272 272 275 271 274 272 278 277 277 274 280 280 281 282 282 281 281 281 281
290 290 291 291 292 292 292 292 293 293 294 294 294 295 295 294 295 288 283 291 293 292 282 274 283 277 282 285 286 285 286 279 277 275 273 273 279 277 267 266 278 279 280 281 280 281 281 281 282 281 281 281 280 280
290 291 291 291 292 292 292 292 293 293 293 294 294 294 294 294 290 284 281 282 293 291 281 276 276 280 282 283 285 284 284 282 281 275 274 277 278 275 265 268 277 279 280 280 280 280 278 279 279 279 279 277 275 273
289 290 291 291 293 294 292 292 293 293 293 293 293 294 294 293 292 286 289 293 293 285 282 276 274 274 283 281 281 285 283 283 280 279 275 276 276 271 266 277 278 278 278 279 279 279 278 277 276 274 273 271 269 270
289 290 291 292 292 293 292 292 292 293 293 293 293 293 288 285 282 281 292 293 292 285 275 277 271 272 283 282 282 282 284 278 282 278 276 279 273 273 276 278 277 276 277 276 273 270 269 271 272 269 268 266 266 268
288 289 290 292 290 290 291 292 292 293 293 292 288 281 278 276 291 291 285 280 281 281 280 274 266 271 281 278 278 275 280 276 273 276 279 276 272 280 277 274 275 275 276 271 268 266 261 262 267 266 265 264 264 264
287 288 290 291 290 290 290 291 293 293 292 284 280 277 277 290 282 279 275 275 276 272 271 273 275 273 279 273 275 277 274 276 270 273 274 271 269 278 275 269 270 272 271 266 266 265 265 265 265 262 260 258 258 257
286 287 288 288 290 289 289 289 291 288 281 283 281 282 279 279 276 273 271 271 268 268 266 271 273 276 278 277 276 275 274 274 268 273 271 266 271 271 271 268 264 264 264 260 259 261 261 261 260 259 258 256 254 253
285 286 286 287 288 288 287 288 288 290 289 285 280 277 273 273 269 268 264 261 260 262 265 266 271 277 273 280 276 274 270 269 271 270 268 265 266 263 265 260 256 256 256 255 255 256 256 256 255 253 253 252 251 250
284 285 285 285 287 287 284 286 285 288 284 277 274 270 270 267 263 265 264 269 269 273 269 275 271 272 274 275 275 270 268 268 268 265 264 264 267 262 257 255 256 253 254 254 253 253 253 253 252 250 249 248 248 248
283 284 283 282 285 285 282 281 281 280 274 271 269 268 264 258 251 249 250 256 260 260 274 274 269 272 268 272 273 268 264 265 266 263 264 270 258 256 254 252 252 252 252 250 249 250 251 250 248 247 245 244 244 246
282 280 275 283 284 282 279 274 270 267 262 261 257 259 254 253 250 249 250 253 258 260 273 275 273 271 269 271 267 266 266 263 265 262 253 252 253 254 252 251 250 249 249 248 247 247 249 248 247 246 243 243 243 244
280 265 280 282 282 276 275 267 265 260 259 257 247 247 248 251 251 251 252 254 260 263 273 273 269 269 272 267 267 266 265 261 246 245 250 252 253 252 251 249 248 247 247 246 244 245 245 243 243 244 246 245 243 244
267 273 280 280 276 267 259 260 261 259 254 255 249 248 249 251 252 253 254 257 257 264 270 271 273 268 267 265 261 258 247 246 249 249 250 249 249 248 249 248 246 246 245 243 244 243 243 245 246 245 243 243 244 244
274 277 278 277 272 257 257 256 257 254 250 249 253 256 254 253 256 257 256 257 258 260 259 268 267 266 263 252 248 247 249 251 252 251 250 248 248 247 245 246 246 245 246 242 243 244 243 243 245 245 245 245 246 244
275 274 275 273 267 257 254 253 255 255 253 254 254 254 256 256 256 256 256 255 258 257 252 253 249 245 247 248 249 252 253 253 252 251 250 250 248 247 247 248 247 244 244 242 243 245 243 245 244 244 244 244 245 245
265 266 267 260 255 254 251 251 252 251 252 253 254 255 256 257 255 253 252 254 251 246 248 247 247 248 247 247 248 250 250 253 252 253 252 249 248 247 244 241 244 242 243 242 244 242 242 243 243 243 243 243 243 244
259 267 256 259 256 252 251 250 251 252 252 251 254 254 252 253 252 252 253 249 246 245 246 247 247 246 248 247 245 244 244 246 246 248 250 249 246 245 244 242 245 242 241 241 241 242 241 241 242 243 243 244 247 247
260 260 254 253 253 250 247 250 248 247 249 248 248 249 250 251 252 254 246 246 246 246 245 245 244 242 244 244 245 245 244 246 246 244 243 243 240 240 244 240 240 243 242 241 239 241 243 247 248 246 246 247 247 248
255 246 246 245 247 243 243 244 246 246 245 245 246 246 246 245 249 251 246 245 245 246 246 244 242 243 243 242 243 242 241 240 241 240 238 243 243 240 237 238 237 238 241 241 242 242 243 244 248 247 247 246 246 246
250 241 243 240 241 242 241 241 242 245 241 238 242 243 243 243 251 248 246 244 244 244 244 241 240 240 241 238 239 238 237 237 241 241 239 237 237 238 240 239 239 240 239 243 241 241 242 243 245 246 246 245 245 246
239 236 238 233 239 240 237 239 238 238 237 240 238 238 237 245 251 246 244 242 239 240 239 239 239 239 239 237 239 240 240 235 238 241 240 238 240 241 239 241 242 244 242 241 242 242 243 245 245 246 246 248 250 249
238 236 237 235 236 236 237 236 235 237 237 238 236 238 241 247 247 247 243 245 246 245 243 243 243 240 240 239 237 236 235 234 239 241 239 238 240 240 243 242 243 246 244 244 245 246 248 249 249 249 249 249 249 249
236 234 238 235 235 232 233 233 234 235 235 237 235 240 243 244 245 241 245 245 241 238 237 234 235 236 236 237 236 237 238 236 238 239 240 241 240 241 241 242 245 255 247 248 249 250 249 249 249 249 249 249 250 250
236 233 235 236 234 236 235 235 235 235 237 233 237 238 239 239 237 237 242 242 237 238 237 237 238 234 236 236 236 236 236 239 242 242 242 242 243 246 245 244 245 246 246 247 252 252 249 250 250 250 250 250 250 249
236 232 236 233 237 237 237 236 234 232 232 235 234 238 238 238 238 234 234 234 238 238 236 235 234 237 238 238 239 240 238 240 243 244 243 242 244 243 243 244 245 246 247 246 248 249 251 250 250 247 249 248 247 247
233 232 236 235 237 235 233 231 230 230 231 231 230 234 236 236 239 235 238 236 235 233 236 237 236 234 237 237 238 239 243 241 242 243 242 241 243 243 245 247 248 247 245 245 245 244 245 246 245 245 245 245 244 244
235 233 237 240 238 234 231 232 231 233 232 234 235 232 236 237 239 242 240 238 237 237 242 241 241 244 244 245 243 243 248 244 245 247 246 248 250 251 250 250 249 248 247 246 244 243 241 242 241 241 242 241 242 242
233 232 232 235 238 238 235 235 236 237 235 235 236 233 234 237 242 244 244 245 245 246 246 246 246 247 247 248 248 249 251 250 252 255 256 256 254 252 247 244 241 241 241 241 242 241 241 240 241 241 241 242 242 243

GFSWCAN_sfc_thetae_084.txt.gz
Theta_e
293 293 293 293 293 294 294 294 295 295 296 296 297 298 298 298 299 297 294 296 290 284 284 284 285 281 280 281 277 277 281 282 277 275 272 270 267 273 273 277 279 280 278 276 272 270 272 280 279 278 280 281 282 282
292 292 292 293 293 292 293 294 294 295 295 296 296 297 297 298 298 298 291 296 295 285 285 287 286 287 288 287 283 279 280 278 283 277 273 272 265 266 268 267 278 277 280 277 279 278 281 280 282 283 283 281 282 282
291 291 292 292 292 292 292 293 293 294 295 295 296 296 296 297 298 296 291 293 291 284 284 286 283 287 288 288 290 281 278 283 282 282 275 271 269 273 267 268 271 277 279 278 279 280 281 282 283 283 283 282 283 283
290 290 291 291 292 292 292 293 293 293 294 294 295 295 296 297 297 297 289 292 289 285 280 278 285 284 288 289 288 287 285 284 283 282 277 270 269 277 271 275 274 276 278 274 274 278 280 281 282 283 282 282 282 283
290 290 290 291 291 291 292 292 293 293 293 294 294 295 295 296 297 295 290 291 291 285 278 278 280 284 285 287 286 286 286 282 277 276 275 278 275 275 271 273 270 277 277 276 274 280 281 282 282 282 281 281 281 281
289 289 290 290 291 292 292 292 292 293 293 293 294 294 295 296 296 289 282 289 292 291 282 276 282 277 280 284 284 284 284 280 278 276 273 274 279 278 271 268 278 279 280 281 279 281 282 282 283 281 281 281 282 281
289 289 289 290 291 292 292 292 292 292 292 293 293 294 295 295 292 283 279 282 293 291 281 276 273 279 282 281 282 281 283 281 279 276 274 277 278 276 267 270 278 280 281 281 281 280 278 279 279 281 281 280 276 274
288 289 289 290 291 292 294 293 293 293 292 293 293 294 295 295 293 286 287 292 293 285 281 275 274 277 282 281 280 283 280 281 281 280 273 277 277 276 271 279 279 279 279 279 279 279 280 278 278 276 274 273 270 271
287 288 289 289 290 293 293 293 293 293 292 293 294 294 291 288 283 281 293 294 291 282 275 276 268 268 278 280 281 282 282 277 282 278 276 278 274 274 277 277 277 276 277 277 273 271 271 273 274 271 270 267 268 268
287 287 288 289 290 291 291 290 291 292 292 293 290 283 278 282 292 291 285 282 282 282 279 270 262 269 279 274 272 275 278 278 273 277 278 276 277 281 279 275 278 276 276 274 269 267 263 265 270 269 267 266 266 265
286 287 287 288 289 289 289 291 291 292 293 285 280 278 282 291 281 277 275 275 275 273 276 274 271 269 279 272 277 277 271 274 271 274 276 274 275 279 281 273 274 275 275 275 276 276 274 272 270 267 262 260 260 258
285 286 286 287 288 289 288 290 291 288 284 282 282 282 282 278 276 272 270 271 270 270 265 269 271 274 278 276 272 276 273 274 269 275 272 267 272 278 275 275 271 271 271 265 263 266 264 264 263 263 261 258 256 254
283 285 285 286 287 288 287 287 288 290 288 283 279 274 274 272 269 267 263 262 267 258 264 267 268 272 278 279 276 273 271 270 272 271 270 270 275 265 274 265 260 259 262 260 258 259 259 257 257 256 255 253 252 250
283 284 285 285 285 286 286 285 285 286 283 277 274 269 268 266 262 263 266 267 266 267 264 267 264 270 271 275 275 270 269 267 267 267 269 266 268 271 271 262 261 259 260 259 257 256 256 255 254 252 252 250 250 248
282 283 283 281 284 285 283 282 281 272 274 273 270 264 264 261 250 247 247 256 257 258 269 265 264 272 269 269 273 268 265 264 266 264 266 269 268 263 259 258 259 259 257 255 253 254 253 252 252 248 244 244 245 245
281 280 276 281 283 282 278 275 270 267 261 259 257 259 254 257 249 248 247 252 256 265 270 269 263 263 262 268 267 266 265 265 266 262 256 252 251 250 251 253 253 254 253 251 251 251 251 250 250 249 242 242 243 244
279 266 278 281 282 275 274 268 265 260 260 252 248 246 247 247 249 247 248 253 259 260 270 271 264 266 267 261 262 266 267 264 255 247 247 247 248 247 249 251 250 251 251 249 247 248 246 245 246 245 247 244 242 242
266 272 279 280 275 266 258 260 262 260 255 254 249 247 248 247 248 249 251 255 258 262 264 267 271 267 263 263 260 262 247 244 245 246 248 247 246 247 250 250 251 250 248 248 249 245 245 246 248 247 245 242 242 242
274 276 278 277 270 257 258 255 257 255 254 254 253 254 252 251 255 256 253 255 258 260 259 266 268 266 262 249 245 244 244 244 247 250 248 246 249 249 250 250 250 247 247 245 246 248 245 244 246 246 246 245 246 243
274 274 274 271 266 257 254 253 254 255 254 254 256 255 255 254 253 253 255 255 258 257 256 255 249 245 246 246 246 250 252 251 251 249 249 250 251 251 250 250 250 247 245 244 244 245 245 244 243 242 242 243 245 245
265 265 267 259 255 254 251 251 251 248 253 254 254 255 255 257 252 251 252 255 251 247 249 247 247 247 248 248 248 248 251 254 254 253 251 250 251 251 249 248 247 247 244 246 248 243 243 244 243 241 242 242 241 243
259 267 256 259 256 251 251 250 251 252 251 252 255 255 251 252 253 251 253 249 246 245 245 246 247 246 248 247 246 246 247 250 251 252 251 250 249 250 249 248 249 247 245 242 243 244 241 241 240 241 242 242 244 244
260 259 254 253 253 251 247 250 248 248 249 249 250 253 251 252 252 254 247 247 246 246 245 245 245 245 246 247 248 248 247 250 249 249 249 248 246 246 246 245 244 244 242 241 238 240 242 245 246 245 244 244 244 244
255 246 246 245 247 243 243 244 246 247 246 245 246 248 250 248 250 253 248 246 246 247 247 245 245 248 248 248 247 246 245 246 246 245 244 248 248 244 242 241 239 238 240 241 241 240 242 242 246 245 244 243 242 243
251 241 243 240 242 243 242 242 242 245 243 240 244 246 244 243 252 250 250 248 247 247 247 245 245 245 247 246 245 244 241 240 244 246 243 239 239 238 240 239 239 239 238 242 240 240 240 240 242 243 243 242 242 242
239 236 238 233 238 241 238 240 237 237 236 240 238 238 236 243 249 247 248 248 247 247 247 247 247 247 247 243 244 245 243 235 237 242 240 237 239 241 239 242 242 245 241 240 242 240 240 242 241 242 242 243 245 244
240 237 236 235 235 235 237 235 235 238 237 238 235 238 240 244 243 244 245 247 248 247 246 246 246 246 246 244 240 237 235 233 238 240 238 237 239 239 242 242 242 245 241 241 241 242 243 243 242 243 244 243 243 244
236 234 238 236 235 232 234 233 235 236 235 236 235 240 242 242 244 241 242 243 242 241 243 241 241 239 238 238 236 236 238 236 237 238 238 239 238 239 239 240 242 252 243 244 244 244 243 244 245 245 248 248 247 247
236 234 235 237 235 237 235 236 235 235 237 233 237 239 239 239 237 236 239 238 233 236 237 237 240 235 236 235 235 234 235 238 242 241 241 242 241 245 241 241 242 243 243 244 251 250 246 247 247 247 249 249 249 247
237 231 236 234 238 238 237 235 234 232 231 234 234 238 238 238 238 234 233 233 237 238 237 235 234 236 238 237 239 240 238 239 241 243 242 242 244 242 240 241 242 242 243 242 245 245 251 249 248 245 244 244 243 243
232 232 236 236 238 235 232 229 228 229 229 230 228 233 235 235 239 235 236 235 234 232 235 237 235 232 235 236 237 238 243 240 240 242 241 240 240 240 241 243 243 242 243 245 247 246 246 243 241 240 241 242 242 243
234 233 237 240 239 234 231 231 230 232 232 234 235 230 236 237 239 242 240 236 235 236 240 238 236 242 241 243 240 241 245 242 241 244 244 245 244 245 246 248 249 248 248 248 247 246 245 242 241 240 241 241 242 242
232 231 231 235 238 239 235 234 236 238 235 235 236 233 232 236 242 244 242 240 241 242 243 244 246 245 245 247 246 246 249 248 248 254 256 255 254 253 250 248 246 246 244 243 242 241 241 240 241 241 241 241 242 243

GFSWCAN_sfc_thetae_087.txt.gz
Theta_e
292 292 293 293 293 293 293 294 294 294 295 295 296 297 298 298 299 296 294 295 290 284 282 284 285 282 281 281 278 277 281 280 277 279 277 274 268 273 274 278 280 278 278 276 272 273 273 280 280 278 281 282 282 282
291 291 291 292 292 293 293 293 293 294 294 295 295 296 297 298 298 298 291 296 295 286 285 288 286 287 287 286 282 281 280 279 283 277 273 271 268 268 268 272 279 279 281 276 278 279 281 280 281 283 284 283 282 282
289 289 290 290 291 292 292 293 293 293 294 294 295 296 296 297 298 296 292 294 291 284 283 284 283 288 288 287 289 281 278 283 283 282 276 272 270 273 268 269 272 278 279 280 281 279 279 281 282 283 284 284 283 282
289 289 289 289 290 291 291 292 292 293 293 294 294 295 295 296 297 297 291 293 290 285 276 276 285 284 287 288 288 287 285 284 282 280 275 273 270 278 272 276 275 278 279 275 275 279 281 282 283 283 282 283 283 283
288 288 289 289 289 290 290 291 292 292 292 293 294 294 295 295 296 294 293 293 292 284 277 273 279 283 285 286 286 286 285 282 276 275 272 273 274 273 269 273 269 277 277 277 276 280 281 283 284 283 282 281 282 281
288 289 289 289 289 290 290 291 292 292 292 293 293 294 294 295 296 290 282 289 292 289 280 271 280 277 280 284 284 285 286 281 278 275 272 275 281 278 268 266 277 278 279 281 280 283 282 283 284 282 281 281 281 280
287 287 288 289 289 289 290 291 292 292 293 293 293 293 294 294 291 285 281 285 293 288 279 275 269 277 282 281 281 282 284 282 280 275 272 277 278 280 274 265 278 279 280 280 281 281 278 280 281 281 281 280 277 275
287 287 287 288 288 289 290 291 293 293 294 293 293 293 293 294 293 287 289 293 292 284 278 274 274 276 282 278 279 283 281 281 281 280 273 276 276 273 272 278 280 280 279 279 280 279 281 280 278 278 275 274 271 272
287 287 287 288 288 289 290 291 292 293 294 294 293 293 289 287 284 285 294 295 289 281 275 275 270 270 277 276 281 282 281 277 283 279 276 278 276 274 277 280 278 277 278 279 275 273 273 277 277 274 272 270 271 271
286 286 286 287 287 289 289 290 291 292 293 293 289 283 279 283 292 292 287 282 281 281 277 273 261 269 278 274 278 276 277 278 274 277 278 277 277 281 280 276 278 278 279 275 271 269 266 268 273 271 272 271 272 269
285 285 285 286 287 288 288 289 290 292 292 285 281 278 283 292 284 279 275 275 276 273 276 267 267 266 275 275 276 277 271 272 271 273 275 274 273 279 282 274 276 278 276 276 280 281 278 278 275 271 265 266 265 263
284 283 284 285 286 287 288 288 288 287 285 284 283 285 283 279 276 272 271 272 269 265 266 269 272 271 272 272 272 276 273 273 270 276 273 266 275 279 277 277 275 275 275 276 274 275 273 271 271 271 266 263 260 257
283 283 283 284 285 286 287 286 286 288 289 284 279 276 274 272 269 267 265 265 262 259 267 267 266 273 277 274 271 270 270 271 273 272 267 269 271 275 277 271 272 272 273 269 262 262 263 260 260 261 259 257 255 254
282 283 282 284 284 285 286 284 284 284 282 275 271 268 265 264 260 264 262 263 266 265 265 264 269 271 271 271 273 270 270 266 265 266 267 266 271 275 266 267 267 266 268 269 265 261 260 259 256 255 256 255 254 252
281 282 282 281 283 284 282 281 280 272 272 271 268 262 259 258 250 246 245 254 257 255 269 264 266 271 270 263 268 267 265 264 267 268 268 265 256 256 260 259 263 262 261 259 258 258 256 255 254 250 249 250 251 250
281 279 275 281 282 280 279 272 268 268 261 262 258 258 253 255 250 249 247 254 255 261 265 266 264 263 262 263 262 261 262 262 263 263 258 251 251 250 250 251 252 254 254 254 255 255 254 253 253 249 245 246 247 249
278 267 278 280 279 276 275 265 263 260 255 253 249 243 247 248 251 248 249 254 259 262 262 262 262 263 265 261 258 264 264 263 265 255 251 248 247 249 247 247 248 250 253 253 253 253 251 249 250 250 250 243 244 242
264 271 278 280 270 267 259 259 260 258 252 252 249 249 247 247 247 249 250 255 259 259 262 266 267 262 259 258 257 263 261 244 243 244 247 249 248 246 245 246 247 249 250 252 252 249 248 250 251 250 248 245 244 241
270 275 277 276 269 258 258 256 257 254 249 249 250 253 251 250 252 253 252 254 256 259 261 263 266 263 262 250 245 242 241 243 245 247 247 245 248 247 247 247 248 250 250 250 251 251 250 248 247 248 248 247 248 243
274 274 274 271 266 259 255 254 256 258 254 253 252 251 254 254 254 253 253 255 258 258 261 260 250 244 244 245 245 246 249 251 249 249 251 248 248 248 249 248 250 250 249 249 248 248 247 247 245 244 245 245 247 245
265 266 268 260 256 254 251 251 252 251 255 255 254 256 256 257 254 252 251 254 253 248 250 246 246 248 249 248 248 247 249 250 252 251 251 250 251 248 248 251 250 247 251 251 251 249 249 249 245 242 243 242 241 242
259 266 256 259 256 253 251 251 251 253 253 251 254 254 254 254 253 252 254 249 246 246 246 246 246 246 247 247 247 247 247 248 251 253 252 253 251 251 251 248 252 251 251 251 251 250 247 245 243 243 247 245 243 243
260 260 254 253 254 252 248 251 250 248 253 251 253 256 253 252 252 254 248 247 246 247 246 246 246 246 246 248 249 249 248 249 250 250 251 250 250 251 251 250 252 251 250 248 247 249 249 248 247 246 243 243 243 243
255 246 246 246 248 245 244 246 248 248 249 248 251 252 251 249 249 253 248 245 245 248 247 246 247 249 249 249 248 247 246 246 249 248 247 251 250 248 248 248 248 248 249 248 247 247 246 244 246 244 243 242 241 242
251 241 243 240 243 245 243 243 244 246 242 240 244 246 245 243 253 250 249 248 248 248 248 247 248 248 249 248 249 248 245 245 249 250 247 247 246 247 247 246 246 246 244 245 244 243 240 239 241 242 242 241 242 241
239 236 238 233 239 243 240 242 239 239 236 240 238 238 236 242 247 245 249 248 248 248 248 248 247 248 248 246 245 245 245 242 243 248 247 244 245 244 243 244 244 245 240 239 241 240 240 241 240 241 241 241 244 241
241 237 236 235 235 237 239 238 237 238 236 238 236 238 240 245 243 243 245 249 249 248 247 247 246 246 247 245 244 242 240 238 239 242 239 238 239 239 241 242 243 244 240 240 240 241 242 242 241 242 242 241 241 243
236 234 238 236 235 232 234 234 235 236 235 236 234 239 242 243 244 243 243 243 239 243 245 243 241 240 240 241 240 240 242 240 242 241 238 238 237 238 238 238 240 252 242 242 243 242 241 242 242 242 242 244 245 243
236 233 234 237 235 237 235 236 236 235 237 233 237 239 239 239 237 236 239 237 233 236 237 237 238 235 237 238 237 237 236 239 243 242 241 241 242 244 240 239 240 242 242 242 249 249 245 245 245 244 245 245 245 243
236 231 236 235 239 239 237 235 234 232 231 234 233 237 238 238 238 233 233 234 237 238 235 234 232 235 237 237 238 241 236 236 240 242 241 242 243 242 239 240 241 241 241 240 244 244 250 248 247 245 244 242 242 242
232 231 235 235 238 235 232 228 227 228 229 229 227 232 235 235 238 235 234 233 232 231 236 237 236 232 236 236 236 239 244 239 238 240 239 239 240 240 241 242 243 240 240 241 242 241 243 242 242 242 242 242 242 243
234 233 237 241 239 234 230 230 230 232 231 233 235 229 235 236 239 242 239 235 235 236 240 237 236 242 239 240 238 238 244 241 240 243 243 244 243 244 244 244 244 241 242 245 245 246 246 245 244 243 242 242 242 242
232 230 231 236 240 239 236 235 237 238 236 236 238 233 232 237 243 245 242 240 244 244 244 243 243 243 242 243 243 243 246 245 247 252 254 254 252 251 248 247 246 245 244 244 244 244 244 242 241 242 241 242 242 243

GFSWCAN_sfc_thetae_090.txt.gz
Theta_e
292 292 292 293 293 293 293 293 294 295 295 295 296 296 297 298 299 298 294 297 291 286 287 286 288 285 285 286 283 283 285 285 284 283 284 281 281 280 282 283 283 283 282 281 280 280 278 285 283 283 289 285 287 289
291 291 291 291 291 292 292 292 292 293 294 294 295 295 296 297 298 298 291 296 296 287 287 289 289 289 289 289 287 283 284 284 287 285 282 279 277 276 280 279 282 282 287 284 285 285 284 286 286 287 289 288 286 287
290 290 290 291 291 291 291 291 292 292 293 293 294 295 295 297 297 297 293 294 289 285 285 286 286 291 291 290 292 286 284 286 286 286 282 280 280 279 278 278 280 282 283 285 285 286 285 285 286 287 288 288 287 288
288 288 288 289 289 289 289 290 291 291 292 293 293 294 294 295 296 297 292 295 292 285 281 282 288 288 291 290 290 290 288 286 286 286 283 280 281 281 280 281 283 284 283 282 283 281 284 285 287 288 286 286 286 286
287 288 288 288 288 288 289 289 290 291 292 292 292 293 294 295 296 296 294 294 293 287 280 281 283 287 288 289 288 289 288 286 285 284 283 282 280 279 276 278 279 281 281 283 284 285 287 286 287 286 285 285 286 285
287 287 287 287 288 288 289 289 290 290 291 292 292 293 294 294 295 291 284 291 294 292 283 278 283 282 285 287 286 286 288 286 286 284 283 283 283 282 279 277 282 282 283 286 286 286 286 286 288 286 286 285 285 284
288 288 287 287 287 288 289 289 290 291 292 292 293 293 293 294 292 285 284 287 294 292 282 277 278 281 284 284 285 285 286 286 286 283 280 282 281 283 280 278 283 282 283 284 285 284 283 284 284 284 284 284 281 280
286 287 288 288 288 287 288 289 289 290 291 293 293 293 293 293 292 287 291 292 294 286 284 277 276 278 284 281 281 285 283 284 284 283 280 281 279 280 277 282 284 282 282 282 282 282 283 284 282 281 280 279 278 277
285 286 287 287 287 287 288 289 290 291 291 292 293 293 290 287 284 286 293 294 292 285 278 277 273 273 282 281 282 283 284 279 285 281 281 281 279 275 280 282 282 282 281 282 279 276 277 280 281 279 278 277 278 276
284 285 285 286 286 286 287 288 289 290 290 291 290 284 280 284 292 292 287 283 281 282 279 276 272 275 281 280 279 280 282 280 276 280 281 278 279 283 282 283 283 282 282 279 275 274 273 274 277 276 277 278 280 277
283 283 284 284 285 286 286 288 288 289 289 286 282 279 282 292 286 282 278 277 278 275 276 272 273 274 280 277 277 280 277 279 274 277 277 276 277 281 284 280 280 281 281 280 283 285 283 283 280 278 274 274 274 273
283 283 284 284 284 285 286 287 288 284 283 283 283 285 285 281 278 274 273 274 274 272 272 273 274 276 277 279 278 277 275 274 272 278 276 272 278 282 283 283 280 280 279 280 280 283 281 279 280 279 277 274 272 269
283 283 283 283 284 284 285 286 285 285 285 284 279 277 276 275 270 268 266 267 269 269 270 272 272 276 278 278 274 274 272 272 276 274 272 276 280 277 279 281 277 280 280 281 281 277 276 277 271 275 272 268 265 262
282 282 282 282 282 283 284 285 284 282 280 277 274 269 271 268 269 267 270 270 272 272 269 274 271 273 275 273 273 271 272 270 268 268 270 277 271 262 264 267 269 274 277 279 281 277 271 268 265 263 266 264 262 259
281 281 280 280 281 283 283 282 280 272 273 273 272 267 266 265 256 254 253 265 263 270 273 271 271 274 273 270 274 271 267 267 268 268 273 274 262 258 261 261 260 262 264 266 264 265 263 261 261 257 256 259 259 255
280 278 275 280 280 281 280 273 269 270 262 265 261 261 258 261 259 259 257 260 259 269 270 270 267 267 266 266 267 267 266 264 269 271 273 262 259 257 256 256 256 257 260 261 262 261 259 258 258 255 253 254 255 255
278 268 278 280 278 275 275 267 267 259 257 256 252 250 250 253 255 253 253 257 259 267 267 266 264 265 267 265 264 264 265 270 271 268 255 252 253 253 252 252 254 255 256 256 256 257 255 253 252 253 253 251 253 253
266 271 278 279 272 269 261 261 260 257 253 254 253 252 251 251 252 253 253 256 261 263 265 266 268 263 263 262 264 268 261 253 251 251 251 249 250 250 250 251 252 252 253 253 253 252 253 253 256 257 253 251 250 250
273 274 276 275 270 262 261 258 258 254 251 251 254 255 254 253 255 255 255 257 258 260 263 265 268 265 264 251 251 250 249 249 250 251 251 249 249 248 249 251 252 253 252 252 254 254 254 255 257 255 253 253 254 252
274 275 273 271 267 262 258 255 256 256 254 255 255 255 255 255 255 254 254 255 258 259 261 257 254 248 248 248 248 248 249 251 252 252 254 253 252 250 250 252 253 253 252 252 252 252 252 252 253 253 253 254 253 252
266 267 268 260 257 255 252 251 252 253 256 255 255 257 256 256 252 251 252 254 254 247 250 247 247 249 250 250 250 249 249 250 252 253 254 254 253 253 252 252 252 253 254 254 254 253 255 254 252 252 253 252 252 253
259 266 257 260 257 253 252 251 252 253 253 252 253 254 253 252 251 251 253 251 247 246 246 247 248 248 248 249 249 249 249 249 250 252 254 254 253 253 252 252 254 252 253 254 254 254 252 251 251 252 253 251 252 252
261 260 256 254 254 253 249 251 250 249 250 250 251 252 250 249 250 253 248 248 248 249 247 247 248 248 247 249 250 250 249 249 251 251 252 252 252 253 253 252 254 253 253 252 252 253 252 251 252 252 252 251 252 252
255 246 247 247 248 245 248 248 249 248 248 248 250 249 250 248 249 253 249 246 247 249 249 248 248 249 250 250 249 249 248 247 250 250 249 252 251 249 250 250 250 250 251 251 252 252 251 251 251 251 251 250 250 250
252 242 244 243 244 246 247 247 247 249 246 242 246 247 246 243 251 250 249 249 247 247 248 248 249 249 249 250 250 249 247 246 249 250 249 250 249 250 251 250 250 249 249 251 250 250 249 249 250 250 249 249 249 248
240 237 239 238 242 244 241 245 242 242 241 243 240 239 237 243 248 247 249 248 248 248 248 248 248 249 250 248 249 249 247 244 245 250 248 247 248 251 251 252 252 251 247 248 249 248 248 247 247 247 248 247 246 247
242 238 236 235 239 240 242 240 239 240 239 239 237 238 241 245 244 245 247 249 249 248 249 248 247 247 246 247 247 246 245 243 244 246 244 244 244 245 247 248 248 248 244 244 246 247 247 247 247 247 247 247 246 247
236 235 238 237 236 233 236 236 236 237 236 237 235 241 244 244 245 245 247 247 245 246 247 246 245 244 244 245 243 241 243 242 242 243 243 243 242 242 241 242 243 252 246 245 246 245 246 247 247 247 246 247 248 247
236 232 233 237 235 237 235 237 236 235 237 233 237 240 240 241 240 242 244 242 237 240 241 241 243 237 239 239 238 239 238 239 244 243 243 244 245 247 243 243 243 245 245 245 249 248 246 247 247 247 247 247 248 247
236 231 236 235 239 240 238 235 234 231 231 233 233 237 238 238 238 234 234 234 237 238 238 236 234 235 239 238 241 242 237 237 239 243 243 243 245 244 242 243 244 244 244 243 247 248 250 250 250 248 247 247 247 247
232 231 235 235 239 235 232 228 226 227 228 228 226 232 236 235 238 235 236 234 233 231 234 236 235 234 235 236 237 239 244 240 238 241 241 241 242 242 243 244 245 243 242 244 244 244 246 246 245 245 245 245 245 246
233 233 238 242 240 233 230 230 230 232 231 233 235 228 235 237 241 243 239 235 235 237 240 237 237 242 241 241 239 240 244 242 242 244 243 245 244 245 246 246 245 244 244 245 245 245 246 245 245 245 245 244 244 244
232 230 231 236 238 239 235 234 237 238 235 236 237 232 232 236 244 246 243 241 245 245 246 246 245 245 245 245 245 246 247 246 247 252 254 254 254 253 250 247 245 245 245 245 245 245 244 244 244 244 244 243 244 244

GFSWCAN_sfc_thetae_093.txt.gz
Theta_e
292 293 293 293 293 293 293 293 294 295 295 295 295 296 297 297 299 299 296 299 292 287 289 288 289 287 286 288 284 284 286 286 284 284 284 284 283 283 284 286 283 283 283 283 284 282 281 286 285 287 290 288 289 293
292 292 292 292 293 293 293 293 292 293 293 294 295 296 296 297 297 299 292 298 298 289 288 291 291 291 290 291 290 285 286 286 290 287 285 284 281 282 285 281 285 283 288 285 286 288 288 288 289 290 291 290 289 292
291 291 291 291 292 292 292 292 292 292 292 292 293 294 295 296 297 296 293 295 289 285 287 287 288 292 293 292 294 288 287 288 288 287 288 285 282 286 281 283 285 285 286 286 287 289 288 287 288 288 290 290 290 291
290 291 291 291 291 291 291 291 290 291 291 291 292 293 294 295 296 297 292 295 292 285 283 285 290 289 293 293 292 292 289 289 288 289 286 284 283 284 284 284 285 286 286 285 285 283 286 287 288 289 288 288 288 288
288 289 289 289 289 289 289 289 289 290 290 291 292 292 293 294 295 296 294 294 296 289 282 284 286 289 291 291 290 290 290 288 288 286 285 284 284 282 280 281 282 284 285 285 286 288 289 288 289 289 288 287 287 286
288 288 288 288 288 288 288 288 288 289 290 290 291 292 292 293 294 292 284 292 295 294 284 279 287 285 288 289 288 288 289 289 289 287 286 287 285 284 281 281 286 286 286 288 288 289 288 287 291 290 289 288 287 286
287 287 287 287 287 287 287 287 288 288 290 291 291 292 292 293 293 286 285 289 295 294 284 279 280 284 287 287 287 287 289 288 288 286 284 285 283 285 282 280 286 286 286 286 287 286 284 285 287 287 287 287 284 282
285 286 287 287 287 287 287 287 288 289 290 290 291 292 292 293 292 287 292 293 294 286 285 278 278 279 286 282 281 287 284 286 286 285 285 283 282 284 279 284 287 286 285 284 284 284 283 284 285 283 282 281 280 280
283 284 285 286 287 287 287 287 287 288 289 290 291 292 291 288 284 287 293 294 293 285 280 280 276 275 284 283 284 283 285 280 285 281 282 284 281 277 282 283 284 286 283 284 283 280 279 280 282 280 280 280 280 279
284 285 285 285 285 286 286 286 286 288 288 289 288 284 280 285 292 292 287 283 282 283 282 278 283 277 281 281 279 280 283 280 277 281 284 279 279 284 285 285 285 285 284 282 277 276 275 277 279 279 280 281 282 280
283 282 283 283 284 285 285 286 286 288 286 286 281 280 287 292 287 283 278 277 279 276 280 280 280 276 283 278 279 281 278 280 274 278 278 277 277 282 286 285 286 284 285 283 285 286 284 285 283 281 280 280 280 279
283 283 283 283 283 284 285 285 286 284 283 282 282 283 285 282 279 274 273 277 276 274 276 277 276 282 280 283 280 279 276 277 272 281 277 273 280 283 284 285 285 283 282 282 283 284 283 283 284 282 281 281 279 278
282 283 283 283 283 284 284 284 285 285 284 282 279 278 278 277 271 269 267 270 270 274 275 277 276 278 279 281 278 277 273 273 278 274 272 277 279 273 271 271 273 278 280 281 282 282 283 282 279 281 280 277 277 272
282 282 282 282 281 282 283 284 284 282 277 276 275 270 272 269 272 272 274 275 278 277 276 279 276 277 279 276 276 272 275 275 270 269 271 279 274 267 266 267 266 268 268 271 276 279 278 273 272 267 271 272 271 267
281 282 281 280 281 281 282 282 280 276 273 273 274 269 270 269 267 264 263 270 270 278 277 276 276 277 275 273 275 272 269 268 270 270 276 279 267 264 265 263 262 262 262 264 268 268 266 265 266 266 261 265 267 262
281 280 278 280 281 280 280 275 273 273 265 266 262 267 263 268 265 266 265 267 265 276 277 276 272 270 270 272 269 269 268 267 272 277 278 269 262 260 259 258 257 257 258 259 263 264 265 262 263 265 259 259 259 261
279 274 278 280 278 276 276 271 270 261 261 263 258 256 257 260 260 259 258 263 264 271 273 272 268 268 270 268 267 271 270 275 275 266 260 256 255 255 254 254 256 256 256 258 258 258 257 256 256 257 257 256 258 257
273 276 278 279 274 271 265 265 263 262 257 257 259 256 257 256 258 259 259 261 264 270 273 272 272 268 268 266 269 273 263 259 258 257 256 254 253 253 254 254 254 255 256 256 255 255 255 255 258 259 256 255 255 255
275 276 276 275 272 267 265 262 262 258 255 256 258 258 258 257 259 258 259 261 262 264 269 271 270 270 269 256 256 257 255 253 254 255 256 253 252 251 251 253 253 255 254 255 256 258 258 257 260 258 256 257 257 257
276 275 274 271 270 266 262 259 262 260 257 257 259 258 258 258 258 258 259 259 262 264 264 262 256 252 252 252 252 251 252 252 252 254 259 257 256 253 254 253 255 255 255 255 255 255 256 256 256 256 257 258 257 256
269 269 269 265 262 259 256 255 256 257 259 258 258 260 258 259 257 256 256 258 258 251 254 250 251 251 251 251 252 251 251 252 252 253 254 254 256 255 255 255 255 256 256 256 256 256 257 256 255 256 257 257 257 256
265 267 263 264 261 258 255 254 256 257 259 257 258 258 256 256 255 254 255 255 251 249 249 249 249 249 250 250 250 251 251 250 251 252 253 255 254 255 255 254 256 255 255 256 257 256 254 254 255 256 255 254 255 255
262 262 259 258 258 257 252 256 255 254 257 256 258 257 255 255 253 255 252 250 250 250 249 249 249 249 249 251 251 251 250 249 252 252 252 253 253 254 254 254 256 255 255 253 255 255 253 254 255 254 254 254 255 254
257 249 250 250 252 250 252 252 254 254 253 254 256 254 252 251 251 256 252 251 250 251 250 249 249 251 252 251 252 251 249 249 252 253 251 252 253 252 252 253 253 253 253 254 254 254 254 254 254 254 254 254 254 254
255 244 246 245 249 250 250 251 250 253 250 248 252 251 249 246 254 253 252 251 251 250 250 251 251 251 251 252 253 252 249 248 249 251 251 252 252 253 253 253 252 251 252 254 253 253 252 253 253 253 253 253 253 252
243 240 243 242 245 247 245 249 245 244 246 249 246 246 244 249 253 251 251 250 250 250 250 249 249 250 252 250 250 251 249 248 247 251 250 248 249 251 253 254 254 252 251 251 253 252 252 251 251 251 251 250 250 250
245 242 242 241 242 243 245 244 244 247 245 245 244 244 248 250 250 250 251 251 251 250 250 250 249 249 249 249 250 249 248 248 247 248 248 247 248 248 248 250 251 250 249 249 250 250 251 250 250 250 250 250 249 249
241 240 243 242 242 241 243 243 245 243 244 242 240 246 247 248 250 251 251 250 248 248 249 249 249 248 247 248 247 246 247 246 247 247 247 247 246 247 246 247 247 252 249 248 249 248 248 249 249 249 248 248 249 249
242 239 238 241 241 244 242 244 244 243 242 242 244 247 247 248 248 248 249 246 243 245 247 249 249 245 247 247 245 245 245 245 248 246 246 249 250 250 247 247 247 248 249 248 250 251 248 248 248 249 248 249 249 248
241 236 243 242 243 246 244 241 242 239 238 238 237 241 243 244 245 243 243 243 245 247 246 244 243 243 245 245 246 247 245 245 245 247 248 248 248 248 247 247 248 248 248 247 249 250 252 252 252 250 248 248 248 248
238 239 242 244 244 243 240 236 234 234 235 236 234 237 242 241 242 244 243 243 242 241 243 245 245 244 243 244 244 245 248 246 243 243 244 245 246 246 247 247 248 247 246 246 247 246 248 247 247 246 247 247 246 247
241 240 242 245 245 240 237 239 239 240 240 241 242 236 241 242 246 249 244 241 242 243 244 244 243 246 245 245 245 246 246 246 246 246 245 246 247 247 248 248 247 246 245 246 247 247 247 246 247 247 247 246 246 246
239 238 239 241 243 244 241 239 243 243 241 241 242 240 241 241 246 249 245 243 246 246 247 247 247 247 246 246 246 247 247 247 246 251 253 253 252 253 252 250 250 248 247 247 248 248 247 246 246 246 245 245 245 246

GFSWCAN_sfc_thetae_096.txt.gz
Theta_e
292 292 292 293 293 293 294 294 294 295 296 296 295 295 296 297 297 297 294 297 290 285 287 287 289 285 285 286 282 284 284 284 284 283 283 282 282 282 281 282 283 283 283 282 284 281 278 284 284 285 287 283 284 288
292 292 293 292 292 294 294 294 294 294 294 294 295 295 295 296 297 298 291 297 297 286 286 290 290 291 289 289 288 284 284 284 287 284 284 284 280 281 282 278 284 281 285 284 285 283 285 285 284 286 287 286 284 286
291 292 292 292 292 293 293 293 293 293 294 294 293 294 295 296 296 296 292 294 290 285 285 285 285 291 292 291 292 285 285 287 286 286 286 283 281 283 278 278 280 284 285 285 284 284 283 284 285 285 286 285 286 286
291 292 292 292 292 292 292 292 292 292 292 292 292 293 293 294 295 296 292 293 291 285 281 281 289 287 291 292 290 290 288 288 287 286 283 281 279 283 280 280 282 283 283 281 281 283 284 285 286 287 286 284 285 285
290 291 291 291 291 291 291 291 291 291 291 291 292 292 292 293 294 294 294 294 294 287 280 279 282 286 289 290 289 289 289 286 284 282 282 279 281 280 278 278 277 281 282 282 281 286 287 286 287 287 285 284 284 284
290 290 290 290 290 290 290 290 290 290 290 290 291 291 292 292 293 289 284 291 294 293 282 277 283 281 283 286 287 287 287 285 284 282 281 283 282 282 276 273 282 283 284 285 284 285 285 284 286 286 285 285 284 283
289 289 289 288 288 288 288 288 288 288 289 289 290 290 291 292 289 285 283 288 294 293 282 278 277 281 283 283 283 284 286 283 283 282 280 281 281 282 277 271 282 282 282 282 282 282 281 283 284 285 285 284 282 279
288 288 288 287 287 287 287 287 287 288 289 289 290 291 291 292 290 283 289 293 294 286 284 277 275 275 283 279 279 283 281 283 280 279 279 279 279 279 273 280 282 282 282 281 283 283 283 282 282 281 280 280 278 278
284 284 286 287 287 287 287 287 287 287 288 289 290 291 288 284 282 281 293 294 292 284 279 278 270 267 279 279 279 282 284 278 279 274 278 279 275 275 278 280 281 282 281 283 280 278 276 277 278 277 276 275 276 277
285 285 285 285 286 286 286 286 286 287 288 288 285 278 274 281 292 291 283 282 282 282 281 277 273 272 279 275 276 274 275 271 274 277 280 275 276 281 282 282 280 281 282 279 275 275 272 274 277 277 277 278 280 280
284 285 285 285 284 285 285 285 285 286 286 279 273 272 280 291 283 280 276 274 277 274 274 276 277 272 277 273 273 278 271 270 266 270 273 269 266 280 283 281 281 282 282 280 283 283 281 280 280 278 277 277 277 275
284 284 283 283 283 283 284 284 285 281 277 278 280 283 280 280 277 273 271 274 269 267 273 271 272 276 273 277 271 272 271 269 268 271 269 266 273 276 273 272 273 275 275 276 277 280 279 279 280 279 279 278 277 278
284 283 283 283 283 284 283 284 285 284 282 278 275 274 276 272 270 269 263 262 263 270 269 269 268 274 275 276 271 275 272 271 272 270 266 269 271 266 263 263 264 266 267 269 271 270 271 271 270 271 273 271 274 275
283 283 283 283 283 282 282 283 284 279 273 273 270 269 270 270 265 270 266 267 270 270 272 271 267 272 272 270 271 269 272 271 268 267 264 267 266 262 260 260 259 260 260 261 263 264 265 265 267 264 264 265 271 271
282 282 283 282 281 281 282 282 280 272 272 269 272 268 270 269 260 257 259 266 264 271 276 275 274 277 275 273 274 266 264 265 265 263 265 265 257 257 257 256 257 257 257 256 257 258 260 260 259 261 257 260 261 261
282 281 278 281 281 280 280 275 269 268 266 265 263 264 261 265 258 259 260 259 262 271 273 275 273 271 271 271 268 266 264 261 264 263 258 256 253 252 251 251 252 252 252 255 257 256 258 256 255 254 252 253 254 255
280 272 280 280 279 277 277 267 268 263 262 263 256 258 256 257 255 255 255 256 263 268 267 269 269 268 270 267 264 263 262 260 256 252 252 249 249 249 248 248 249 250 252 253 252 252 251 251 251 251 252 251 251 251
273 275 279 278 273 270 263 265 265 263 258 257 256 254 254 255 255 255 257 260 264 268 268 268 268 263 262 260 260 257 253 252 250 250 250 249 247 247 247 247 248 247 248 249 249 249 249 249 251 251 249 248 250 252
275 274 276 275 271 265 263 262 262 257 255 256 257 258 256 255 258 259 259 260 261 261 261 264 260 257 255 250 246 247 245 246 246 250 252 248 248 246 247 248 249 248 248 247 248 249 251 251 253 252 250 251 252 253
276 275 274 272 271 266 261 259 263 259 256 256 257 254 257 257 258 257 258 258 261 258 252 250 246 246 246 247 247 246 247 249 247 247 250 251 250 248 248 247 249 249 250 249 249 253 251 252 253 254 254 255 254 253
269 268 270 266 263 259 255 256 257 257 258 257 257 257 254 254 251 251 251 255 251 246 246 246 245 245 245 244 247 246 247 248 246 246 247 250 251 253 251 249 248 249 249 250 250 251 252 249 252 255 255 256 256 256
263 268 262 265 262 259 256 255 256 256 255 255 256 257 254 253 252 251 253 251 247 245 244 243 243 243 242 243 243 244 245 243 244 247 250 251 250 250 250 250 251 251 249 249 252 251 250 252 253 253 254 255 255 256
263 264 260 259 260 258 254 258 256 253 254 255 255 254 253 252 251 254 249 247 247 246 243 242 242 242 242 244 245 245 246 245 247 246 247 249 249 249 248 248 250 250 251 250 253 253 251 254 255 254 254 255 255 255
258 250 251 252 252 251 253 253 255 254 254 253 253 249 248 246 249 255 248 246 246 248 245 244 245 247 246 247 249 250 249 249 249 251 249 249 251 249 249 249 250 251 251 253 254 254 254 254 255 255 255 255 255 255
255 245 247 246 249 248 249 249 249 251 248 247 249 247 247 246 254 253 251 251 252 250 250 251 250 251 249 251 253 249 247 248 248 248 251 250 250 252 251 252 251 251 252 253 253 253 253 253 254 254 254 254 253 253
243 240 242 242 244 244 241 244 243 243 243 244 242 242 240 243 247 247 248 249 250 250 249 249 248 249 250 251 249 250 249 248 247 248 251 249 249 249 250 252 254 251 250 250 251 252 252 253 252 252 252 252 252 251
243 240 241 239 240 241 241 240 240 241 239 239 238 240 242 245 245 246 248 250 250 250 250 250 249 248 249 249 249 247 247 247 246 248 247 247 247 247 247 247 248 248 247 247 246 247 247 249 250 250 250 249 248 248
239 237 238 240 239 238 238 239 239 238 239 239 237 241 243 244 246 245 246 246 247 246 248 249 250 248 247 248 248 246 245 244 246 246 246 247 247 246 245 246 247 253 249 247 247 247 245 245 243 243 244 244 245 245
237 236 236 238 238 240 237 238 238 238 238 236 238 241 242 243 241 240 242 241 239 240 243 244 245 243 245 246 245 244 243 241 242 243 242 243 244 245 244 244 243 244 245 244 250 253 249 245 244 244 243 243 244 242
237 234 238 239 240 241 239 236 236 233 234 234 233 237 239 240 241 239 237 237 238 239 239 238 238 238 240 239 241 243 240 241 241 242 242 243 244 242 241 241 242 242 242 240 244 245 250 247 247 245 245 243 243 243
236 234 237 239 240 237 235 231 230 230 231 231 230 232 236 237 240 239 239 238 237 236 236 238 238 238 238 238 238 239 243 240 239 241 241 241 242 242 243 244 244 241 240 241 241 241 243 243 242 241 242 243 243 244
236 235 237 241 241 235 233 234 234 234 234 234 236 232 236 237 240 244 241 237 237 239 241 239 238 243 242 240 240 241 246 244 243 245 244 245 245 245 245 245 243 240 240 242 242 242 242 242 243 243 244 244 244 244
234 233 234 236 239 240 236 236 238 238 236 235 236 234 234 237 243 246 242 240 243 242 242 242 243 243 242 242 244 244 246 244 243 250 252 252 251 251 249 248 246 245 244 245 245 245 245 244 245 245 245 245 245 246

GFSWCAN_sfc_thetae_099.txt.gz
Theta_e
293 292 292 292 293 294 294 295 296 296 296 296 296 295 296 296 297 296 291 295 288 284 285 287 288 284 284 284 280 284 283 284 284 282 283 282 281 281 280 282 284 284 283 283 283 281 278 284 284 286 287 282 283 286
293 292 292 292 292 293 294 294 295 295 295 295 295 295 295 296 297 296 288 294 293 283 285 290 289 290 288 288 285 283 283 285 286 284 284 283 279 282 279 279 285 283 287 284 286 284 284 283 284 285 286 285 283 285
291 291 292 293 293 293 294 294 294 295 295 295 295 295 295 296 296 295 292 293 290 283 281 282 283 289 291 289 291 284 284 287 285 287 285 283 281 282 279 278 279 285 287 284 284 284 285 284 284 284 285 285 285 286
292 292 293 293 294 294 294 294 294 294 294 294 294 295 295 295 296 294 287 293 289 285 273 278 288 286 291 291 289 290 288 287 287 286 281 280 279 283 281 281 282 284 286 284 283 284 284 286 286 287 285 284 285 285
292 293 293 293 293 293 293 293 293 293 293 293 293 293 294 294 295 292 292 292 294 285 273 273 280 284 288 289 288 288 287 285 283 280 278 278 280 279 276 277 273 281 283 282 281 286 287 286 286 287 286 285 285 285
291 292 292 292 292 292 291 291 291 291 292 292 292 292 292 293 294 286 276 287 293 292 275 269 280 279 282 286 286 286 286 283 282 280 279 279 282 281 271 266 279 282 284 286 284 285 286 285 285 285 285 285 284 284
290 290 290 290 290 290 290 290 290 290 290 290 291 290 291 292 286 278 276 287 293 291 280 272 268 279 283 282 281 283 285 282 282 279 278 281 281 280 271 270 281 281 281 282 283 283 282 283 284 285 285 284 281 278
289 289 289 289 289 289 289 289 289 289 290 290 290 290 290 290 289 278 286 292 294 286 284 276 270 270 282 275 276 280 279 281 278 278 278 278 279 278 271 278 281 282 281 282 282 283 282 281 281 280 279 278 277 277
287 288 289 289 288 288 289 288 288 288 288 288 289 289 285 279 272 278 292 293 289 284 277 277 268 266 279 280 278 278 278 271 277 273 278 278 272 272 277 279 280 281 281 283 280 277 274 277 277 276 275 273 275 277
285 285 287 288 287 287 288 287 287 287 287 287 281 272 266 273 289 289 279 272 277 281 278 276 264 272 279 272 273 274 271 268 273 276 279 272 271 281 281 280 281 280 280 278 277 276 273 273 275 274 276 276 278 277
286 286 286 287 287 287 286 286 286 286 285 272 265 264 273 286 277 270 270 269 265 270 273 267 271 270 276 268 267 276 271 265 265 269 272 266 270 278 281 278 279 281 281 279 280 281 279 279 279 278 276 275 274 272
285 285 285 285 285 285 285 285 286 277 269 274 274 275 273 274 276 269 264 270 261 265 266 268 269 272 273 276 271 270 267 266 265 266 267 264 271 272 269 270 270 269 269 271 271 273 273 275 274 274 274 272 272 273
285 285 285 285 285 285 286 286 286 284 280 271 267 270 270 268 269 267 261 261 260 263 268 265 267 272 274 276 271 273 267 266 265 265 265 269 269 264 261 261 262 262 263 263 264 264 265 265 266 266 269 270 272 274
285 285 285 285 284 284 285 285 283 278 269 267 266 262 264 264 259 263 261 262 267 266 265 267 268 269 265 272 272 269 272 269 266 261 262 264 262 257 257 257 258 257 257 258 258 259 260 260 261 261 260 260 263 269
283 284 284 283 283 284 284 282 281 266 262 262 265 261 257 261 262 253 252 259 261 261 273 267 266 273 270 271 270 265 265 263 262 265 263 258 253 254 254 252 252 253 253 253 253 253 255 256 255 257 257 256 257 259
284 281 279 283 282 282 280 273 265 259 257 260 258 258 263 258 256 255 252 254 262 264 266 269 267 271 267 270 269 267 264 260 264 255 253 252 250 249 248 248 249 248 248 250 250 250 251 251 251 252 252 252 253 253
280 269 281 281 280 279 278 262 259 256 256 258 250 249 252 254 250 253 250 254 262 268 261 262 261 263 271 267 259 258 260 254 257 250 249 249 248 247 246 247 248 248 248 248 248 248 248 249 247 249 253 252 251 251
273 278 280 279 271 267 255 260 261 262 254 253 253 250 256 257 254 254 250 257 261 266 261 261 265 261 261 262 262 252 250 249 251 253 253 249 245 244 244 244 246 246 245 247 246 246 246 249 251 251 247 247 250 251
273 274 277 276 269 259 259 261 263 257 252 254 257 258 259 256 256 257 256 258 259 263 264 265 264 258 253 250 250 249 248 246 246 249 249 247 246 245 245 245 245 246 246 246 246 248 247 247 249 249 248 249 250 251
276 276 274 274 271 264 261 260 263 259 255 257 256 255 255 256 256 258 258 257 259 258 253 252 246 246 247 247 248 246 247 248 244 243 247 248 247 248 248 246 248 247 247 247 247 250 248 248 249 251 251 250 250 252
267 268 271 265 263 259 257 256 257 257 258 256 256 257 256 255 252 254 253 254 252 247 247 244 242 243 242 241 242 242 244 245 244 244 244 246 248 248 247 248 246 246 246 246 248 248 247 246 248 250 249 250 251 253
261 269 263 266 261 258 256 256 256 257 255 254 255 254 249 248 249 251 253 248 245 244 242 242 242 242 243 242 241 241 242 240 240 242 247 248 246 247 248 247 246 246 247 246 247 246 246 248 251 251 252 252 254 253
264 264 260 258 259 258 254 259 255 253 252 254 254 252 251 250 250 253 249 245 244 244 243 242 243 242 243 242 240 241 241 242 242 243 245 246 246 247 244 245 245 245 246 248 249 250 250 254 254 254 254 255 255 255
258 250 252 251 252 252 256 255 256 255 254 252 251 247 246 242 247 250 245 242 243 242 242 242 241 245 243 243 245 249 249 249 248 250 249 249 249 249 249 248 248 249 249 251 253 253 253 253 255 254 255 255 255 255
254 246 248 247 249 250 249 250 250 252 249 247 249 247 246 244 251 251 250 249 250 249 249 249 249 250 248 247 250 248 244 243 244 245 248 249 249 250 252 251 250 250 251 251 252 253 253 254 254 254 254 254 254 254
244 242 243 241 243 245 242 246 243 243 242 244 242 242 240 243 247 247 247 247 247 247 247 247 248 249 250 250 249 248 247 246 245 246 248 246 246 245 245 247 251 251 250 249 250 250 252 252 252 252 253 253 253 253
244 241 239 239 239 239 241 239 238 241 239 240 238 240 240 245 245 246 244 245 247 249 250 250 249 249 248 249 249 248 247 246 246 248 248 247 246 245 244 243 244 247 248 246 243 243 244 246 246 247 249 250 249 250
237 236 240 240 238 235 237 236 237 238 237 237 236 242 244 244 246 245 245 244 241 242 245 247 248 249 248 248 248 247 246 243 244 245 242 244 244 244 244 245 245 252 250 247 247 247 245 246 246 245 245 246 247 247
238 234 235 238 236 237 236 238 238 236 237 234 238 240 242 242 240 239 241 240 235 237 238 239 242 240 243 243 244 243 242 240 243 244 242 242 242 245 242 242 243 244 244 243 248 254 251 249 248 246 246 245 245 242
237 232 238 236 240 242 239 236 235 231 231 233 233 237 238 239 240 237 236 236 238 239 238 236 236 235 239 237 240 242 238 240 242 243 242 242 244 242 239 242 243 243 241 239 244 244 249 246 246 243 243 243 242 242
234 233 237 236 240 236 234 230 228 229 229 230 228 232 236 237 240 238 238 236 235 234 236 239 238 235 237 237 236 237 244 240 239 242 242 242 243 242 243 244 244 242 240 241 242 242 243 242 242 242 243 243 244 244
233 234 237 241 241 234 231 232 232 232 231 232 233 229 234 236 239 245 241 236 235 237 241 238 236 242 241 242 239 241 245 245 243 245 243 245 244 245 245 245 243 240 240 243 243 242 241 242 242 243 243 243 244 244
233 230 231 234 237 239 235 235 236 237 234 234 235 232 232 237 243 247 243 241 245 244 245 244 243 241 242 242 243 244 245 245 244 249 251 251 251 251 250 249 245 244 244 245 246 245 244 244 245 245 245 245 245 246

GFSWCAN_sfc_thetae_102.txt.gz
Theta_e
293 293 292 294 294 294 296 296 297 297 297 297 296 296 296 297 299 294 291 293 288 281 284 286 288 286 286 285 280 284 284 284 283 283 284 283 284 282 280 280 281 281 279 278 274 272 276 284 284 285 287 282 284 286
293 293 293 293 293 294 295 295 296 296 295 296 296 296 296 297 298 295 290 293 292 284 284 289 289 290 289 289 286 285 283 283 286 284 284 284 280 280 278 276 284 282 285 284 284 282 284 283 284 284 286 284 283 284
293 293 293 293 293 293 294 295 295 296 295 296 296 296 296 296 297 294 290 293 287 280 281 282 284 289 291 289 291 284 284 288 286 289 285 283 280 282 278 278 280 285 286 284 286 284 284 283 283 285 285 285 285 285
292 292 292 293 294 294 295 295 295 295 296 296 296 296 296 296 297 294 288 292 286 278 272 278 287 286 290 290 289 290 288 288 287 286 283 281 280 283 282 280 280 284 287 285 283 284 284 286 286 286 285 284 284 285
292 293 293 294 294 294 295 295 295 295 295 295 295 295 295 296 297 292 290 292 292 282 273 272 281 284 287 289 288 288 288 285 283 282 281 279 281 278 277 277 275 283 284 284 283 287 288 287 286 286 285 285 285 284
293 293 294 294 294 294 293 293 293 293 293 293 294 294 295 296 292 283 275 288 293 291 275 268 279 280 284 286 286 286 286 283 282 279 279 281 283 281 272 266 279 282 285 286 285 287 288 288 287 286 286 285 285 284
292 292 292 291 291 291 291 291 291 291 292 292 292 292 293 293 285 278 275 284 293 291 276 272 266 280 282 282 282 283 285 281 281 279 277 280 281 281 272 275 281 282 284 283 284 284 282 283 284 285 285 283 280 278
291 291 291 291 291 290 290 290 290 290 290 290 291 291 291 293 289 279 285 294 293 286 282 268 271 272 282 277 278 280 279 279 278 277 278 279 279 276 270 277 280 281 282 282 283 283 282 282 281 280 278 278 277 277
289 290 290 290 290 290 289 289 289 289 289 289 290 291 284 278 271 275 291 291 289 284 276 273 267 267 280 276 279 276 278 275 277 275 277 277 272 271 275 278 280 282 282 282 279 275 274 277 276 275 275 274 275 277
288 289 289 289 289 289 288 288 288 287 288 288 279 270 266 270 287 289 276 278 276 281 274 267 261 268 280 276 273 273 273 269 272 275 279 275 270 279 280 279 280 281 280 278 277 276 273 273 274 274 274 274 275 275
286 287 288 287 288 288 287 287 286 285 284 271 266 263 272 284 274 266 268 267 268 267 268 267 268 269 278 272 269 275 270 265 265 268 271 265 270 278 280 278 276 277 279 277 276 277 275 275 275 274 274 270 269 270
287 287 287 287 287 286 287 286 286 276 268 273 271 273 269 268 265 263 262 264 264 263 264 274 270 275 275 274 269 270 265 264 262 263 265 262 271 269 269 269 267 266 268 270 269 270 270 272 270 269 269 270 268 269
286 286 286 286 286 286 287 286 286 285 279 269 266 262 265 263 268 263 256 263 259 258 270 264 267 277 276 277 271 270 266 267 270 270 264 268 266 262 260 261 262 260 261 262 262 263 264 264 265 263 263 262 263 265
286 286 286 286 286 286 286 284 283 277 268 262 259 258 259 258 260 268 258 261 265 263 265 263 271 269 271 272 274 266 268 266 260 262 262 261 255 252 255 255 256 255 255 257 256 257 258 259 259 259 259 258 259 260
285 286 286 285 285 286 284 282 280 265 262 258 261 258 255 257 262 254 254 255 259 261 264 266 265 271 266 269 269 265 266 264 261 262 261 254 251 252 252 251 251 251 251 252 252 253 254 254 254 255 254 254 253 255
285 284 282 284 284 282 279 272 262 258 255 256 256 257 254 257 259 257 250 252 263 263 263 266 263 265 263 266 265 264 262 258 263 250 250 250 248 248 247 247 248 248 248 248 249 250 251 252 251 251 251 248 250 250
281 274 283 282 280 279 278 261 258 253 251 251 250 246 248 250 254 253 254 256 262 264 263 264 265 265 267 264 261 262 264 254 252 248 247 246 246 247 246 246 247 247 247 248 247 248 249 249 247 248 251 251 248 247
272 279 281 279 270 268 256 256 255 252 249 250 251 248 248 249 248 249 254 259 260 264 260 262 264 260 259 261 258 251 249 246 248 248 250 249 247 249 249 246 246 246 246 247 245 245 244 246 247 249 246 246 248 247
275 275 278 277 269 258 257 256 258 253 250 252 251 255 253 252 255 257 257 258 261 262 262 261 257 252 251 246 247 247 246 246 250 251 251 251 250 246 245 245 246 245 245 245 245 247 247 245 248 248 249 248 248 248
277 277 276 275 271 259 255 257 261 259 253 254 254 253 255 256 257 256 256 256 258 258 254 254 246 243 247 249 249 250 249 249 245 245 248 249 247 244 246 244 247 247 246 245 246 248 246 249 246 248 248 248 248 249
268 268 271 264 259 258 257 257 258 258 259 257 257 258 256 256 253 253 254 256 254 249 249 246 246 246 247 243 245 244 247 246 244 243 242 244 245 247 248 246 245 244 243 243 244 247 245 245 247 248 245 246 247 248
260 270 262 265 262 259 257 258 257 258 256 254 255 255 252 253 251 252 254 252 249 249 249 249 249 248 246 243 242 240 241 239 239 241 245 246 245 246 246 246 243 244 244 245 243 246 246 246 247 247 247 247 250 249
264 265 260 258 258 257 255 259 256 254 254 254 253 252 251 250 251 253 249 248 247 248 246 245 242 240 240 240 238 239 238 239 241 241 242 243 244 244 243 244 242 243 245 245 245 248 248 250 250 249 248 249 250 250
259 251 251 251 253 252 256 254 256 253 252 250 249 247 246 243 247 248 245 240 244 241 242 242 239 242 241 242 243 244 246 245 243 243 242 242 244 245 244 245 243 243 245 248 249 250 249 249 252 250 250 248 248 249
254 245 248 247 249 250 250 251 250 250 250 247 248 247 245 240 246 245 246 244 244 243 244 244 244 246 245 242 244 244 241 241 242 240 243 243 242 244 245 248 247 245 245 246 247 249 251 252 251 250 249 248 248 248
244 241 243 239 243 244 241 244 240 240 238 242 240 239 236 241 246 246 244 244 244 246 246 246 246 247 248 249 246 246 245 243 242 241 244 242 241 241 241 244 245 248 246 245 245 245 247 249 250 250 251 252 252 251
245 241 239 237 237 237 239 238 237 238 238 240 237 239 240 245 245 246 243 243 244 245 246 247 247 247 247 249 249 249 248 246 244 245 246 244 245 245 245 244 245 247 244 244 243 241 242 243 244 245 244 245 244 245
237 235 240 239 237 233 237 235 237 239 238 236 236 242 245 245 247 245 246 244 240 238 238 240 243 247 248 249 249 248 247 243 244 246 246 246 245 245 242 243 243 251 249 244 245 245 244 244 244 245 244 244 245 243
237 233 235 239 236 237 237 239 239 236 236 234 239 240 242 242 240 239 241 239 234 236 238 238 241 235 240 239 241 240 239 239 242 243 242 242 242 246 240 240 240 242 242 240 247 252 251 250 249 249 247 246 246 242
238 232 237 236 240 243 239 235 235 231 230 233 232 237 238 239 240 236 236 236 238 240 239 237 236 235 239 237 240 242 238 239 243 245 243 244 245 242 239 242 243 243 241 238 243 245 248 247 246 242 244 245 244 243
232 232 236 235 239 237 233 229 227 228 228 229 227 232 236 236 239 238 238 236 235 233 236 239 238 235 236 236 235 236 244 240 239 242 243 243 244 243 244 245 245 243 240 240 241 241 243 242 241 242 242 243 244 245
232 233 236 240 240 234 230 231 230 232 230 231 233 227 233 235 239 245 241 236 236 238 242 238 236 244 242 243 241 242 246 245 243 245 244 245 245 246 246 246 245 242 241 243 243 243 243 242 243 244 244 243 244 244
231 229 230 233 237 239 234 233 235 237 234 233 234 231 232 237 243 247 243 242 246 246 246 245 245 244 244 244 244 245 246 246 245 250 251 251 250 250 248 248 246 245 244 244 245 245 244 244 244 245 244 245 245 246

GFSWCAN_sfc_thetae_105.txt.gz
Theta_e
292 293 292 294 295 296 296 297 298 298 298 297 296 297 298 299 299 294 292 292 287 282 285 287 289 286 285 285 282 284 285 284 284 286 285 284 278 280 279 281 281 281 279 277 271 269 276 283 282 284 286 282 283 286
293 293 293 294 295 295 296 297 296 298 297 297 297 297 297 298 299 295 288 293 291 284 284 289 289 290 290 289 287 285 284 283 286 284 284 284 281 281 277 278 283 282 284 282 282 281 285 284 283 284 285 284 283 284
293 293 293 293 293 294 295 296 296 296 296 297 296 296 296 298 298 294 289 290 287 281 281 283 283 288 290 289 290 284 285 288 286 288 285 284 280 282 280 276 279 283 285 283 285 283 283 283 283 284 284 284 285 285
293 293 293 293 293 294 295 295 296 296 295 296 296 296 296 298 297 294 289 290 286 280 276 279 286 285 289 289 289 289 288 288 288 287 284 282 276 283 277 279 279 283 286 283 281 283 283 283 284 285 284 284 284 284
292 293 293 294 294 294 295 295 295 295 295 296 296 296 297 297 296 291 290 293 291 282 274 275 281 284 286 288 288 288 287 286 284 283 281 280 280 277 276 278 277 285 285 284 280 286 286 286 285 285 284 285 284 284
293 293 293 294 295 295 295 295 295 295 295 295 295 296 296 295 290 283 276 285 293 289 275 271 279 280 283 285 285 285 285 282 283 282 281 281 283 282 276 270 280 283 285 290 288 291 291 291 288 286 284 283 284 284
292 293 293 294 293 293 293 293 293 293 293 293 294 294 294 294 286 278 275 282 293 289 275 273 269 280 282 282 281 282 283 281 281 280 279 281 281 281 274 274 282 282 284 283 285 285 283 284 284 285 285 284 281 279
292 292 291 291 291 291 291 291 291 291 291 292 292 294 294 292 287 280 286 294 292 285 275 266 272 276 283 278 276 280 278 278 278 277 279 279 280 277 269 276 280 282 282 283 283 282 283 283 282 280 278 277 277 276
291 291 291 290 290 290 290 290 289 289 291 292 291 290 284 278 272 276 292 290 287 280 270 265 268 269 281 277 280 279 278 272 276 273 277 278 272 271 275 278 279 281 281 282 278 275 275 277 276 276 274 273 274 277
290 290 290 290 289 289 289 289 289 289 288 286 278 270 267 271 287 288 276 273 272 274 274 266 261 271 279 277 273 274 273 272 273 275 279 270 268 279 280 278 279 280 280 277 276 276 273 274 274 274 274 273 274 274
289 289 289 289 289 288 288 287 287 285 283 270 263 264 271 283 273 266 268 264 268 264 269 271 266 271 278 270 272 275 269 266 265 269 271 263 267 276 275 274 270 271 273 274 274 274 273 272 272 272 271 269 267 267
288 287 288 288 288 287 287 286 286 275 267 272 271 272 268 266 262 262 259 264 266 263 262 273 270 273 272 274 269 270 265 267 262 264 268 262 269 266 265 265 264 263 264 266 266 266 267 267 266 267 265 264 263 263
287 287 287 287 287 287 287 287 286 285 278 268 264 261 263 260 261 256 254 259 258 256 264 266 271 275 276 277 271 268 264 265 269 268 266 266 264 260 258 259 261 259 260 261 261 261 262 262 261 260 259 257 258 259
287 287 287 287 287 286 285 284 283 277 268 262 257 258 256 254 257 264 255 254 259 261 266 264 272 267 267 274 275 267 267 266 262 263 263 259 254 252 254 254 255 255 255 256 256 257 258 258 258 257 256 255 255 256
287 287 286 286 286 285 283 282 279 264 261 258 259 255 253 254 256 258 258 252 259 263 264 268 267 270 270 271 272 268 266 264 262 262 259 253 250 250 251 250 250 251 251 252 252 252 253 253 254 255 255 253 252 253
286 286 283 285 283 282 280 271 262 257 253 254 254 255 252 253 257 253 253 258 260 263 265 265 266 265 263 267 266 266 262 259 262 250 248 249 246 246 246 246 247 246 246 246 248 248 250 250 250 250 250 250 250 251
282 277 283 281 280 279 278 260 258 250 250 250 249 243 246 253 255 252 250 256 260 262 268 265 260 262 266 265 260 258 259 254 247 247 246 246 246 246 245 245 247 248 249 249 247 248 246 246 244 247 248 248 246 247
275 279 280 278 270 268 256 254 252 250 248 249 251 249 244 250 253 251 253 257 257 258 261 265 268 267 264 257 257 250 247 246 246 247 248 247 244 244 244 245 248 249 248 247 247 245 243 247 247 248 245 246 247 247
276 276 279 278 270 258 256 256 255 254 253 249 248 251 249 252 255 256 255 257 258 259 260 263 266 262 255 249 246 245 244 243 246 249 248 247 248 245 245 246 246 246 246 246 244 247 245 243 246 246 247 248 248 250
277 278 277 275 270 259 254 255 258 257 254 255 253 251 253 253 253 252 255 256 258 258 255 253 248 243 244 244 244 244 246 248 244 245 246 248 250 247 245 246 245 245 245 245 245 247 246 248 246 247 247 247 248 250
269 269 272 264 259 258 257 257 258 258 257 256 255 255 255 255 254 255 254 256 255 249 250 247 243 243 243 242 244 248 250 250 249 244 242 244 245 247 246 245 241 241 241 241 242 246 244 244 246 247 246 247 247 248
261 271 262 266 263 261 259 258 257 258 257 254 257 256 254 254 252 252 254 253 250 249 248 247 246 246 248 249 246 244 244 239 238 240 244 244 243 246 247 244 243 243 243 243 241 244 246 247 246 247 245 248 249 248
265 265 260 259 259 257 254 259 254 253 253 252 253 252 251 250 250 252 247 245 246 247 244 244 242 240 241 240 238 239 237 238 239 239 241 241 242 243 242 243 241 241 244 244 242 244 246 248 248 248 248 248 247 247
259 251 251 251 252 248 253 252 253 251 250 248 246 247 248 245 246 249 246 242 244 241 241 241 239 243 241 239 241 241 242 240 239 241 240 239 242 244 242 244 245 243 244 246 245 245 246 247 249 248 250 248 247 246
254 245 248 247 248 248 247 248 249 250 248 246 247 246 244 240 246 244 245 245 242 241 242 240 241 243 242 241 242 242 240 241 241 240 243 242 241 242 244 243 243 243 242 241 242 242 244 246 247 247 249 249 249 249
243 239 242 236 240 242 238 242 239 239 236 240 240 238 235 241 246 247 244 243 241 241 242 243 243 242 243 247 247 246 246 241 240 241 246 244 244 242 241 241 242 245 242 241 241 240 241 242 241 242 243 244 246 247
245 242 238 236 237 237 238 237 236 238 239 241 237 239 240 245 245 247 243 242 243 243 242 244 244 246 248 249 249 248 247 246 246 249 249 247 246 246 245 244 244 245 241 241 240 241 241 242 242 243 243 244 242 244
238 235 240 238 237 233 238 234 237 240 239 236 236 243 246 246 247 246 246 244 239 237 237 238 239 242 244 246 244 243 244 241 241 244 245 245 246 246 244 246 246 251 249 245 244 244 242 243 243 244 244 245 247 244
237 233 234 239 235 236 237 240 239 237 237 234 239 240 242 243 241 239 242 239 233 236 240 241 242 234 239 239 240 241 240 238 241 243 242 244 243 247 242 241 242 242 242 242 246 251 249 248 248 248 248 248 248 245
237 231 237 236 240 244 240 236 235 231 230 233 232 237 238 239 240 236 235 235 238 240 240 237 236 235 239 237 241 243 239 240 243 246 244 246 246 242 238 239 243 244 242 239 243 244 248 247 244 241 243 244 244 246
231 230 235 234 238 236 233 228 226 227 227 227 225 231 235 235 238 238 238 237 236 233 236 240 239 235 236 236 236 236 246 241 240 242 244 245 245 245 246 246 246 244 242 241 242 242 244 244 243 243 243 244 245 245
232 233 237 240 240 233 229 229 229 231 230 230 232 225 232 235 240 246 242 236 236 239 244 240 237 246 243 244 242 243 247 248 244 245 244 246 246 247 247 247 246 244 243 244 244 243 244 242 244 244 245 245 245 245
231 228 229 232 238 239 234 234 235 237 234 233 234 231 232 237 244 248 243 242 248 247 248 247 246 246 245 245 245 246 246 246 246 251 252 252 250 250 248 247 246 245 245 244 245 245 244 244 244 245 245 245 246 246

GFSWCAN_sfc_thetae_108.txt.gz
Theta_e
291 293 293 293 295 295 296 297 298 299 299 299 298 298 298 300 299 292 289 291 286 282 285 287 287 285 285 286 285 284 286 285 285 285 285 284 280 280 277 280 280 280 279 276 270 268 276 282 283 286 287 283 285 286
291 293 293 294 295 296 297 297 298 298 298 297 298 297 298 299 298 294 287 291 291 284 284 289 288 289 289 288 287 285 284 284 287 286 284 285 280 279 275 276 283 280 283 282 283 282 285 283 285 285 285 284 284 284
292 293 293 294 295 296 297 297 297 297 297 297 297 297 297 298 298 294 288 288 286 281 282 284 283 288 290 289 290 285 285 287 285 288 285 281 276 277 274 275 278 282 284 283 284 283 282 283 283 284 283 283 284 285
293 293 293 293 294 295 296 296 295 294 297 297 297 297 297 298 297 294 289 289 284 279 277 280 286 285 288 289 290 291 290 290 289 287 284 281 276 282 278 278 278 282 284 281 280 283 283 283 283 284 284 284 285 284
293 293 293 293 293 294 295 296 296 295 294 297 297 297 297 297 296 292 291 291 289 282 274 276 282 284 286 288 288 290 289 286 285 283 282 280 281 280 278 277 276 285 285 282 279 284 284 284 284 284 284 284 283 284
292 293 294 294 294 294 295 295 296 295 294 296 297 297 295 293 289 284 279 286 291 286 277 275 280 280 283 285 286 285 285 284 283 284 282 282 283 281 275 270 279 285 287 291 288 291 290 288 285 284 284 284 284 283
294 294 294 295 295 295 295 295 295 295 295 295 295 295 295 295 288 280 275 283 293 287 276 270 270 280 282 282 282 283 283 282 283 281 280 280 281 279 270 271 281 282 284 285 285 286 284 284 287 285 285 283 281 279
292 292 292 292 293 292 292 293 293 293 294 294 294 293 292 291 287 283 288 292 291 281 274 268 271 277 282 277 277 280 279 278 278 278 279 278 278 276 269 277 280 281 283 282 282 282 282 282 282 280 278 278 277 276
291 291 291 291 290 290 290 290 292 292 292 291 291 290 283 279 273 282 291 288 286 278 268 263 266 268 280 278 279 278 279 273 276 274 278 277 269 270 275 278 279 279 279 280 277 276 277 278 277 275 274 275 275 275
290 290 290 290 289 289 289 289 288 288 288 286 279 273 269 276 287 283 274 270 271 272 270 265 261 270 279 275 272 273 273 273 272 275 278 270 268 278 275 273 274 274 275 275 275 276 274 274 275 273 272 271 272 271
290 290 290 289 288 288 288 287 287 286 283 270 264 266 273 282 274 266 264 262 262 264 269 269 265 268 277 270 268 275 267 268 264 268 271 268 268 274 270 268 266 268 270 268 270 271 270 270 271 271 269 266 265 265
288 289 289 288 287 288 288 287 286 275 266 271 271 271 268 266 264 263 260 262 264 260 262 272 270 271 271 273 270 268 265 265 264 266 268 260 269 263 261 262 262 261 262 263 263 264 265 264 264 265 263 261 259 260
288 288 288 288 287 287 287 286 286 284 277 267 264 261 263 260 261 257 253 258 256 257 260 265 272 276 275 274 266 266 263 263 266 266 265 266 263 258 256 257 258 258 258 259 258 259 260 260 260 259 258 257 257 258
288 288 288 287 286 285 285 285 284 276 267 261 256 257 255 252 256 257 253 253 258 262 262 267 272 270 270 271 271 266 264 265 260 261 263 261 255 253 254 254 253 254 254 255 254 255 256 256 257 256 254 253 253 254
287 288 287 285 284 284 283 282 279 263 260 259 257 254 253 252 255 255 256 254 258 260 262 268 269 271 269 270 271 266 263 262 262 262 260 254 252 251 252 251 250 251 251 251 251 251 252 252 252 252 250 249 249 250
287 285 282 284 283 283 280 271 261 257 252 253 253 253 249 252 255 254 253 259 257 260 262 266 269 267 264 270 266 263 263 259 262 249 249 250 248 249 248 248 249 249 248 248 248 248 250 250 249 249 250 249 249 247
282 275 281 281 280 278 277 260 258 249 249 249 248 241 244 252 251 248 251 256 260 258 261 262 265 264 268 263 259 260 259 253 247 247 246 246 246 245 245 245 246 247 248 248 248 248 247 246 245 247 249 250 249 249
274 277 281 279 271 268 256 254 251 251 248 247 250 248 242 248 252 248 253 255 256 258 260 262 263 262 260 258 258 252 248 246 246 247 248 246 244 243 242 244 245 245 246 248 247 246 246 245 245 247 244 246 247 248
277 277 280 279 270 258 256 256 255 250 248 246 246 249 247 248 254 255 252 254 257 259 258 260 264 257 255 250 246 244 243 243 244 247 247 244 245 243 244 245 245 245 246 246 247 246 244 242 244 244 245 245 245 248
277 278 278 276 270 258 254 254 255 253 251 254 248 248 249 250 253 251 249 251 255 255 255 253 248 245 248 248 248 247 245 246 242 243 245 247 247 243 245 245 247 246 246 246 244 247 246 246 244 244 243 244 244 247
269 270 272 264 259 257 255 255 256 256 255 255 254 255 254 253 249 248 248 255 253 249 250 245 242 244 242 240 241 242 246 248 246 243 245 247 244 243 244 244 240 240 241 241 241 245 243 243 245 245 243 245 245 245
261 271 261 265 262 260 258 258 257 258 257 254 256 254 251 250 249 251 253 253 250 247 248 248 244 243 243 244 243 239 240 238 237 240 244 244 242 242 242 242 241 241 241 241 240 242 244 246 246 246 243 247 247 247
265 265 260 258 259 257 254 259 255 253 253 253 252 252 252 251 250 251 250 246 247 247 244 243 242 239 240 239 237 238 237 238 239 238 239 240 240 240 241 242 240 240 242 243 241 242 243 246 247 247 247 246 244 245
259 250 250 250 250 248 251 249 249 249 249 248 247 248 247 244 245 248 247 244 245 242 241 242 239 242 240 239 241 241 241 238 238 238 239 237 240 242 240 242 241 242 245 243 242 242 243 243 246 246 246 243 244 244
254 245 245 244 243 245 243 244 243 246 242 239 243 245 243 238 246 246 246 246 241 240 240 238 238 240 241 240 240 240 238 241 242 242 243 240 239 240 242 242 245 245 243 241 241 240 241 240 241 242 243 241 242 244
244 239 242 236 240 243 238 243 239 239 236 240 240 237 234 240 246 247 245 243 241 241 241 241 242 242 242 244 244 246 246 241 239 240 244 243 242 243 241 242 244 246 244 241 240 240 241 242 240 242 243 244 245 243
246 242 238 236 237 236 238 236 234 237 239 242 238 240 240 245 245 248 244 242 243 242 241 240 241 243 245 246 244 245 243 242 244 246 244 245 245 245 246 246 245 246 242 241 239 240 241 242 243 243 243 245 243 244
238 235 242 238 236 232 238 234 237 241 240 236 236 243 246 247 248 247 247 244 239 236 237 238 239 242 243 245 245 242 243 239 238 242 244 246 246 247 246 247 247 251 246 245 245 244 242 243 244 244 244 245 247 247
236 232 234 240 235 236 238 241 240 237 237 235 240 241 243 243 242 240 242 238 232 236 239 240 242 233 238 239 241 242 241 238 241 243 242 246 243 247 243 243 243 243 243 242 246 251 248 245 245 246 247 248 249 248
236 229 236 235 239 243 240 235 235 230 229 232 230 236 238 239 240 236 235 234 238 242 241 238 236 235 240 237 242 243 240 241 243 246 246 247 248 243 238 239 242 243 244 242 245 245 248 248 246 242 244 245 244 246
230 230 235 233 237 236 232 227 225 226 226 227 224 231 235 236 237 239 239 238 237 234 237 243 242 237 238 239 237 238 248 243 242 243 245 247 246 246 247 247 247 246 244 243 244 244 245 245 245 244 244 245 246 246
231 232 237 241 240 232 228 228 228 230 229 230 232 225 231 234 240 246 242 237 236 238 244 243 240 248 245 246 244 245 248 249 246 245 244 246 246 247 248 248 247 244 245 245 245 245 244 243 244 245 246 246 246 246
230 228 228 232 238 239 234 234 235 237 233 233 235 232 231 236 245 249 243 243 248 248 250 249 248 248 246 246 246 248 248 248 248 252 253 252 250 250 249 248 247 246 246 245 246 246 245 245 244 245 245 245 246 246

GFSWCAN_sfc_thetae_111.txt.gz
Theta_e
291 291 292 296 297 296 296 297 298 299 299 299 299 298 300 300 299 292 288 290 286 282 285 288 287 285 285 285 285 285 288 286 286 285 284 283 272 278 275 279 278 276 275 273 268 277 276 282 283 285 288 284 286 286
291 292 292 295 296 296 296 297 298 299 299 299 298 298 298 299 298 294 287 290 290 283 285 289 289 290 288 287 286 285 285 286 289 286 285 284 280 277 275 272 282 278 282 278 282 281 284 282 284 285 285 286 285 287
291 292 294 295 296 296 296 297 298 298 298 298 297 297 299 298 298 293 287 286 285 283 284 284 283 288 290 289 291 285 285 287 285 288 285 280 276 278 274 273 278 283 284 281 282 282 282 283 283 284 284 283 284 285
293 292 293 295 296 296 297 297 298 297 297 297 297 298 298 298 297 293 288 288 283 277 278 281 286 284 287 288 291 292 290 290 288 287 284 283 280 283 277 278 278 283 284 279 278 282 282 282 284 284 284 284 284 285
293 293 293 293 295 296 296 295 295 293 296 297 297 297 298 297 296 291 289 290 287 281 274 279 283 285 285 289 290 291 289 286 285 284 283 280 282 281 278 278 275 285 284 283 278 284 284 283 284 285 284 283 283 283
292 293 293 293 294 295 295 296 295 294 296 297 297 296 294 293 289 284 283 286 292 285 278 274 280 281 284 286 286 285 286 284 284 284 282 282 283 281 276 269 279 284 287 288 288 288 286 285 284 284 284 283 282 282
293 293 292 294 295 295 295 295 295 295 296 296 296 296 295 294 288 279 278 286 292 286 276 270 271 281 283 283 283 284 284 282 283 281 281 281 281 281 274 274 280 286 288 288 289 288 286 287 286 283 283 282 280 278
292 292 293 295 294 295 295 295 296 295 295 294 294 293 292 292 288 283 287 290 288 278 274 267 268 276 282 278 279 281 280 280 279 279 280 279 280 278 276 278 280 281 282 282 283 282 285 283 282 280 279 279 280 277
291 291 291 291 292 292 293 292 292 292 291 290 290 289 282 276 275 276 290 286 282 279 268 263 266 268 280 279 279 278 279 274 279 277 278 278 273 274 275 277 277 275 277 279 277 277 278 278 276 275 276 276 275 274
290 290 290 290 289 289 289 289 289 288 288 287 279 271 267 274 286 283 273 270 271 268 269 264 262 269 278 275 274 274 274 271 271 274 278 273 270 272 269 268 269 270 271 272 275 275 274 273 273 272 271 270 270 270
290 289 289 289 288 288 288 288 288 286 283 270 264 265 274 281 272 265 263 263 260 262 265 267 264 267 276 271 269 274 268 267 266 269 270 270 268 270 268 265 264 266 267 266 269 269 269 269 270 270 267 264 263 262
289 289 288 288 288 288 288 288 286 275 266 270 271 269 266 264 262 263 259 259 259 259 261 266 269 271 270 274 271 268 265 264 263 265 267 261 268 261 260 261 260 260 261 261 262 262 263 263 262 263 261 260 259 260
288 288 288 287 287 287 286 286 285 284 275 266 264 260 262 260 259 256 254 258 257 258 260 263 271 273 270 271 265 266 264 263 265 263 264 264 261 257 256 257 258 257 258 258 257 258 258 259 259 257 257 256 256 256
288 287 286 286 285 286 285 284 283 276 266 260 256 257 255 252 255 253 254 254 260 261 261 263 269 272 271 268 266 263 262 264 258 261 262 258 252 251 254 254 254 254 254 254 253 254 255 255 256 255 253 253 253 253
287 286 285 284 284 284 283 281 278 262 260 257 257 253 252 254 253 253 253 255 258 258 260 262 268 271 271 269 269 263 262 258 261 262 257 254 252 252 251 251 250 251 251 251 251 251 252 252 252 252 250 249 249 251
285 282 280 283 283 283 281 270 260 256 252 253 252 252 249 251 253 251 250 253 258 259 260 262 263 264 266 264 264 262 260 259 261 250 249 251 248 249 248 248 249 248 248 249 250 250 251 250 249 248 248 248 249 247
281 269 281 281 280 278 276 259 257 249 249 249 248 239 243 247 249 247 249 256 259 256 260 264 265 267 264 262 262 257 259 254 247 247 247 247 246 246 244 245 246 246 246 248 248 249 249 248 248 248 249 248 246 246
269 274 282 280 271 268 256 254 252 252 248 246 250 248 242 245 249 249 250 254 255 257 257 261 261 266 259 257 256 251 250 248 249 250 250 248 245 244 244 244 245 244 244 245 245 245 244 245 246 248 246 248 248 247
278 277 280 279 270 258 257 256 254 250 248 244 245 248 246 247 250 254 252 253 255 257 256 255 257 258 254 250 247 246 243 241 243 247 246 243 244 242 242 243 244 244 244 243 243 244 243 243 245 245 246 245 246 247
277 279 278 276 270 259 254 254 253 252 249 252 247 248 248 249 251 250 248 250 252 250 251 249 247 248 248 248 248 245 244 245 242 243 244 246 245 242 243 243 244 243 243 243 244 246 244 245 243 243 242 243 243 246
270 270 272 264 259 257 254 252 252 251 251 251 251 251 251 249 246 245 245 250 252 248 248 245 245 244 242 241 241 240 244 245 243 243 243 243 244 243 244 242 240 239 240 240 240 242 243 242 244 244 241 244 243 244
262 271 260 264 261 258 256 256 253 254 253 251 253 252 248 247 246 247 250 250 248 246 248 248 249 248 246 243 241 240 240 238 237 240 243 243 243 244 243 241 242 243 242 241 240 241 243 243 243 243 242 245 246 245
264 264 258 256 257 255 252 256 252 250 251 250 250 251 250 248 246 249 249 247 247 249 245 245 244 242 243 240 237 240 238 238 240 239 240 241 241 240 241 242 240 240 243 245 241 240 242 245 245 245 244 244 243 244
259 249 249 248 249 247 247 247 247 246 246 245 245 246 245 240 243 247 248 243 245 240 240 241 239 242 240 238 239 241 240 238 238 239 239 238 241 244 241 243 240 241 244 244 242 242 242 242 244 243 243 241 241 241
255 246 246 244 242 245 244 244 243 246 242 237 243 244 243 237 245 245 246 246 241 240 240 236 236 239 241 239 240 240 238 241 241 242 243 242 239 239 241 242 244 245 243 240 242 241 241 239 240 240 241 239 241 243
245 239 242 237 240 244 239 243 240 239 236 239 240 237 234 240 246 248 246 244 241 241 241 241 242 240 240 243 242 241 243 241 241 243 245 244 245 245 246 247 246 248 244 247 243 242 242 242 241 241 242 243 244 243
246 242 237 235 236 236 238 235 233 236 239 242 239 239 240 245 246 249 244 242 244 243 241 240 242 243 244 244 243 243 241 240 244 245 242 242 244 246 247 246 246 247 242 242 242 242 242 243 243 243 243 245 244 243
238 235 242 238 236 232 239 234 237 242 241 236 237 243 245 248 249 248 248 244 239 236 236 237 238 241 243 245 245 241 243 237 237 240 243 246 246 247 247 247 248 252 243 243 244 243 242 243 243 244 244 244 246 246
236 231 233 239 235 236 238 241 241 237 236 235 240 242 244 244 242 240 242 238 232 236 239 242 243 233 236 239 240 241 241 238 240 243 243 247 244 248 243 244 243 243 244 244 248 251 247 245 245 246 246 246 247 248
236 228 236 234 239 243 240 235 235 230 229 231 230 236 238 239 240 236 235 234 239 243 242 239 237 236 242 238 243 244 241 241 243 247 246 249 249 244 239 241 242 244 244 242 244 246 250 250 249 245 244 245 246 247
230 229 235 233 237 235 231 226 224 225 226 226 224 231 235 235 237 239 239 240 240 235 237 243 244 240 240 241 239 239 249 244 243 244 246 248 248 248 248 248 248 246 246 245 245 245 245 245 245 245 245 245 246 246
232 233 237 241 241 232 228 229 228 229 228 229 231 225 231 233 239 247 243 237 237 240 244 243 242 249 247 248 246 246 249 251 247 247 244 247 247 248 249 249 248 246 245 246 245 245 245 243 245 245 246 246 246 246
230 228 228 233 238 240 235 234 235 237 233 232 234 232 231 235 244 249 244 243 249 249 250 250 251 251 249 249 249 250 250 249 250 253 255 254 251 251 251 250 249 247 246 246 247 247 246 245 245 246 246 246 246 247

GFSWCAN_sfc_thetae_114.txt.gz
Theta_e
291 292 293 294 298 299 299 299 300 300 299 298 299 300 301 300 298 295 291 292 290 286 286 287 287 286 286 289 287 286 289 288 287 286 286 286 284 282 283 285 284 284 283 283 284 282 280 289 288 288 293 292 292 291
291 291 292 297 298 297 298 298 299 299 299 299 299 299 300 299 298 295 291 292 292 286 284 288 289 289 288 287 288 287 288 287 292 287 286 286 282 281 283 281 286 284 289 286 287 287 290 290 292 290 290 292 292 293
291 293 296 297 297 297 297 298 299 299 299 298 298 299 299 299 298 294 289 289 290 285 286 286 284 288 289 288 291 287 286 290 290 292 289 285 284 284 282 283 285 286 288 288 288 288 288 288 288 288 289 289 289 290
293 294 296 297 297 297 298 298 298 298 298 298 298 298 299 298 297 294 288 289 287 284 281 282 289 286 288 289 292 292 290 290 290 290 286 285 284 284 283 286 287 288 288 285 285 285 286 287 289 288 288 288 287 287
294 294 295 296 297 297 297 297 297 298 298 297 298 298 298 297 296 292 291 291 290 286 280 282 285 286 288 291 290 290 289 287 286 285 285 284 285 284 281 283 284 287 287 287 287 289 289 287 288 289 288 287 287 286
294 294 294 295 296 296 296 296 295 297 297 297 297 297 296 293 289 289 285 290 291 287 283 278 282 283 285 287 287 286 287 286 286 285 283 284 285 285 284 284 283 288 289 291 289 290 288 287 288 287 286 285 285 285
294 294 294 295 296 296 296 296 296 297 297 296 296 296 295 294 290 284 282 287 291 287 281 277 278 283 284 285 285 285 286 284 285 284 283 283 283 284 281 281 282 287 290 290 290 289 286 288 285 286 284 282 281 279
295 295 295 296 296 296 295 295 296 296 296 295 295 294 293 293 289 283 287 290 287 281 279 273 275 280 284 281 281 283 283 283 281 282 283 282 282 282 279 279 280 280 284 284 282 285 289 284 283 281 282 282 281 279
291 291 291 292 292 292 292 293 292 290 291 291 291 288 285 280 278 280 289 287 284 282 274 272 273 274 282 280 281 282 281 278 281 280 280 281 278 274 271 274 273 272 274 277 280 280 281 280 278 278 279 278 278 276
290 290 290 290 290 290 290 289 289 288 288 288 282 276 274 278 285 283 276 275 273 270 273 270 267 274 279 277 277 279 277 275 275 276 279 277 273 270 268 267 267 268 269 271 279 277 276 275 275 273 271 271 272 272
289 289 289 289 289 289 289 289 288 285 283 275 273 274 278 280 276 269 267 268 266 268 268 269 270 274 278 276 274 275 274 272 273 274 275 273 273 269 267 264 264 265 266 266 269 269 269 272 273 270 267 265 265 265
288 288 288 288 288 288 288 288 286 278 273 274 275 272 271 268 267 266 261 263 265 264 264 268 271 275 275 277 276 273 272 271 270 270 273 271 269 261 262 261 260 261 261 261 263 263 264 263 265 264 263 262 261 261
288 287 287 287 287 287 287 287 285 283 276 271 267 264 267 263 262 260 257 262 263 261 262 264 270 274 276 275 271 272 270 269 269 270 270 269 261 258 257 258 259 258 259 259 259 260 261 260 259 259 259 257 258 258
287 287 287 286 286 285 285 284 283 276 268 263 261 259 259 258 258 259 259 260 262 262 261 262 266 272 273 272 270 269 266 268 266 266 268 262 256 254 255 255 256 255 255 256 255 257 257 257 257 255 254 254 255 255
286 285 285 284 285 285 283 280 277 263 263 260 260 256 257 257 256 257 256 257 260 259 261 265 267 271 273 272 268 265 265 264 266 267 262 257 254 253 253 253 253 253 253 253 253 253 254 254 254 254 253 252 253 254
283 281 280 284 283 282 281 270 261 259 253 256 254 256 254 256 256 255 254 256 259 259 260 262 266 269 269 269 266 264 264 264 266 257 254 254 252 251 250 251 251 251 251 252 252 252 253 252 251 252 252 252 251 252
281 271 283 283 281 278 276 261 260 250 252 253 251 243 249 251 254 253 251 256 259 258 260 261 265 265 267 264 263 263 265 260 254 252 252 251 251 250 249 249 249 249 250 251 251 252 252 251 251 253 254 253 251 252
269 273 282 282 273 269 258 256 255 254 251 250 253 252 248 249 252 252 253 255 256 257 259 261 261 266 265 263 266 257 254 252 251 252 253 251 250 249 248 248 249 249 249 249 249 249 249 251 252 254 251 252 250 253
277 278 280 279 271 259 258 257 256 252 249 247 249 251 250 250 251 254 253 254 255 257 257 260 260 263 261 255 254 251 250 249 251 252 251 249 249 249 248 248 248 248 248 248 249 250 250 248 250 251 251 250 251 252
277 279 279 276 270 260 256 255 255 255 251 253 249 251 251 253 252 250 252 252 254 253 254 254 254 252 252 252 251 251 250 249 248 249 251 251 249 246 248 248 249 248 247 248 248 249 250 251 251 250 250 249 250 252
270 270 272 265 259 257 254 253 253 253 251 253 252 252 252 250 249 249 250 251 253 249 252 249 248 248 247 246 246 246 248 248 248 248 249 249 249 248 249 248 246 247 247 248 248 250 248 249 250 249 248 249 250 250
262 271 260 263 260 256 255 254 253 253 253 251 252 250 248 249 248 247 249 251 250 250 249 249 249 247 246 246 248 244 245 243 243 245 246 246 248 250 250 248 247 248 247 248 248 248 250 249 249 248 248 249 250 250
264 263 258 256 257 254 251 253 251 249 251 251 249 251 249 247 246 248 252 250 249 248 245 246 245 243 245 243 240 243 242 242 245 246 246 246 246 246 245 246 246 245 248 250 249 248 248 248 248 248 249 249 249 250
259 250 249 248 249 247 246 247 247 247 246 246 246 248 247 243 243 249 250 247 248 244 244 242 242 247 245 242 245 247 246 242 244 244 244 243 245 248 247 247 247 246 247 249 248 248 248 248 247 248 248 247 247 247
255 247 246 246 243 246 245 245 244 247 243 238 243 245 244 237 247 247 249 250 245 244 244 239 240 243 246 246 246 245 240 244 246 247 249 246 247 245 247 247 247 248 248 246 247 246 247 246 246 247 247 246 246 247
246 239 243 238 241 245 240 244 241 240 236 241 241 239 236 241 248 251 249 248 245 245 245 244 246 243 243 244 246 246 247 243 242 244 247 245 245 246 247 247 249 251 249 248 249 248 248 248 246 246 247 247 246 246
248 243 237 235 236 237 238 235 234 237 240 244 241 241 242 247 247 251 247 246 247 247 245 244 245 247 248 248 245 245 244 242 245 248 245 245 246 248 249 248 248 251 248 246 246 246 247 248 247 247 247 247 247 247
238 235 243 237 236 232 239 235 237 242 242 237 238 244 246 249 251 251 250 246 241 238 239 240 241 243 245 246 246 244 243 240 240 242 243 246 246 248 247 248 249 253 250 246 247 246 245 246 247 247 246 246 248 249
236 230 233 238 234 235 238 241 241 238 237 236 242 244 245 245 244 242 244 240 234 237 242 246 246 236 239 240 241 242 243 241 243 246 248 250 249 252 247 247 247 247 247 247 249 251 247 246 247 247 247 248 249 250
237 228 236 233 239 244 241 236 235 230 229 232 231 236 239 240 241 237 236 236 240 244 245 243 240 239 245 241 246 246 243 243 245 249 249 252 253 248 245 245 246 246 246 245 246 247 250 252 252 252 251 249 249 249
230 229 236 234 239 236 231 226 224 225 226 226 224 231 235 236 237 239 239 241 243 237 238 244 245 243 242 244 241 242 250 247 245 246 248 250 250 250 251 251 250 249 248 247 247 247 247 247 247 247 247 246 247 248
232 234 238 242 241 232 228 229 228 230 229 229 231 225 231 233 239 247 244 238 237 240 245 244 244 250 249 250 249 249 251 253 249 247 246 248 248 249 250 250 250 249 248 248 247 247 247 246 246 247 247 247 248 248
230 228 228 233 239 240 235 234 236 237 233 232 234 233 232 236 244 249 244 244 250 250 252 250 250 250 249 249 250 251 250 251 251 254 256 255 253 253 252 251 250 249 248 248 248 248 248 247 247 247 248 248 248 248

GFSWCAN_sfc_thetae_117.txt.gz
Theta_e
291 291 293 293 295 298 300 300 300 299 299 301 301 301 300 299 298 297 292 294 293 286 285 286 287 285 287 291 288 287 290 289 287 287 287 286 285 285 285 287 285 284 284 284 285 283 280 293 291 288 294 294 294 294
291 292 292 294 298 300 300 300 300 299 299 300 300 300 300 299 298 297 292 294 295 287 285 288 288 288 287 287 290 289 290 287 296 289 287 286 284 285 286 281 288 285 289 287 288 288 292 293 293 295 295 296 294 296
293 292 294 296 298 298 299 300 299 299 299 299 299 299 299 298 297 297 291 291 293 285 287 288 285 289 290 288 289 290 290 293 292 296 290 287 285 290 285 287 287 288 293 290 288 291 291 292 291 292 292 294 293 294
296 297 298 298 298 298 299 299 299 299 298 299 299 299 298 298 297 295 290 291 291 287 284 284 290 288 290 292 292 292 292 293 293 294 288 285 285 288 289 289 291 290 290 288 288 287 289 290 292 292 290 291 290 289
296 297 297 298 298 298 298 299 299 298 298 298 299 298 297 297 296 295 294 292 292 287 283 284 286 287 289 291 289 290 290 290 289 287 286 285 287 287 285 288 288 290 290 287 287 291 293 292 292 291 289 289 289 288
295 297 297 297 297 297 297 298 298 298 297 297 297 296 294 292 291 294 285 291 291 289 286 280 284 284 286 289 288 287 286 285 285 285 285 285 286 287 286 285 287 290 291 293 292 293 292 291 291 292 290 289 288 287
296 296 296 297 297 297 297 298 298 297 296 296 296 296 295 295 292 285 283 287 290 289 285 280 281 284 285 287 287 286 288 286 287 285 284 284 284 287 286 286 284 285 291 291 289 289 286 288 286 288 286 284 282 280
295 295 296 296 296 296 297 297 297 297 296 295 295 294 294 293 292 286 288 290 288 286 285 279 278 282 284 283 283 285 284 287 283 284 285 283 284 284 280 278 276 275 284 283 284 288 288 286 284 282 282 282 280 279
291 292 292 292 293 293 292 292 294 294 293 292 290 289 290 285 284 284 289 287 287 285 278 278 277 276 283 282 283 284 283 281 283 282 281 282 281 277 272 272 270 269 271 272 279 282 282 281 280 280 281 280 278 277
290 290 291 291 291 291 290 289 289 289 289 288 288 285 280 282 285 285 283 282 278 277 278 274 273 276 280 280 280 281 280 277 277 277 280 281 273 270 269 267 267 267 268 270 280 278 278 277 276 274 273 273 274 273
289 289 289 289 290 289 289 289 288 287 287 283 281 280 283 283 284 279 273 273 272 272 271 271 273 275 280 278 277 277 277 275 275 276 276 277 275 269 267 265 264 264 266 266 269 270 271 275 273 271 269 267 267 266
289 288 288 288 288 288 288 288 287 282 279 280 280 278 281 275 276 272 266 269 269 266 268 268 272 274 278 279 279 276 274 274 272 273 276 273 267 262 263 262 261 261 262 262 264 264 265 265 267 267 265 264 263 262
288 288 287 288 287 287 287 286 285 283 279 281 277 272 273 270 266 266 264 267 268 265 266 266 270 274 279 278 275 275 273 271 272 273 273 268 262 260 259 259 260 259 260 261 261 262 262 261 260 261 260 260 262 260
287 287 287 286 286 286 285 284 283 280 276 269 270 263 265 265 264 263 263 263 264 264 263 264 267 273 276 275 274 272 269 270 270 268 270 263 257 256 257 257 257 257 257 258 257 259 259 259 258 257 257 257 258 258
286 286 286 285 285 285 283 281 278 271 271 267 269 261 262 260 261 260 260 261 263 262 263 266 269 271 275 273 271 269 268 268 270 269 263 259 255 255 255 255 254 254 254 255 256 256 256 256 257 257 255 255 256 256
284 283 282 286 284 282 281 274 270 269 262 264 260 263 260 263 262 261 260 261 262 261 263 264 268 271 271 271 270 269 269 268 267 260 257 257 254 253 253 253 253 253 253 254 255 255 256 255 254 255 255 255 254 255
281 277 283 284 282 278 277 270 268 258 261 261 257 253 256 259 259 259 257 260 261 260 265 265 269 267 270 269 268 266 267 261 258 256 255 254 254 253 252 252 252 252 252 253 253 254 254 254 254 255 257 256 254 255
276 279 282 282 277 273 266 265 263 262 258 257 260 257 256 256 258 260 260 260 259 261 262 263 263 267 268 267 268 260 258 256 256 256 256 255 253 252 252 252 252 252 252 252 252 252 252 253 255 257 254 255 254 257
279 279 280 280 274 268 266 263 263 259 256 256 257 257 257 258 257 257 258 259 258 259 259 263 264 266 264 259 258 257 255 254 255 255 255 253 252 251 251 251 251 252 252 251 252 253 253 252 252 253 254 254 254 255
278 279 279 276 274 269 263 261 264 262 259 258 257 259 258 259 257 257 257 257 258 260 260 260 259 257 256 255 254 254 254 253 252 253 256 255 253 250 251 252 252 252 251 252 252 251 253 254 254 254 253 253 252 254
273 273 274 270 265 263 260 259 259 258 259 259 258 258 259 258 257 256 256 255 259 256 259 255 255 255 252 252 252 251 251 251 252 252 253 253 253 252 252 253 251 251 251 252 253 254 251 253 254 254 252 252 253 253
268 271 267 267 264 262 259 257 258 259 259 258 259 257 257 258 256 254 251 257 257 256 255 255 254 253 252 251 251 249 250 248 249 249 249 249 250 253 254 253 251 251 252 252 253 253 254 255 253 252 251 252 252 252
266 266 262 261 261 259 254 258 257 254 258 256 257 258 256 255 253 251 256 256 256 254 252 252 251 248 249 249 245 247 247 246 249 251 251 251 252 252 251 251 251 249 250 253 254 252 252 252 252 250 252 251 252 252
260 253 253 253 255 252 254 252 254 254 254 253 254 256 253 250 247 256 259 258 257 251 250 250 249 252 251 246 249 252 252 248 249 251 251 249 250 252 253 252 252 252 251 252 252 252 252 251 251 251 251 250 250 250
259 250 251 251 251 253 252 253 251 254 251 248 251 252 251 244 254 256 257 260 256 255 254 249 248 250 251 253 253 253 247 249 251 252 254 251 252 251 251 252 252 252 253 250 250 250 250 251 250 250 250 250 249 249
251 244 248 248 249 251 249 251 249 248 247 249 251 248 246 250 252 256 258 259 256 256 255 253 254 253 252 250 252 253 253 249 248 248 251 252 250 250 251 251 251 253 254 251 251 251 251 251 250 249 249 249 249 248
251 248 244 240 243 244 245 242 241 245 247 249 251 249 249 250 253 258 258 255 256 256 254 254 254 253 254 255 253 252 251 248 249 252 251 250 250 251 251 250 251 253 253 250 250 250 250 250 250 250 250 251 251 250
245 243 246 243 243 240 245 244 246 247 250 245 245 248 249 253 256 259 258 255 253 249 249 250 249 250 251 252 252 251 250 249 246 246 246 248 248 249 250 250 251 255 253 251 250 250 249 249 249 249 249 249 250 251
244 238 239 241 240 243 245 249 249 248 244 246 249 251 252 253 253 253 254 249 244 246 248 251 253 247 247 247 247 247 248 247 247 248 250 254 256 256 251 250 250 250 250 250 252 253 250 249 249 249 249 249 250 251
242 235 243 241 242 249 248 243 244 238 237 238 236 241 244 245 246 247 245 245 246 249 251 251 249 247 249 249 251 251 249 248 248 251 253 254 257 254 251 251 250 251 250 249 249 250 253 254 254 253 253 252 251 251
237 237 242 243 246 245 239 234 232 232 234 235 233 236 241 241 241 244 244 247 249 247 247 249 250 248 247 248 248 249 253 253 248 249 250 253 253 253 254 254 254 253 252 251 250 249 249 249 249 248 249 249 250 250
239 241 243 245 246 238 235 238 238 239 238 237 239 234 237 239 244 251 249 245 245 248 249 250 250 254 252 252 253 253 254 255 255 252 249 250 251 252 253 253 253 252 252 251 250 250 249 248 248 249 249 249 250 250
238 237 237 240 244 244 240 239 242 242 240 241 242 240 241 242 246 252 249 247 253 256 258 256 255 255 252 251 252 253 253 254 254 257 258 257 255 255 255 254 254 253 252 251 251 251 250 249 249 249 249 249 249 249